[[{"header":{"parameterUnit":"m.s-1","parameterCategory":1,"la1":30.6,"la2":28.766,"lo1":-90.7593,"lo2":-88.6598,"dy":0.0162,"dx":0.0183,"nx":116,"ny":114,"refTime":"2023-07-19T12:00:00:Z","depth":0,"parameterNumber":2,"parameterNumberName":"U-component_of_WINDS"},"data":[0.0,0.0,0.0,0.0,0.0,0.0,0.0,0.0,0.0,0.0,0.0,0.0,0.0,0.0,0.0,0.0,0.0,0.0,0.0,0.0,0.0,0.0,0.0,0.0,0.0,0.0,0.0,0.0,0.0,0.0,0.0,0.0,0.0,0.0,0.0,0.0,0.0,0.0,0.0,0.0,0.0,0.0,0.0,0.0,0.0,0.0,0.0,0.0,0.0,0.0,0.0,0.0,0.0,0.0,0.0,0.0,0.0,0.0,0.0,0.0,0.0,0.0,0.0,0.0,0.0,0.0,0.0,0.0,0.0,0.0,0.0,0.0,0.0,0.0,0.0,0.0,0.0,0.0,0.0,0.0,0.0,0.0,0.0,0.0,0.0,0.0,0.0,0.0,0.0,0.0,0.0,0.0,0.0,0.0,0.0,0.0,0.0,0.0,0.0,0.0,0.0,0.0,0.0,0.0,0.0,0.0,0.0,0.0,0.0,0.0,0.0,0.0,0.0,0.0,0.0,0.0,0.0,0.0,0.0,0.0,0.0,0.0,0.0,0.0,0.0,0.0,0.0,0.0,0.0,0.0,0.0,0.0,0.0,0.0,0.0,0.0,0.0,0.0,0.0,0.0,0.0,0.0,0.0,0.0,0.0,0.0,0.0,0.0,0.0,0.0,0.0,0.0,0.0,0.0,0.0,0.0,0.0,0.0,0.0,0.0,0.0,0.0,0.0,0.0,0.0,0.0,0.0,0.0,0.0,0.0,0.0,0.0,0.0,0.0,0.0,0.0,0.0,0.0,0.0,0.0,0.0,0.0,0.0,0.0,0.0,0.0,0.0,0.0,0.0,0.0,0.0,0.0,0.0,0.0,0.0,0.0,0.0,0.0,0.0,0.0,0.0,0.0,0.0,0.0,0.0,0.0,0.0,0.0,0.0,0.0,0.0,0.0,0.0,0.0,0.0,0.0,0.0,0.0,0.0,0.0,0.0,0.0,0.0,0.0,0.0,0.0,0.0,0.0,0.0,0.0,0.0,0.0,0.0,0.0,0.0,0.0,0.0,0.0,0.0,0.0,0.0,0.0,0.0,0.0,0.0,0.0,0.0,0.0,0.0,0.0,0.0,0.0,0.0,0.0,0.0,0.0,0.0,0.0,0.0,0.0,0.0,0.0,0.0,0.0,0.0,0.0,0.0,0.0,0.0,0.0,0.0,0.0,0.0,0.0,0.0,0.0,0.0,0.0,0.0,0.0,0.0,0.0,0.0,0.0,0.0,0.0,0.0,0.0,0.0,0.0,0.0,0.0,0.0,0.0,0.0,0.0,0.0,0.0,0.0,0.0,0.0,0.0,0.0,0.0,0.0,0.0,0.0,0.0,0.0,0.0,0.0,0.0,0.0,0.0,0.0,0.0,0.0,0.0,0.0,0.0,0.0,0.0,0.0,0.0,0.0,0.0,0.0,0.0,0.0,0.0,0.0,0.0,0.0,0.0,0.0,0.0,0.0,0.0,0.0,0.0,0.0,0.0,0.0,0.0,0.0,0.0,0.0,0.0,0.0,0.0,0.0,0.0,0.0,0.0,0.0,0.0,0.0,0.0,0.0,0.0,0.0,0.0,0.0,0.0,0.0,0.0,0.0,0.0,0.0,0.0,0.0,0.0,0.0,0.0,0.0,0.0,0.0,0.0,0.0,0.0,0.0,0.0,0.0,0.0,0.0,0.0,0.0,0.0,0.0,0.0,0.0,0.0,0.0,0.0,0.0,0.0,0.0,0.0,0.0,0.0,0.0,0.0,0.0,0.0,0.0,0.0,0.0,0.0,0.0,0.0,0.0,0.0,0.0,0.0,0.0,0.0,0.0,0.0,0.0,0.0,0.0,0.0,0.0,0.0,0.0,0.0,0.0,0.0,0.0,0.0,0.0,0.0,0.0,0.0,0.0,0.0,0.0,0.0,0.0,0.0,0.0,0.0,0.0,0.0,0.0,0.0,0.0,0.0,0.0,0.0,0.0,0.0,0.0,0.0,0.0,0.0,0.0,0.0,0.0,0.0,0.0,0.0,0.0,0.0,0.0,0.0,0.0,0.0,0.0,0.0,0.0,0.0,0.0,0.0,0.0,0.0,0.0,0.0,0.0,0.0,0.0,0.0,0.0,0.0,0.0,0.0,0.0,0.0,0.0,0.0,0.0,0.0,0.0,0.0,0.0,0.0,0.0,0.0,0.0,0.0,0.0,0.0,0.0,0.0,0.0,0.0,0.0,0.0,0.0,0.0,0.0,0.0,0.0,0.0,0.0,0.0,0.0,0.0,0.0,0.0,0.0,0.0,0.0,0.0,0.0,0.0,0.0,0.0,0.0,0.0,0.0,0.0,0.0,0.0,0.0,0.0,0.0,0.0,0.0,0.0,0.0,0.0,0.0,0.0,0.0,0.0,0.0,0.0,0.0,0.0,0.0,0.0,0.0,0.0,0.0,0.0,0.0,0.0,0.0,0.0,0.0,0.0,0.0,0.0,0.0,0.0,0.0,0.0,0.0,0.0,0.0,0.0,0.0,0.0,0.0,0.0,0.0,0.0,0.0,0.0,0.0,0.0,0.0,0.0,0.0,0.0,0.0,0.0,0.0,0.0,0.0,0.0,0.0,0.0,0.0,0.0,0.0,0.0,0.0,0.0,0.0,0.0,0.0,0.0,0.0,0.0,0.0,0.0,0.0,0.0,0.0,0.0,0.0,0.0,0.0,0.0,0.0,0.0,0.0,0.0,0.0,0.0,0.0,0.0,0.0,0.0,0.0,0.0,0.0,0.0,0.0,0.0,0.0,0.0,0.0,0.0,0.0,0.0,0.0,0.0,0.0,0.0,0.0,0.0,0.0,0.0,0.0,0.0,0.0,0.0,0.0,0.0,0.0,0.0,0.0,0.0,0.0,0.0,0.0,0.0,0.0,0.0,0.0,0.0,0.0,0.0,0.0,0.0,0.0,0.0,0.0,0.0,0.0,0.0,0.0,0.0,0.0,0.0,0.0,0.0,0.0,0.0,0.0,0.0,0.0,0.0,0.0,0.0,0.0,0.0,0.0,0.0,0.0,0.0,0.0,0.0,0.0,0.0,0.0,0.0,0.0,0.0,0.0,0.0,0.0,0.0,0.0,0.0,0.0,0.0,0.0,0.0,0.0,0.0,0.0,0.0,0.0,0.0,0.0,0.0,0.0,0.0,0.0,0.0,0.0,0.0,0.0,0.0,0.0,0.0,0.0,0.0,0.0,0.0,0.0,0.0,0.0,0.0,0.0,0.0,0.0,0.0,0.0,0.0,0.0,0.0,0.0,0.0,0.0,0.0,0.0,0.0,0.0,0.0,0.0,0.0,0.0,0.0,0.0,0.0,0.0,0.0,0.0,0.0,0.0,0.0,0.0,0.0,0.0,0.0,0.0,0.0,0.0,0.0,0.0,0.0,0.0,0.0,0.0,0.0,0.0,0.0,0.0,0.0,0.0,0.0,0.0,0.0,0.0,0.0,0.0,0.0,0.0,0.0,0.0,0.0,0.0,0.0,0.0,0.0,0.0,0.0,0.0,0.0,0.0,0.0,0.0,0.0,0.0,0.0,0.0,0.0,0.0,0.0,0.0,0.0,0.0,0.0,0.0,0.0,0.0,0.0,0.0,0.0,0.0,0.0,0.0,0.0,0.0,0.0,0.0,0.0,0.0,0.0,0.0,0.0,0.0,0.0,0.0,0.0,0.0,0.0,0.0,0.0,0.0,0.0,0.0,0.0,0.0,0.0,0.0,0.0,0.0,0.0,0.0,0.0,0.0,0.0,0.0,0.0,0.0,0.0,0.0,0.0,0.0,0.0,0.0,0.0,0.0,0.0,0.0,0.0,0.0,0.0,0.0,0.0,0.0,0.0,0.0,0.0,0.0,0.0,0.0,0.0,0.0,0.0,0.0,0.0,0.0,0.0,0.0,0.0,0.0,0.0,0.0,0.0,0.0,0.0,0.0,0.0,0.0,0.0,0.0,0.0,0.0,0.0,0.0,0.0,0.0,0.0,0.0,0.0,0.0,0.0,0.0,0.0,0.0,0.0,0.0,0.0,0.0,0.0,0.0,0.0,0.0,0.0,0.0,0.0,0.0,0.0,0.0,0.0,0.0,0.0,0.0,0.0,0.0,0.0,0.0,0.0,0.0,0.0,0.0,0.0,0.0,0.0,0.0,0.0,0.0,0.0,0.0,0.0,0.0,0.0,0.0,0.0,0.0,0.0,0.0,0.0,0.0,0.0,0.0,0.0,0.0,0.0,0.0,0.0,0.0,0.0,0.0,0.0,0.0,0.0,0.0,0.0,0.0,0.0,0.0,0.0,0.0,0.0,0.0,0.0,0.0,0.0,0.0,0.0,0.0,0.0,0.0,0.0,0.0,0.0,0.0,0.0,0.0,0.0,0.0,0.0,0.0,0.0,0.0,0.0,0.0,0.0,0.0,0.0,0.0,0.0,0.0,0.0,0.0,0.0,0.0,0.0,0.0,0.0,0.0,0.0,0.0,0.0,0.0,0.0,0.0,0.0,0.0,0.0,0.0,0.0,0.0,0.0,0.0,0.0,0.0,0.0,0.0,0.0,0.0,0.0,0.0,0.0,0.0,0.0,0.0,0.0,0.0,0.0,0.0,0.0,0.0,0.0,0.0,0.0,0.0,0.0,0.0,0.0,0.0,0.0,0.0,0.0,0.0,0.0,0.0,0.0,0.0,0.0,0.0,0.0,0.0,0.0,0.0,0.0,0.0,0.0,0.0,0.0,0.0,0.0,0.0,0.0,0.0,0.0,0.0,0.0,0.0,0.0,0.0,0.0,0.0,0.0,0.0,0.0,0.0,0.0,0.0,0.0,0.0,0.0,0.0,0.0,0.0,0.0,0.0,0.0,0.0,0.0,0.0,0.0,0.0,0.0,0.0,0.0,0.0,0.0,0.0,0.0,0.0,0.0,0.0,0.0,0.0,0.0,0.0,0.0,0.0,0.0,0.0,0.0,0.0,0.0,0.0,0.0,0.0,0.0,0.0,0.0,0.0,0.0,0.0,0.0,0.0,0.0,0.0,0.0,0.0,0.0,0.0,0.0,0.0,0.0,0.0,0.0,0.0,0.0,0.0,0.0,0.0,0.0,0.0,0.0,0.0,0.0,0.0,0.0,0.0,0.0,0.0,0.0,0.0,0.0,0.0,0.0,0.0,0.0,0.0,0.0,0.0,0.0,0.0,0.0,0.0,0.0,0.0,0.0,0.0,0.0,0.0,0.0,0.0,0.0,0.0,0.0,0.0,0.0,0.0,0.0,0.0,0.0,0.0,0.0,0.0,0.0,0.0,0.0,0.0,0.0,0.0,0.0,0.0,0.0,0.0,0.0,0.0,0.0,0.0,0.0,0.0,0.0,0.0,0.0,0.0,0.0,0.0,0.0,0.0,0.0,0.0,0.0,0.0,0.0,0.0,0.0,0.0,0.0,0.0,0.0,0.0,0.0,0.0,0.0,0.0,0.0,0.0,0.0,0.0,0.0,0.0,0.0,0.0,0.0,0.0,0.0,0.0,0.0,0.0,0.0,0.0,0.0,0.0,0.0,0.0,0.0,0.0,0.0,0.0,0.0,0.0,0.0,0.0,0.0,0.0,0.0,0.0,0.0,0.0,0.0,0.0,0.0,0.0,0.0,0.0,0.0,0.0,0.0,0.0,0.0,0.0,0.0,0.0,0.0,0.0,0.0,0.0,0.0,0.0,0.0,0.0,0.0,0.0,0.0,0.0,0.0,0.0,0.0,0.0,0.0,0.0,0.0,0.0,0.0,0.0,0.0,0.0,0.0,0.0,0.0,0.0,0.0,0.0,0.0,0.0,0.0,0.0,0.0,0.0,0.0,0.0,0.0,0.0,0.0,0.0,0.0,0.0,0.0,0.0,0.0,0.0,0.0,0.0,0.0,0.0,0.0,0.0,0.0,0.0,0.0,0.0,0.0,0.0,0.0,0.0,0.0,0.0,0.0,0.0,0.0,0.0,0.0,0.0,0.0,0.0,0.0,0.0,0.0,0.0,0.0,0.0,0.0,0.0,0.0,0.0,0.0,0.0,0.0,0.0,0.0,0.0,0.0,-0.4999,0.0,0.0,0.0,0.0,0.0,0.0,0.0,0.0,0.0,0.0,0.0,0.0,0.0,0.0,0.0,0.0,0.0,0.0,0.0,0.0,0.0,0.0,0.0,0.0,0.0,0.0,0.0,0.0,0.0,0.0,0.0,0.0,0.0,0.0,0.0,0.0,0.0,0.0,0.0,0.0,0.0,0.0,0.0,0.0,0.0,0.0,0.0,0.0,0.0,0.0,0.0,0.0,0.0,0.0,0.0,0.0,0.0,0.0,0.0,0.0,0.0,0.0,0.0,0.0,0.0,0.0,0.0,0.0,0.0,0.0,0.0,0.0,0.0,0.0,0.0,0.0,0.0,0.0,0.0,0.0,0.0,0.0,0.0,0.0,0.0,0.0,0.0,0.0,0.0,0.0,0.0,0.0,0.0,0.0,0.0,0.0,0.0,0.0,0.0,0.0,0.0,0.0,0.0,0.0,0.0,0.0,0.0,0.0,0.0,0.0,0.0,0.0,0.0,0.0,0.0,0.0,-0.6688,0.0,0.0,0.0,0.0,0.0,0.0,0.0,0.0,0.0,0.0,0.0,0.0,0.0,0.0,0.0,0.0,0.0,0.0,0.0,0.0,0.0,0.0,0.0,0.0,0.0,0.0,0.0,0.0,0.0,0.0,0.0,0.0,0.0,0.0,0.0,0.0,0.0,0.0,0.0,0.0,0.0,0.0,0.0,0.0,0.0,0.0,0.0,0.0,0.0,0.0,0.0,0.0,0.0,0.0,0.0,0.0,0.0,0.0,0.0,0.0,0.0,0.0,0.0,0.0,0.0,0.0,0.0,0.0,0.0,0.0,0.0,0.0,0.0,0.0,0.0,0.0,0.0,0.0,0.0,0.0,0.0,0.0,0.0,0.0,0.0,0.0,0.0,0.0,0.0,0.0,0.0,0.0,0.0,0.0,0.0,0.0,0.0,0.0,0.0,0.0,0.0,0.0,0.0,0.0,0.0,0.0,0.0,0.0,-0.4952,-0.6012,-0.6471,-0.7605,-0.8225,-0.8486,-0.8853,-0.8549,-0.7938,-0.8446,0.0,0.0,0.0,0.0,0.0,0.0,0.0,0.0,0.0,0.0,0.0,0.0,0.0,0.0,0.0,0.0,0.0,0.0,0.0,0.0,0.0,0.0,0.0,0.0,0.0,0.0,0.0,0.0,0.0,0.0,0.0,0.0,0.0,0.0,0.0,0.0,0.0,0.0,1.12,1.1156,1.1545,1.2251,0.0,0.0,0.0,0.0,0.0,0.0,0.0,0.0,0.0,0.0,0.0,0.0,0.0,0.0,0.0,0.0,0.0,0.0,0.0,0.0,0.0,0.0,0.0,0.0,0.0,0.0,0.0,0.0,0.0,0.0,0.0,0.0,0.0,0.0,0.0,0.0,0.0,0.0,0.0,0.0,0.0,0.0,0.0,0.0,0.7855,0.6567,0.0,0.0,0.0,0.0,0.0,0.0,0.0,0.0,0.0,0.0,0.0,0.0,0.0,-0.3383,-0.4493,-0.5129,-0.5919,-0.6941,-0.7439,-0.8299,-0.933,-0.9722,-0.9921,-0.9917,-1.0237,0.0,-0.9578,-0.9418,0.0,0.0,0.0,0.0,0.0,0.0,0.0,0.0,0.0,0.0,0.0,0.0,0.0,0.0,0.0,0.0,0.0,0.0,0.0,0.0,0.0,0.0,0.0,0.0,0.0,0.0,0.0,0.0,0.0,0.0,0.0,0.0,0.0,0.0,0.0,0.0,0.9989,1.028,1.0721,1.0603,1.0979,1.1768,1.1054,1.0984,1.1262,1.1262,0.0,0.0,0.0,0.0,0.0,0.0,0.0,0.0,0.0,0.0,0.0,0.0,0.0,0.0,0.0,0.0,0.0,0.0,0.0,0.0,0.0,0.0,0.0,0.0,0.0,0.0,0.0,0.0,0.0,0.0,0.0,0.0,0.0,0.0,0.0,0.0,0.0,0.0,0.0,0.6386,0.5038,0.3774,0.4126,0.4142,0.0,0.0,0.0,0.0,0.0,0.0,0.0,0.0,0.0,-0.3714,-0.4436,-0.5234,-0.5991,-0.6792,-0.748,-0.8135,-0.8895,-0.9613,-1.0198,-1.0491,-1.0637,-1.0733,-1.0924,-1.0829,-1.0628,-1.0238,-1.0004,-0.9918,0.0,0.0,0.0,0.0,-0.9103,-0.8898,0.0,0.0,0.0,0.0,0.0,0.0,0.0,0.0,0.0,0.0,0.0,0.0,0.0,0.0,0.0,0.0,0.0,0.0,0.0,0.0,0.0,0.0,0.0,0.0,0.0,0.0,0.0,0.0,0.948,0.9667,1.0064,0.988,1.0212,1.0916,1.0641,1.0727,1.1262,1.1262,1.1262,0.0,0.0,0.0,0.0,0.0,0.0,0.0,0.0,0.0,0.0,0.0,0.0,0.0,0.0,0.0,0.0,0.0,0.0,0.0,0.0,0.0,0.0,0.0,0.0,0.0,0.0,0.0,0.0,0.0,0.0,0.0,0.0,0.0,0.0,0.0,0.0,0.0,0.0,0.366,0.2504,0.1162,0.1519,0.1607,0.0,0.0,0.0,0.0,0.0,0.0,-0.2718,-0.3945,-0.5085,-0.602,-0.652,-0.6951,-0.7292,-0.8085,-0.8675,-0.9055,-0.9854,-1.0341,-1.0692,-1.089,-1.1081,-1.1279,-1.1628,-1.1746,-1.1727,-1.0979,-1.0779,-1.0885,-1.0649,-1.0507,-1.0404,-1.0212,-0.9826,-0.9509,0.0,0.0,0.0,0.0,0.0,0.0,0.0,0.0,0.0,0.0,0.0,0.0,0.0,0.0,0.0,0.0,0.0,0.0,0.0,0.0,0.0,0.0,0.0,0.0,0.0,0.0,0.0,0.8941,0.895,0.9055,0.9331,0.9345,0.9607,1.0038,1.0038,1.0472,1.1262,1.1262,1.1262,1.1262,0.0,0.0,0.0,0.0,0.0,0.0,0.0,0.0,0.0,0.0,0.0,0.0,0.0,0.0,0.0,0.0,0.0,0.0,0.0,0.0,0.0,0.0,0.0,0.0,0.0,0.0,0.0,0.0,0.0,0.0,0.0,0.0,0.0,0.0,0.0,0.0,0.0,0.0,0.0,-0.0982,0.0357,0.0,0.0,0.0,0.0,-0.3383,-0.3585,-0.4085,-0.5287,-0.6426,-0.7185,-0.7185,-0.8478,-0.9259,-0.9279,-0.9535,-0.9914,-1.04,-1.0414,-1.0706,-1.1184,-1.1401,-1.1501,-1.151,-1.2817,-1.3416,-1.3282,-1.1741,-1.156,-1.2129,-1.1184,-1.1184,-1.1658,-1.0699,-1.0314,-1.0314,0.0,0.0,0.0,0.0,0.0,0.0,0.0,0.0,0.0,0.0,0.0,0.0,0.0,0.0,0.0,0.0,0.0,0.0,0.0,0.0,0.0,0.0,0.0,0.0,0.0,0.0,0.8914,0.9152,0.8896,0.8931,0.9262,0.9003,0.9262,0.9951,0.9694,0.9868,1.0477,1.0733,1.0814,1.0906,1.1176,1.1089,0.0,0.0,0.0,0.0,0.0,0.0,0.0,0.0,0.0,0.0,0.0,0.0,0.0,0.0,0.0,0.0,0.0,0.0,0.0,0.0,0.0,0.0,0.0,0.0,0.0,0.0,0.0,0.0,0.0,0.0,0.0,0.0,0.0,0.0,0.0,0.0,0.0,-0.2412,-0.2676,0.0,-0.4451,-0.3917,-0.3948,-0.4862,-0.5624,-0.6208,-0.6629,-0.7768,-0.843,-0.843,-0.9259,-0.9765,-1.011,-1.04,-1.0857,-1.1391,-1.1391,-1.1827,-1.2703,-1.2978,-1.3409,-1.4211,-1.4915,-1.5166,-1.5147,-1.4554,-1.4278,-1.4079,-1.2989,-1.2592,-1.2586,-1.159,-1.1087,-1.0782,0.0,0.0,0.0,0.0,0.0,0.0,0.0,0.0,0.0,0.0,0.0,0.0,0.0,0.0,0.0,0.0,0.0,0.0,0.0,0.0,0.0,0.0,0.0,0.0,0.0,0.0,0.0,0.0,0.0,0.0,0.0,0.874,0.8915,0.9519,0.9174,0.9262,0.9519,0.9946,1.0294,1.0376,1.0738,1.0651,1.0294,0.0,0.0,0.0,0.0,0.0,0.0,0.0,0.0,0.0,0.0,0.0,0.0,0.0,0.0,0.0,0.0,0.0,0.0,0.0,0.0,0.0,0.0,0.0,0.0,0.0,0.0,0.0,0.0,0.0,0.0,0.0,0.0,0.0,0.0,0.0,-0.28,-0.3792,-0.463,-0.5494,-0.6403,-0.5858,-0.5906,-0.678,-0.7224,-0.7624,-0.8013,-0.8791,-0.9303,-0.9456,-0.9824,-1.025,-1.0712,-1.0947,-1.1281,-1.1718,-1.1718,-1.2265,-1.3254,-1.3826,-1.4572,-1.5491,-1.6508,-1.6866,-1.6866,-1.7272,-1.7171,-1.6636,-1.452,-1.3749,-1.3744,-1.2735,-1.1916,-1.13,0.0,0.0,0.0,0.0,0.0,0.0,0.0,0.0,0.0,0.0,0.0,0.0,0.0,0.0,0.0,0.0,0.0,0.0,0.0,0.0,0.0,0.0,0.0,0.0,0.0,0.0,0.0,0.0,0.0,0.0,0.0,0.0,0.8568,0.8568,0.8568,0.8568,0.8564,0.8999,0.9432,0.9864,0.9951,0.9423,0.8456,0.0,0.0,0.0,0.0,0.0,0.0,0.0,0.0,0.0,0.0,0.0,0.0,0.0,0.0,0.0,0.0,0.0,0.0,0.0,0.0,0.0,0.0,0.0,0.0,0.0,0.0,0.0,0.0,0.0,0.0,0.0,0.0,0.0,-0.0809,-0.2553,-0.4246,-0.5257,-0.5528,-0.6441,-0.852,-0.7104,-0.6972,-0.9244,-0.8343,-0.8302,-0.9517,-0.9636,-0.9809,-1.0281,-1.0471,-1.0793,-1.1125,-1.1134,-1.1245,-1.1557,-1.1562,-1.2079,-1.2905,-1.3931,-1.4757,-1.5407,-1.7553,-1.852,-1.8617,-1.9672,-2.0086,-1.9693,-1.5679,-1.4677,-1.5386,-1.4078,-1.2859,-1.1836,0.0,0.0,0.0,0.0,0.0,0.0,0.0,0.0,0.0,0.0,0.0,0.0,0.0,0.0,0.0,0.0,0.0,0.0,0.0,0.0,0.0,0.0,0.0,0.0,0.0,0.0,0.0,0.0,0.0,0.0,0.0,0.758,0.7492,0.6962,0.6962,0.6962,0.7051,0.7139,0.7312,0.7573,0.9336,0.951,0.8715,0.0,0.0,0.0,0.0,0.0,0.0,0.0,0.0,0.0,0.0,0.0,0.0,0.0,0.0,0.0,0.0,0.0,0.0,0.0,0.0,0.0,0.0,0.0,0.0,0.0,0.0,0.0,0.0,0.0,0.0,0.0,0.0,-0.329,-0.3084,-0.4221,-0.5551,-0.6578,-0.7553,-0.8337,-0.8905,-0.8528,-0.8592,-0.9344,-0.9235,-0.928,-0.9803,-1.0012,-1.0138,-1.0285,-1.0755,-1.1536,-1.2628,-1.2236,-1.2578,-1.3696,-1.3863,-1.4625,-1.5896,-1.7373,-1.8711,-1.9913,-2.0651,-2.0878,-2.0557,-2.088,-2.094,-2.0475,-1.8088,-1.7295,-1.7405,-1.5521,-1.406,-1.2807,0.0,0.0,0.0,0.0,0.0,0.0,0.0,0.0,0.0,0.0,0.0,0.0,0.0,0.0,0.0,0.0,0.0,0.0,0.0,0.0,0.0,0.0,0.0,0.0,0.0,0.0,0.0,0.0,0.0,0.0,0.6428,0.6871,0.6782,0.6428,0.6428,0.6251,0.6068,0.6068,0.598,0.598,0.7562,0.8093,0.7749,0.6959,0.6425,0.5985,0.524,0.4987,0.5099,0.5251,0.0,0.0,0.0,0.0,0.0,0.0,0.0,0.0,0.0,0.0,0.0,0.0,0.0,0.0,0.0,0.0,0.0,0.0,0.0,0.0,0.0,0.0,0.0,0.0,-0.4678,-0.4666,-0.5468,-0.614,-0.6786,-0.7396,-0.8555,-0.9287,-0.9214,-0.934,-0.947,-0.9567,-0.9772,-1.0012,-1.0194,-1.0906,-1.135,-1.1639,-1.2139,-1.3021,-1.4505,-1.3826,-1.4077,-1.5433,-1.5793,-1.6422,-1.755,-1.8988,-2.0201,0.0,-2.1742,-2.1846,-2.1663,-2.1663,-2.1544,0.0,0.0,0.0,0.0,0.0,-1.5007,-1.4277,0.0,0.0,0.0,0.0,0.0,0.0,0.0,0.0,0.0,0.0,0.0,0.0,0.0,0.0,0.0,0.0,0.0,0.0,0.0,0.0,0.0,0.0,0.8086,0.0,0.0,0.0,0.0,0.7224,0.6694,0.6254,0.6074,0.6163,0.6163,0.5985,0.5985,0.5802,0.5351,0.5351,0.5174,0.4821,0.5174,0.5711,0.6074,0.5547,0.5374,0.5307,0.4774,0.4719,0.4937,0.5131,0.0,0.0,0.0,0.0,0.0,0.0,0.0,0.0,0.0,0.0,0.0,0.0,0.0,0.0,0.0,0.0,0.0,0.0,0.0,0.0,0.0,0.0,0.0,0.0,-0.5489,-0.5558,-0.7694,-0.8025,-0.8076,-0.7914,-0.8949,-0.9587,-0.9405,-0.9689,-0.9884,-0.9985,-1.0306,-1.0604,-1.0906,0.0,0.0,0.0,0.0,-1.5082,-1.6514,-1.5669,-1.5795,-1.7148,-1.7502,-1.7856,-1.8433,-1.9644,-2.053,-2.0974,-2.1744,-2.2053,-2.2021,-2.2021,-2.1989,-2.1779,-1.9829,-1.9056,-1.8736,-1.6592,-1.5861,-1.5986,0.0,0.0,0.0,0.0,0.0,0.0,0.0,0.0,0.0,0.0,0.0,0.0,0.0,0.0,0.0,0.0,0.0,0.0,0.0,0.0,0.7446,0.7757,0.7224,0.7038,0.7401,0.6874,0.634,0.5813,0.6166,0.563,0.4121,0.4739,0.4469,0.358,0.358,0.3491,0.3401,0.3401,0.3401,0.3312,0.3401,0.3848,0.4383,0.465,0.425,0.34,0.3322,0.3362,0.3422,0.3503,0.3725,0.3832,0.3709,0.0,0.0,0.0,0.0,0.0,0.0,0.0,0.0,0.0,0.0,0.0,0.0,0.0,0.0,0.0,0.0,0.0,0.0,0.0,0.0,-0.7221,-0.7302,-0.7581,-0.8868,-0.9304,-0.9363,-0.9148,-0.9517,-0.9766,-0.9592,-0.9762,-0.9985,-1.0188,-1.123,-1.2127,-1.256,-1.4287,-1.5275,-1.5441,-1.5963,-1.679,-1.8007,-1.7385,-1.7635,-1.8791,0.0,0.0,-2.0281,-2.1557,-2.2247,-2.2584,-2.2696,-2.2649,-2.2386,-2.2386,-2.222,-2.1918,-2.118,-2.049,-1.982,-1.8576,-1.7745,-1.7127,0.0,0.0,0.0,0.0,0.0,0.0,0.0,0.0,0.0,0.0,0.0,0.0,0.0,0.0,0.0,0.0,0.0,0.0,0.0,0.6938,0.6691,0.6926,0.6108,0.5808,0.6062,0.5447,0.5006,0.4654,0.465,0.4204,0.3227,0.3582,0.3403,0.2867,0.2867,0.2778,0.2511,0.2511,0.242,0.2152,0.242,0.2599,0.269,0.3442,0.3386,0.2872,0.2933,0.3068,0.3104,0.3165,0.3283,0.3288,0.3221,0.333,0.3226,0.0,0.0,0.0,0.0,0.0,0.0,0.0,0.0,0.0,0.0,0.0,0.0,0.0,0.0,-0.616,0.0,0.0,-0.676,-0.8398,-0.8213,-0.8311,-0.9393,-0.9817,-0.9987,-0.9522,-0.9907,-1.0157,-0.9971,-1.0305,-1.0681,-1.0781,-1.2303,-1.3378,-1.3604,-1.5896,-1.7211,-1.7211,-1.7601,-1.8427,-1.9896,-1.9051,-1.9314,-2.0706,-2.1207,-2.1509,-2.1631,-2.2441,-2.2901,-2.3014,-2.3014,-2.2911,-2.2752,-2.2752,-2.2649,-2.245,-2.21,-2.1317,-2.0382,-1.9876,-1.917,-1.8534,0.0,0.0,0.0,0.0,0.0,0.0,0.0,0.0,0.0,0.0,0.0,0.0,0.0,0.0,0.0,0.0,0.0,0.0,0.0,0.5774,0.5656,0.5841,0.4941,0.4531,0.4727,0.4024,0.3671,0.3671,0.3135,0.2868,0.2778,0.2778,0.2689,0.2598,0.2598,0.242,0.2064,0.2064,0.1794,0.1436,0.1884,0.1798,0.1538,0.2307,0.2604,0.2617,0.2809,0.2853,0.277,0.2913,0.2928,0.2928,0.2928,0.2928,0.2725,0.1712,0.1409,0.0,0.0,0.0,0.0,0.0,0.0,0.0,0.0,0.0,-0.439,-0.6216,-0.6724,-0.7164,-0.7994,-0.753,-0.7593,-0.9501,-0.905,-0.8866,-0.9677,-1.0163,-1.0348,-1.0,-1.045,-1.0677,-1.0514,-1.1234,-1.1786,-1.1823,-1.3749,-1.4961,-1.5011,-1.7467,-1.8967,-1.8967,-1.9261,-1.9998,-2.1264,-2.0708,-2.0945,-2.223,-2.257,-2.2683,-2.2683,-2.2901,-2.3014,-2.3014,-2.3014,-2.3014,-2.3014,-2.3014,-2.3014,-2.299,-2.2704,-2.1962,-2.1144,-2.1015,-2.0528,-2.0099,0.0,0.0,0.0,0.0,0.0,0.0,0.0,0.0,0.0,0.0,0.0,0.0,0.0,0.0,0.0,0.0,0.0,0.0,0.0,0.4453,0.4391,0.4509,0.3857,0.3512,0.3753,0.3223,0.3045,0.3045,0.2957,0.2689,0.2243,0.2243,0.2063,0.1524,0.1524,0.1524,0.1525,0.1525,0.1436,0.1436,0.1436,0.1451,0.1479,0.1603,0.1616,0.1621,0.1754,0.1787,0.1813,0.1817,0.1819,0.1819,0.1819,0.1819,0.1515,-0.0,0.0,-0.0806,-0.232,-0.2724,-0.2825,-0.2927,-0.3629,-0.4529,0.0,0.0,-0.7466,-0.7195,-0.8492,-0.9501,-0.8875,-0.9395,-1.0092,-1.0314,-1.0454,-1.0562,-1.0663,-1.0988,-1.1217,-1.1089,-1.123,-1.1248,-1.1226,-1.2369,-1.334,-1.3868,-1.5987,-1.7438,-1.8033,-1.9577,-2.0439,-2.0439,-2.109,-2.1494,-2.1616,-2.2093,-2.2335,-2.257,-2.2796,-2.3014,-2.3014,-2.3014,-2.3014,-2.3014,-2.3014,-2.3014,-2.3014,-2.3014,-2.3014,-2.3014,-2.2974,-2.2814,-2.2703,-2.2079,-2.185,-2.1742,0.0,0.0,0.0,0.0,0.0,0.0,0.0,0.0,0.0,0.0,0.0,0.0,0.0,0.0,0.0,0.0,0.0,0.0,0.3832,0.3521,0.3356,0.3514,0.2604,0.2231,0.2327,0.2151,0.2062,0.2062,0.2062,0.1883,0.1705,0.1345,0.1076,0.0807,0.0359,0.0179,0.0179,0.0179,-0.0,-0.0179,0.009,-0.009,-0.0546,-0.0376,-0.0476,-0.0573,0.0493,0.0903,0.0,0.0,0.0202,0.0202,0.0202,-0.0,-0.0504,-0.1611,-0.1914,0.0,-0.3328,-0.3932,0.0,0.0,-0.4832,-0.5732,-0.6429,-0.7575,-0.863,-0.9,-0.9755,-1.0258,-0.9938,-1.0375,-1.0715,0.0,-1.0914,-1.1041,-1.1041,-1.1491,-1.1666,-1.1666,-1.2635,-1.2816,-1.1955,-1.3759,-1.4889,-1.458,-1.695,-1.8551,-1.8789,-2.0358,-2.1232,-2.1232,-2.1707,-2.201,-2.2237,-2.2456,-2.2683,-2.2788,-2.2909,-2.3014,-2.3014,-2.3014,-2.3014,-2.3014,-2.3014,-2.3014,-2.3014,-2.3014,-2.3014,-2.3014,-2.3014,-2.3014,-2.2982,-2.268,-2.2577,-2.2577,0.0,0.0,0.0,0.0,0.0,0.0,0.0,0.0,0.0,0.0,0.0,0.0,0.0,0.0,0.0,0.0,0.0,0.0,0.0,0.2272,0.2234,0.2409,0.1509,0.0,0.1066,0.0894,0.0807,0.0807,0.0807,0.0717,0.0627,0.009,-0.0179,-0.0269,-0.0806,-0.1075,-0.1075,-0.1075,-0.1253,-0.1521,-0.1254,-0.1526,-0.2081,-0.1877,-0.2003,-0.2117,-0.0797,-0.0404,0.0,0.0,-0.1209,-0.1209,-0.1209,-0.1511,-0.2012,-0.2819,-0.3221,-0.3524,-0.4331,0.0,0.0,-0.5334,-0.5932,-0.6728,-0.7822,-0.8682,-0.9559,-1.0465,-1.0748,-1.0789,-1.0945,-1.1132,-1.1214,-1.1259,-1.1451,-1.1581,-1.1581,-1.1964,-1.2307,-1.2631,-1.413,-1.4744,-1.3693,-1.5632,-1.6692,-1.6061,-1.8181,-1.9597,-1.968,-2.095,-2.1782,-2.1782,-2.2116,-2.2343,-2.257,-2.2683,-2.2796,-2.3014,-2.3014,-2.3014,-2.3014,-2.3014,-2.3014,-2.3014,-2.3014,-2.3014,-2.3014,-2.3014,-2.3014,-2.3014,-2.3014,-2.3014,-2.3014,-2.3014,-2.3014,-2.3014,0.0,0.0,0.0,0.0,0.0,0.0,0.0,0.0,0.0,0.0,0.0,0.0,0.0,0.0,0.0,0.0,0.0,0.0,0.0,0.0393,0.0635,0.1302,0.0665,0.034,0.0348,-0.0266,-0.0628,-0.0628,-0.0628,-0.0896,-0.1342,-0.1342,-0.1609,-0.2054,-0.2054,-0.2054,-0.2054,-0.2054,-0.2054,-0.2054,-0.2054,-0.208,-0.2122,-0.2262,-0.2211,-0.2254,-0.2299,0.0,0.0,0.0,-0.2315,-0.2315,-0.2315,-0.2315,0.0,-0.3318,-0.4126,0.0,0.0,0.0,-0.5133,-0.6725,-0.7325,-0.7826,-0.8901,-0.9862,-1.0633,-1.1325,-1.134,-1.1321,-1.1732,-1.1978,-1.2018,-1.2023,-1.2192,-1.2323,-1.2323,-1.2621,-1.3194,-1.4398,-1.5812,-1.673,0.0,-1.7901,-1.8537,-1.8831,-2.0019,-2.0972,-2.1631,-2.166,-2.1782,-2.2116,-2.2456,-2.257,-2.257,-2.2909,-2.3014,-2.3014,-2.3014,-2.3014,-2.3014,-2.3014,-2.3014,-2.3014,-2.3014,-2.3014,-2.3014,-2.3014,-2.3014,-2.3014,-2.3014,-2.3014,-2.3014,-2.3014,-2.3014,-2.3014,0.0,0.0,0.0,0.0,0.0,0.0,0.0,0.0,0.0,0.0,0.0,0.0,0.0,0.0,0.0,0.0,0.0,0.0,0.0,-0.0699,-0.0792,-0.0729,-0.1077,-0.1187,-0.1213,-0.1504,-0.1609,-0.1609,-0.1609,-0.1699,-0.1877,-0.2324,-0.2683,-0.286,-0.3309,-0.3578,-0.3578,-0.3578,-0.3755,-0.4022,-0.3667,-0.3952,-0.4447,-0.4412,-0.4581,-0.4818,0.0,0.0,0.0,0.0,0.0,0.0,-0.4028,0.0,0.0,-0.4828,-0.5729,-0.6631,0.0,0.0,-0.7627,-0.8124,-0.8722,-0.932,-0.9612,-1.0461,-1.125,-1.1491,-1.168,-1.1865,-1.2006,-1.22,-1.2337,-1.2337,-1.2394,-1.2488,-1.2635,-1.3377,-1.4246,-1.4724,-1.6861,0.0,0.0,0.0,0.0,-1.9266,-2.0573,-2.1435,-2.166,-2.2124,-2.2343,-2.2456,-2.2683,-2.2909,-2.2909,-2.2901,-2.3014,-2.3014,-2.3014,-2.3014,-2.3014,-2.3014,-2.3014,-2.3014,-2.3014,-2.3014,-2.3014,-2.3464,-2.3352,-2.3014,-2.3464,-2.3352,-2.3014,-2.3014,-2.3014,-2.3014,0.0,0.0,0.0,0.0,0.0,0.0,0.0,0.0,0.0,0.0,0.0,0.0,0.0,0.0,0.0,0.0,0.0,0.0,0.0,0.0,-0.2515,-0.2472,-0.2775,-0.2925,-0.2737,-0.2972,-0.3015,-0.286,-0.286,-0.2949,-0.3126,-0.3664,-0.3935,-0.4115,-0.4565,-0.4835,-0.4835,-0.4835,-0.5013,-0.5191,-0.4926,-0.5196,-0.576,-0.5996,-0.6086,0.0,0.0,0.0,0.0,0.0,0.0,0.0,0.0,-0.5834,-0.6334,-0.6334,-0.7132,-0.8028,-0.7925,-0.8326,-0.8924,-0.9513,-0.9817,-1.0134,-1.0401,-1.102,-1.1562,-1.1709,-1.1954,-1.2162,-1.2233,-1.2351,-1.2441,-1.2441,-1.2825,-1.3147,-1.286,-1.4324,-1.5485,-1.5637,-1.7704,0.0,0.0,0.0,0.0,-2.0249,-2.1081,-2.1782,-2.201,-2.2343,-2.2683,-2.2796,-2.2901,-2.3014,-2.3014,-2.3014,-2.3014,-2.3014,-2.3014,-2.3014,-2.3014,-2.3014,-2.3014,-2.3014,-2.3239,-2.3352,-2.3352,-2.3689,-2.3801,-2.368,-2.3576,-2.3464,-2.3352,-2.3127,-2.3014,-2.3014,0.0,0.0,0.0,0.0,0.0,0.0,0.0,0.0,0.0,0.0,0.0,0.0,0.0,0.0,0.0,0.0,0.0,0.0,0.0,0.0,0.0,-0.3887,-0.4533,-0.4644,-0.4172,-0.4789,-0.4901,-0.4469,-0.4474,-0.4654,-0.5097,-0.501,-0.528,-0.5733,-0.5733,-0.5733,-0.5733,-0.5733,-0.5733,-0.5733,-0.5733,-0.5733,-0.5847,-0.6913,0.0,0.0,0.0,0.0,0.0,0.0,0.0,0.0,0.0,0.0,-0.763,-0.763,-0.8226,-0.9023,-0.9817,-0.9521,-0.932,-1.0801,-1.0605,-1.0268,-1.1267,-1.1524,-1.1652,-1.2054,-1.2148,-1.2209,0.0,0.0,-1.2436,-1.2427,-1.3592,-1.4082,-1.3112,-1.5371,-1.7153,0.0,0.0,0.0,0.0,0.0,0.0,-2.1668,0.0,-2.201,-2.257,-2.257,-2.2691,-2.3038,-2.3046,-2.3054,-2.307,-2.3054,-2.303,-2.3014,-2.3014,-2.3014,-2.3014,-2.3014,-2.3014,-2.3127,-2.3689,-2.3913,-2.3913,-2.4024,-2.4351,-2.4676,-2.3568,-2.3464,-2.3921,-2.3352,-2.3127,-2.3127,0.0,0.0,0.0,0.0,0.0,0.0,0.0,0.0,0.0,0.0,0.0,0.0,0.0,0.0,0.0,0.0,0.0,0.0,0.0,0.0,0.0,0.0,0.0,0.0,0.0,0.0,0.0,0.0,0.0,-0.6245,-0.6337,-0.5813,-0.5552,0.0,-0.5733,-0.5733,-0.5733,-0.5733,-0.5733,-0.5733,0.0,-0.5733,-0.5838,0.0,0.0,0.0,0.0,0.0,0.0,0.0,0.0,0.0,0.0,-0.8326,-0.8524,-0.8524,-0.9023,-0.9719,-0.992,-1.031,-1.0703,-1.1096,-1.1096,-1.0955,-1.1367,-1.1633,-1.1817,-1.2087,-1.2261,-1.2332,0.0,0.0,0.0,-1.2238,-1.274,0.0,-1.4301,-1.5926,0.0,0.0,0.0,-2.0852,-2.1211,-2.1554,0.0,0.0,-2.223,-2.2456,-2.257,-2.2796,-2.3028,-2.3403,-2.3403,-2.353,-2.3785,-2.3538,-2.3276,-2.3014,-2.3014,-2.3247,-2.3689,-2.3689,-2.3913,-2.4342,-2.4454,-2.4565,-2.4565,-2.5017,-2.5017,-2.4787,-2.5017,-2.4787,-2.4565,-2.4454,-2.4342,-2.4342,0.0,0.0,0.0,0.0,0.0,0.0,0.0,0.0,0.0,0.0,0.0,0.0,0.0,0.0,0.0,0.0,0.0,0.0,0.0,0.0,0.0,0.0,0.0,0.0,0.0,0.0,0.0,0.0,0.0,0.0,0.0,-0.6782,-0.6609,-0.6609,-0.6346,-0.6169,-0.6169,0.0,0.0,0.0,0.0,0.0,0.0,0.0,0.0,0.0,0.0,0.0,0.0,0.0,0.0,-0.8226,-0.8623,-0.9023,-0.9324,-0.9324,0.0,-1.0511,-1.0511,-1.0998,-1.1585,-1.1585,-1.1658,-1.1781,-1.1904,-1.1911,-1.202,-1.2228,-1.2361,0.0,0.0,0.0,0.0,0.0,0.0,0.0,-1.521,-1.7507,-1.924,0.0,-2.073,0.0,-2.1439,-2.1782,-2.2185,0.0,-2.2542,-2.2753,-2.3016,-2.3138,-2.3403,-2.3753,-2.3769,-2.3856,-2.4055,-2.3864,-2.3594,-2.3244,-2.3464,-2.3723,-2.3921,-2.4136,-2.4462,-2.4778,0.0,-2.5229,-2.5229,-2.5569,-2.5688,-2.5569,-2.5348,-2.5238,-2.5119,-2.4898,-2.4778,-2.4778,0.0,0.0,0.0,0.0,0.0,0.0,0.0,0.0,0.0,0.0,0.0,0.0,0.0,0.0,0.0,0.0,0.0,0.0,0.0,0.0,0.0,0.0,0.0,0.0,0.0,0.0,0.0,0.0,0.0,0.0,0.0,0.0,0.0,0.0,0.0,0.0,0.0,0.0,0.0,0.0,0.0,0.0,0.0,0.0,0.0,0.0,0.0,0.0,0.0,0.0,-0.9019,-0.9217,-0.9217,-0.9715,-1.0413,-1.0413,-1.09,-1.1389,-1.1389,-1.178,-1.2078,-1.198,-1.2241,-1.246,-1.249,-1.2297,-1.2302,-1.2398,0.0,-1.2389,-1.2214,0.0,-1.2484,-1.2697,0.0,-1.6553,-1.6321,-1.9246,-2.1189,-2.0249,-2.1296,-2.2002,-2.1782,-2.2276,-2.2764,-2.3068,-2.2965,-2.3063,-2.3594,-2.361,-2.3769,-2.411,-2.4166,-2.4174,-2.4126,-2.4126,-2.3927,-2.3546,-2.3982,-2.4137,-2.4024,-2.4565,-2.4898,-2.5119,-2.5569,0.0,-2.5798,-2.5798,-2.6136,-2.6482,-2.5459,-2.5348,-2.5798,-2.5229,-2.5008,-2.5008,0.0,0.0,0.0,0.0,0.0,0.0,0.0,0.0,0.0,0.0,-0.6559,0.0,0.0,0.0,0.0,0.0,0.0,0.0,0.0,0.0,0.0,0.0,0.0,0.0,0.0,0.0,0.0,0.0,0.0,0.0,0.0,0.0,0.0,0.0,0.0,0.0,0.0,0.0,0.0,0.0,0.0,0.0,0.0,0.0,0.0,0.0,0.0,0.0,0.0,0.0,-1.0194,-1.1175,-1.1385,-1.1878,-1.2273,-1.2273,-1.237,-1.2565,-1.2565,-1.2565,-1.2565,-1.2078,-1.2542,-1.2867,-1.2079,-1.2397,0.0,0.0,0.0,-1.2427,-1.2394,-1.2564,0.0,-1.4449,0.0,0.0,0.0,0.0,-2.0816,0.0,0.0,0.0,0.0,0.0,0.0,0.0,0.0,-2.3904,-2.3959,-2.3967,-2.4126,-2.4476,-2.4778,-2.4785,-2.4492,-2.4484,-2.4174,-2.3546,-2.3654,-2.4032,-2.4676,-2.4787,-2.5348,-2.6254,-2.6364,0.0,-2.6473,-2.6473,-2.6473,-2.6591,-2.6364,-2.6364,-2.6473,-2.6364,-2.6254,-2.6254,0.0,0.0,0.0,0.0,0.0,0.0,0.0,0.0,0.0,0.0,-0.6806,-0.6757,0.0,0.0,0.0,0.0,0.0,0.0,0.0,0.0,0.0,0.0,0.0,0.0,0.0,0.0,0.0,0.0,0.0,0.0,0.0,0.0,0.0,0.0,0.0,0.0,0.0,0.0,0.0,0.0,0.0,0.0,0.0,0.0,0.0,0.0,0.0,0.0,0.0,0.0,-1.1268,-1.2931,-1.2559,-1.2565,-1.2764,-1.2764,-1.2764,-1.2764,-1.2764,-1.2958,-1.3055,-1.2856,-1.3221,-1.3521,-1.2823,0.0,0.0,0.0,0.0,-1.2441,-1.2441,0.0,0.0,0.0,0.0,0.0,0.0,0.0,0.0,0.0,0.0,0.0,0.0,0.0,0.0,0.0,0.0,-2.4325,-2.4325,-2.4499,-2.4682,-2.4849,-2.5024,-2.5024,-2.4857,-2.4674,-2.4317,-2.3808,-2.3964,-2.4243,-2.4787,-2.5119,-2.5798,-2.6591,-2.6591,0.0,-2.6591,-2.6591,-2.6591,-2.6591,-2.6591,-2.6591,-2.6591,-2.6591,-2.6591,-2.6591,0.0,0.0,0.0,0.0,0.0,0.0,0.0,-0.7582,-0.7652,-0.7521,-0.714,-0.6906,-0.695,-0.7094,-0.7356,0.0,0.0,0.0,0.0,0.0,0.0,0.0,0.0,0.0,0.0,0.0,0.0,0.0,0.0,0.0,0.0,0.0,0.0,0.0,0.0,0.0,0.0,0.0,0.0,0.0,0.0,0.0,0.0,0.0,0.0,0.0,0.0,0.0,0.0,0.0,-1.2047,-1.4202,-1.334,-1.3147,-1.3147,-1.3147,-1.3147,-1.3147,-1.3147,-1.334,-1.3732,-1.3727,-1.4109,-1.4276,-1.3771,-1.352,0.0,0.0,-1.2441,-1.2465,-1.2559,0.0,0.0,0.0,0.0,0.0,0.0,0.0,0.0,0.0,0.0,0.0,0.0,0.0,0.0,0.0,0.0,0.0,-2.4698,-2.496,-2.5111,-2.5111,-2.5111,-2.5071,-2.4992,-2.4722,-2.4364,-2.3935,-2.4227,-2.4582,-2.4778,-2.5459,-2.6017,-2.6591,-2.6591,0.0,0.0,-2.6591,-2.6591,-2.6591,-2.6591,-2.6591,-2.6591,-2.6591,-2.6591,-2.6591,0.0,0.0,0.0,0.0,0.0,0.0,0.0,-0.8425,-0.8166,-0.7587,-0.7475,-0.7242,-0.6769,-0.7021,-0.7232,0.0,0.0,0.0,0.0,0.0,0.0,0.0,0.0,0.0,0.0,0.0,0.0,0.0,0.0,0.0,0.0,0.0,0.0,0.0,0.0,0.0,0.0,0.0,0.0,0.0,0.0,0.0,0.0,0.0,0.0,0.0,0.0,0.0,0.0,0.0,0.0,-1.4298,-1.4202,-1.4202,-1.4202,-1.4202,0.0,0.0,-1.4202,-1.4202,-1.4292,-1.4573,-1.4795,-1.4892,-1.4564,0.0,0.0,-1.3315,-1.2767,-1.2559,-1.2937,-1.3027,0.0,0.0,0.0,0.0,0.0,0.0,0.0,0.0,0.0,0.0,0.0,0.0,0.0,0.0,0.0,0.0,-2.5063,-2.5087,-2.5111,-2.5111,-2.5111,-2.4952,-2.4635,-2.4595,-2.4245,-2.3594,-2.4114,-2.4582,-2.4778,-2.5459,-2.6017,-2.6591,-2.6591,0.0,0.0,-2.6591,-2.6591,-2.6591,-2.6591,-2.6591,-2.6591,-2.6591,-2.6591,-2.6591,0.0,0.0,0.0,0.0,0.0,0.0,0.0,-0.9134,-0.8877,-0.8166,-0.7782,-0.7231,-0.6589,-0.6753,-0.7064,0.0,0.0,0.0,0.0,0.0,0.0,0.0,0.0,0.0,0.0,0.0,0.0,0.0,0.0,0.0,0.0,0.0,0.0,0.0,0.0,0.0,0.0,0.0,0.0,0.0,0.0,0.0,0.0,0.0,0.0,0.0,0.0,0.0,0.0,0.0,0.0,0.0,-1.4298,-1.4298,0.0,0.0,-1.4298,-1.4298,-1.4298,-1.4298,-1.4388,-1.4956,-1.5091,-1.4999,-1.4659,0.0,0.0,-1.3532,-1.3525,-1.3819,-1.4143,-1.4313,-1.5077,0.0,0.0,0.0,0.0,0.0,0.0,0.0,0.0,0.0,0.0,0.0,0.0,0.0,0.0,0.0,-2.5111,-2.5111,-2.5111,-2.5111,-2.4905,-2.4722,-2.4579,-2.4166,-2.3925,-2.4097,-2.4105,-2.4494,-2.5348,-2.5569,-2.6017,-2.6591,-2.6591,0.0,0.0,-2.6591,-2.6591,-2.6591,-2.6591,-2.6591,-2.6591,-2.6591,-2.6591,-2.6591,0.0,0.0,0.0,0.0,0.0,0.0,-0.9779,-0.9843,-0.9518,-0.8619,-0.8102,-0.7456,-0.6482,-0.6583,-0.6929,-0.7398,0.0,0.0,0.0,0.0,0.0,0.0,0.0,0.0,0.0,0.0,0.0,0.0,0.0,0.0,0.0,0.0,0.0,0.0,0.0,0.0,0.0,0.0,0.0,0.0,0.0,0.0,0.0,0.0,0.0,0.0,0.0,0.0,0.0,0.0,0.0,0.0,0.0,0.0,0.0,0.0,-1.4298,-1.4298,-1.4298,-1.4484,-1.4771,-1.5534,-1.5582,-1.5392,0.0,0.0,0.0,-1.3959,-1.4249,-1.4706,-1.4837,-1.5074,-1.5771,0.0,0.0,-1.8622,0.0,0.0,0.0,0.0,0.0,0.0,0.0,0.0,0.0,0.0,0.0,0.0,0.0,-2.5008,-2.4952,-2.4952,-2.4714,-2.4484,-2.4277,-2.3893,-2.3934,-2.4276,-2.4365,-2.4915,-2.5688,-2.5907,-2.6245,-2.6591,-2.6591,0.0,0.0,-2.6591,-2.6591,-2.6591,-2.6591,-2.6591,-2.6591,-2.6591,-2.6591,-2.6591,0.0,0.0,0.0,0.0,0.0,0.0,0.0,-1.0561,-1.0104,-0.8683,-0.849,-0.7972,-0.6548,-0.6574,-0.6886,-0.7236,0.0,0.0,0.0,0.0,0.0,0.0,0.0,0.0,0.0,0.0,0.0,0.0,0.0,0.0,0.0,0.0,0.0,0.0,0.0,0.0,0.0,0.0,0.0,0.0,0.0,0.0,0.0,0.0,0.0,0.0,0.0,0.0,0.0,0.0,0.0,0.0,0.0,0.0,0.0,0.0,-1.4298,-1.4298,-1.4298,-1.4867,-1.5629,-1.6393,-1.6357,-1.6386,0.0,0.0,0.0,-1.4928,-1.4794,-1.4706,-1.4837,-1.5074,-1.5544,-1.638,-1.7232,0.0,0.0,0.0,0.0,0.0,0.0,0.0,0.0,0.0,0.0,0.0,0.0,0.0,0.0,-2.4778,-2.4587,-2.4587,-2.4579,-2.4253,-2.3562,-2.4097,-2.4259,-2.3921,-2.5136,-2.5688,-2.5688,-2.6364,-2.6582,0.0,0.0,0.0,0.0,-2.6591,-2.6591,-2.6591,-2.6591,-2.6591,-2.6591,-2.6591,-2.6591,-2.6591,0.0,0.0,0.0,0.0,0.0,0.0,0.0,-1.0624,-1.0104,-0.8683,-0.849,-0.7972,-0.6548,-0.6469,-0.668,-0.7287,0.0,0.0,0.0,0.0,0.0,0.0,0.0,0.0,0.0,0.0,-0.8703,-0.8703,-0.8703,-0.8703,0.0,0.0,0.0,0.0,0.0,0.0,0.0,0.0,0.0,0.0,0.0,0.0,0.0,0.0,0.0,0.0,0.0,0.0,0.0,0.0,0.0,0.0,0.0,0.0,0.0,0.0,0.0,0.0,-1.4298,-1.449,-1.4867,-1.5629,-1.5582,-1.5601,-1.5985,0.0,0.0,-1.5035,-1.5597,-1.6034,-1.6115,-1.6483,-1.6915,-1.7114,-1.7479,-1.8292,0.0,0.0,0.0,0.0,0.0,0.0,0.0,0.0,0.0,0.0,0.0,0.0,0.0,-2.4642,-2.4579,-2.4579,-2.4118,-2.3869,-2.4097,-2.4088,-2.4468,-2.5128,-2.5578,-2.5907,-2.6354,-2.6473,-2.6591,0.0,0.0,0.0,0.0,-2.6591,-2.6591,-2.6591,-2.6591,-2.6591,-2.6619,-2.6894,-2.6985,-2.6985,0.0,0.0,0.0,0.0,0.0,0.0,0.0,-0.9786,-0.939,-0.8296,-0.8102,-0.7717,-0.6548,-0.6482,-0.6659,-0.7113,0.0,0.0,0.0,0.0,0.0,0.0,0.0,0.0,0.0,-0.8703,-0.8703,-0.8703,-0.8703,-0.8703,-0.8703,-0.847,-0.8165,0.0,0.0,0.0,0.0,0.0,0.0,0.0,0.0,0.0,-1.1122,0.0,0.0,0.0,0.0,0.0,0.0,0.0,0.0,0.0,0.0,0.0,0.0,0.0,-1.4298,0.0,0.0,-1.449,-1.4867,-1.5248,-1.5484,0.0,0.0,0.0,0.0,0.0,-1.6107,-1.67,-1.67,-1.7129,-1.7485,-1.7485,-1.7485,0.0,0.0,0.0,0.0,0.0,0.0,0.0,0.0,0.0,0.0,0.0,0.0,0.0,0.0,-2.4261,-2.419,-2.419,-2.3769,-2.3705,-2.4234,-2.4236,-2.4684,-2.5688,-2.5907,-2.6245,-2.6591,-2.6591,-2.6591,0.0,0.0,0.0,0.0,-2.6591,-2.6591,-2.6591,-2.6591,-2.6683,-2.6839,-2.7086,-2.727,-2.7398,0.0,0.0,0.0,0.0,0.0,0.0,0.0,0.0,0.0,0.0,-0.7521,-0.7265,-0.6482,-0.6613,-0.6745,0.0,0.0,0.0,0.0,0.0,0.0,0.0,0.0,0.0,0.0,-0.8703,-0.8694,-0.868,-0.8618,-0.8618,-0.8604,-0.8003,-0.7706,-0.7629,-0.7092,-0.688,-0.682,-0.6874,-0.8025,-0.973,-0.8679,-0.8856,0.0,0.0,0.0,0.0,0.0,0.0,0.0,0.0,0.0,0.0,0.0,0.0,0.0,0.0,0.0,0.0,0.0,0.0,0.0,0.0,0.0,0.0,0.0,0.0,0.0,0.0,0.0,0.0,-1.67,-1.7129,-1.7485,-1.7485,-1.7485,0.0,0.0,0.0,0.0,0.0,0.0,0.0,0.0,0.0,0.0,0.0,0.0,0.0,0.0,-2.3713,-2.353,-2.3506,-2.3506,-2.369,-2.3921,-2.4565,-2.5119,-2.5798,-2.6364,-2.6591,-2.6591,-2.6591,-2.6591,0.0,0.0,0.0,0.0,-2.6591,-2.6591,-2.6591,-2.6591,-2.683,-2.7178,-2.7205,-2.7471,-2.7811,0.0,0.0,0.0,0.0,0.0,0.0,0.0,0.0,0.0,0.0,-0.7642,-0.7386,-0.6675,-0.6745,0.0,0.0,0.0,0.0,0.0,0.0,0.0,0.0,0.0,0.0,0.0,-0.8703,-0.8628,-0.8472,-0.817,-0.7938,-0.7803,-0.7339,-0.6861,-0.6402,-0.6707,-0.6942,-0.6973,-0.6805,-0.758,-0.8786,-0.8431,-0.8769,0.0,0.0,0.0,0.0,-0.8183,-0.9096,0.0,0.0,0.0,0.0,0.0,0.0,0.0,0.0,-1.4298,-1.4298,-1.4298,0.0,-1.4586,-1.4586,0.0,0.0,0.0,0.0,0.0,0.0,0.0,0.0,0.0,0.0,0.0,0.0,0.0,0.0,0.0,0.0,0.0,0.0,0.0,0.0,0.0,0.0,0.0,0.0,0.0,0.0,0.0,-2.3586,-2.3419,-2.3149,-2.3594,-2.4107,-2.4565,-2.4787,-2.534,-2.6364,-2.6473,-2.6591,-2.6591,-2.6591,-2.6591,0.0,0.0,0.0,-2.6591,-2.6591,-2.6591,-2.6591,-2.6591,-2.683,-2.7215,-2.7517,-2.7893,-2.8251,0.0,0.0,0.0,0.0,0.0,0.0,0.0,0.0,0.0,0.0,0.0,0.0,0.0,0.0,0.0,0.0,0.0,0.0,0.0,0.0,0.0,0.0,0.0,0.0,-0.8703,-0.8703,-0.8449,-0.8024,-0.7829,-0.7526,-0.7142,-0.6633,-0.6183,-0.5941,-0.6173,-0.6417,-0.6612,-0.6536,-0.7003,-0.7718,-0.7469,0.0,0.0,0.0,0.0,0.0,-0.8246,-0.9113,0.0,-1.2059,-1.3157,-1.3791,0.0,0.0,0.0,0.0,-1.4298,-1.4298,-1.4298,-1.4298,-1.4298,-1.4298,-1.4702,-1.5107,0.0,0.0,0.0,0.0,0.0,0.0,0.0,0.0,0.0,0.0,0.0,0.0,0.0,0.0,0.0,0.0,0.0,0.0,0.0,0.0,0.0,0.0,0.0,0.0,0.0,-2.33,-2.3213,-2.3022,-2.3576,-2.4248,-2.4778,-2.5119,-2.5688,-2.6591,-2.6591,-2.6591,-2.6591,-2.6591,-2.6591,0.0,0.0,0.0,-2.6591,-2.6591,-2.6591,-2.6591,-2.6591,-2.694,-2.7471,-2.7682,-2.8141,-2.8663,0.0,0.0,0.0,0.0,0.0,0.0,0.0,0.0,0.0,0.0,0.0,0.0,0.0,0.0,0.0,0.0,0.0,0.0,0.0,0.0,0.0,0.0,0.0,-0.867,-0.8703,-0.867,-0.8328,-0.753,-0.7457,-0.709,-0.6504,-0.5935,-0.5727,-0.5786,-0.5655,-0.5805,-0.6121,-0.6312,-0.6561,-0.683,-0.6431,0.0,0.0,0.0,0.0,0.0,0.0,0.0,0.0,-1.2012,-1.3067,-1.3604,-1.4129,0.0,0.0,0.0,0.0,0.0,-1.4298,-1.4298,-1.4298,-1.4298,-1.4702,-1.5107,0.0,0.0,0.0,0.0,0.0,0.0,0.0,0.0,0.0,0.0,0.0,0.0,0.0,0.0,0.0,0.0,0.0,0.0,0.0,0.0,0.0,0.0,0.0,0.0,0.0,-2.3127,-2.3127,-2.3127,-2.3801,-2.4462,-2.4898,-2.5459,-2.6026,-2.6591,-2.6591,-2.6591,-2.6591,-2.6591,-2.6591,-2.6591,0.0,0.0,-2.6591,-2.6591,-2.6591,-2.6591,-2.6591,-2.7068,-2.7765,-2.7765,-2.8287,-2.8984,0.0,0.0,0.0,0.0,0.0,0.0,0.0,0.0,0.0,0.0,0.0,0.0,0.0,0.0,0.0,0.0,0.0,0.0,0.0,0.0,0.0,0.0,-0.8335,-0.8529,-0.8699,-0.8533,-0.8047,-0.7343,-0.6841,-0.627,-0.5623,-0.5155,-0.5123,-0.5401,-0.575,-0.605,-0.637,-0.6492,-0.6649,-0.683,-0.6431,0.0,0.0,0.0,0.0,0.0,0.0,0.0,0.0,-1.2012,-1.3067,-1.3604,-1.4129,0.0,0.0,0.0,0.0,0.0,-1.4298,-1.4298,-1.4298,-1.4298,-1.4702,-1.5107,0.0,0.0,0.0,0.0,0.0,0.0,0.0,0.0,0.0,0.0,0.0,0.0,0.0,0.0,0.0,0.0,0.0,0.0,0.0,0.0,0.0,0.0,0.0,0.0,0.0,-2.3464,-2.3801,-2.3801,-2.4804,-2.5459,-2.5569,-2.5679,-2.6026,-2.6591,-2.6591,-2.6591,-2.6591,-2.6591,-2.6591,-2.6591,0.0,-2.6591,-2.6591,-2.6591,-2.6591,-2.6591,-2.6591,-2.7068,-2.7765,-2.7765,-2.8287,-2.8984,0.0,0.0,0.0,0.0,0.0,0.0,0.0,0.0,0.0,0.0,0.0,0.0,0.0,0.0,0.0,0.0,0.0,0.0,0.0,0.0,0.0,-0.807,-0.8288,-0.8496,-0.8699,-0.8505,-0.7934,-0.6877,-0.6499,-0.5863,-0.5017,-0.4919,-0.5038,-0.5326,-0.5692,-0.5987,-0.6201,-0.6266,-0.6382,-0.6544,0.0,0.0,0.0,0.0,0.0,0.0,0.0,0.0,0.0,0.0,-1.3067,-1.3604,-1.4129,0.0,0.0,0.0,0.0,0.0,-1.4298,-1.4298,-1.4298,-1.4298,-1.4702,-1.5107,-1.5107,0.0,0.0,0.0,0.0,0.0,0.0,0.0,0.0,0.0,0.0,0.0,0.0,0.0,0.0,0.0,0.0,0.0,0.0,0.0,0.0,0.0,0.0,0.0,0.0,0.0,-2.3921,-2.3921,-2.5017,-2.5688,-2.5688,-2.6026,-2.6364,-2.6591,-2.6591,-2.6591,-2.6591,-2.6591,-2.6591,-2.6591,0.0,-2.6591,-2.6591,-2.6591,-2.6591,-2.6591,-2.6591,-2.694,-2.7499,-2.7939,-2.848,-2.8984,0.0,0.0,0.0,0.0,0.0,0.0,0.0,0.0,0.0,0.0,0.0,0.0,0.0,0.0,0.0,0.0,0.0,0.0,0.0,0.0,-0.7872,-0.807,-0.8288,-0.8496,-0.8699,-0.8453,-0.7739,-0.6523,-0.6241,-0.562,-0.4729,-0.4947,-0.5157,-0.5373,-0.5737,-0.5937,-0.6034,-0.5984,-0.613,-0.6233,0.0,0.0,0.0,0.0,0.0,0.0,0.0,0.0,0.0,0.0,0.0,0.0,0.0,0.0,0.0,-1.4298,-1.4298,-1.4298,-1.4298,-1.4298,-1.4316,-1.4377,0.0,-1.5107,-1.5107,0.0,0.0,0.0,0.0,0.0,0.0,0.0,0.0,0.0,0.0,0.0,0.0,0.0,0.0,0.0,0.0,0.0,0.0,0.0,0.0,0.0,0.0,0.0,0.0,0.0,-2.4359,-2.4359,-2.5357,-2.5907,-2.5907,-2.6364,-2.6591,-2.6591,-2.6591,-2.6591,-2.6591,-2.6591,-2.6591,-2.6591,-2.6591,-2.6591,-2.6591,-2.6591,-2.6591,-2.6591,-2.6591,-2.6885,-2.7398,-2.8132,-2.8645,-2.8984,0.0,0.0,0.0,0.0,0.0,0.0,0.0,0.0,0.0,0.0,0.0,0.0,0.0,0.0,0.0,0.0,0.0,0.0,0.0,0.0,-0.7872,-0.807,-0.8288,-0.8496,-0.8699,-0.8307,-0.7597,-0.6523,-0.6131,-0.5521,-0.4729,-0.5004,-0.5269,-0.5505,-0.5879,-0.6025,-0.5957,-0.5911,-0.5993,-0.6173,-0.5916,0.0,0.0,0.0,0.0,0.0,0.0,0.0,0.0,0.0,0.0,0.0,0.0,0.0,-1.4298,-1.4298,-1.4298,-1.4298,-1.4298,-1.4298,-1.4358,-1.4618,0.0,0.0,-1.5107,-1.5511,0.0,0.0,0.0,0.0,0.0,0.0,0.0,0.0,0.0,0.0,0.0,0.0,0.0,0.0,0.0,0.0,0.0,0.0,0.0,0.0,0.0,0.0,0.0,0.0,-2.5569,-2.5569,-2.6245,-2.6591,-2.6591,-2.6591,-2.6591,-2.6591,-2.6591,-2.6591,-2.6591,-2.6591,-2.6591,-2.6591,-2.6591,-2.6591,-2.6591,-2.6591,-2.6591,-2.6591,-2.6591,-2.705,-2.7774,-2.8223,-2.8645,-2.8984,0.0,0.0,0.0,0.0,0.0,0.0,0.0,0.0,0.0,0.0,0.0,0.0,0.0,0.0,0.0,0.0,0.0,0.0,0.0,0.0,-0.7999,-0.8075,-0.8406,-0.8566,-0.8519,-0.7943,-0.7174,-0.629,-0.5552,-0.5047,-0.4879,-0.5153,-0.5419,-0.5681,-0.5892,-0.5861,-0.5791,-0.5922,-0.5918,-0.5984,-0.5896,-0.6067,0.0,0.0,0.0,0.0,0.0,0.0,0.0,0.0,-1.2383,-1.3513,0.0,-1.3806,-1.4298,-1.4298,-1.4298,-1.4298,-1.4298,-1.4298,-1.4364,-1.4648,0.0,0.0,0.0,0.0,0.0,0.0,0.0,0.0,0.0,0.0,0.0,0.0,0.0,0.0,0.0,0.0,0.0,0.0,0.0,0.0,0.0,0.0,0.0,0.0,0.0,0.0,0.0,-2.5578,-2.5688,-2.5688,-2.6254,-2.6591,-2.6591,-2.6591,-2.6591,-2.6591,-2.6591,-2.6591,-2.6591,-2.6591,-2.6591,-2.6591,-2.6591,-2.6591,-2.6591,-2.6591,-2.6591,-2.6591,-2.6591,-2.6921,-2.7453,-2.7856,-2.8269,-2.8654,0.0,0.0,0.0,0.0,0.0,0.0,0.0,0.0,0.0,0.0,0.0,0.0,0.0,0.0,0.0,0.0,0.0,0.0,0.0,-0.7886,-0.8108,-0.8179,-0.8514,-0.8576,-0.8307,-0.7655,-0.6999,-0.6474,-0.5395,-0.5011,-0.5155,-0.5258,-0.555,-0.5797,-0.5936,-0.587,-0.5707,-0.5906,-0.5891,-0.5836,-0.5902,-0.6099,0.0,0.0,0.0,0.0,0.0,0.0,0.0,0.0,-1.2265,0.0,0.0,0.0,0.0,-1.4298,-1.4238,-1.4189,-1.4274,-1.4238,-1.428,0.0,0.0,0.0,0.0,0.0,0.0,0.0,0.0,0.0,0.0,0.0,0.0,0.0,0.0,0.0,0.0,0.0,0.0,0.0,0.0,0.0,0.0,0.0,0.0,0.0,0.0,0.0,0.0,-2.6017,-2.6017,-2.6017,-2.6364,-2.6591,-2.6591,-2.6591,-2.6591,-2.6591,-2.6591,-2.6591,-2.6591,-2.6591,-2.6591,-2.6591,-2.6591,-2.6591,-2.6591,-2.6591,-2.6591,-2.6591,-2.6591,-2.683,-2.7224,-2.7618,-2.8031,-2.8452,0.0,0.0,0.0,0.0,0.0,0.0,0.0,0.0,0.0,0.0,0.0,0.0,0.0,0.0,0.0,0.0,0.0,0.0,0.0,-0.7971,-0.8179,-0.8392,-0.8595,-0.8505,-0.8089,-0.758,-0.7206,-0.6962,-0.5903,-0.5454,-0.551,-0.5435,-0.5562,-0.5881,-0.6008,-0.5871,-0.5699,-0.5807,-0.5829,-0.5941,-0.5941,-0.6099,-0.6338,0.0,0.0,0.0,0.0,0.0,0.0,0.0,-1.1844,0.0,0.0,0.0,0.0,0.0,-1.4117,-1.3966,-1.4226,-1.4111,0.0,0.0,0.0,0.0,0.0,0.0,0.0,0.0,0.0,0.0,0.0,0.0,0.0,0.0,0.0,0.0,0.0,0.0,0.0,0.0,0.0,0.0,0.0,0.0,0.0,0.0,0.0,0.0,0.0,-2.6591,-2.6591,-2.6591,-2.6591,-2.6591,-2.6591,-2.6591,-2.6591,-2.6591,-2.6591,-2.6591,-2.6591,-2.6591,-2.6591,-2.6591,-2.6591,-2.6591,-2.6591,-2.6591,-2.6591,-2.6591,-2.6591,-2.683,-2.7215,-2.7618,-2.8031,-2.8443,0.0,0.0,0.0,0.0,0.0,0.0,0.0,0.0,0.0,0.0,0.0,0.0,0.0,0.0,0.0,0.0,0.0,0.0,0.0,-0.8113,-0.8335,-0.8401,-0.8595,-0.8505,-0.8089,-0.7933,-0.7412,-0.6552,-0.6296,-0.6394,-0.6912,-0.685,-0.6649,-0.6431,-0.657,-0.6235,-0.5569,-0.5851,-0.6307,-0.678,-0.6328,-0.6563,-0.7192,0.0,0.0,0.0,0.0,0.0,0.0,0.0,0.0,0.0,0.0,0.0,0.0,-1.4298,-1.4244,-1.4201,-1.428,0.0,0.0,0.0,0.0,0.0,0.0,0.0,0.0,0.0,0.0,0.0,0.0,0.0,0.0,0.0,0.0,0.0,0.0,0.0,0.0,0.0,0.0,0.0,0.0,0.0,0.0,0.0,0.0,0.0,0.0,-2.6591,-2.6591,-2.6591,-2.6591,-2.6591,-2.6591,-2.6591,-2.6591,-2.6591,-2.6591,-2.6591,-2.6591,-2.6591,-2.6591,-2.6591,-2.6591,-2.6591,-2.6591,-2.6591,-2.6591,-2.6591,-2.6591,-2.6655,-2.6848,-2.7517,-2.7847,-2.8049,0.0,0.0,0.0,0.0,0.0,0.0,0.0,0.0,0.0,0.0,0.0,0.0,0.0,0.0,0.0,0.0,0.0,0.0,0.0,0.0,-0.8513,-0.8743,-0.8713,-0.8579,-0.8301,-0.8081,-0.7761,-0.7371,-0.7172,-0.7279,-0.7487,-0.7177,-0.6975,-0.6833,-0.6902,-0.663,-0.6144,-0.6799,-0.7188,-0.733,-0.7013,-0.7196,-0.7684,0.0,0.0,0.0,0.0,0.0,0.0,0.0,0.0,0.0,0.0,0.0,0.0,-1.4171,-1.4069,-1.4008,-1.4117,0.0,0.0,0.0,0.0,0.0,0.0,0.0,0.0,0.0,0.0,0.0,0.0,0.0,0.0,0.0,0.0,0.0,0.0,0.0,0.0,0.0,0.0,0.0,0.0,0.0,0.0,0.0,0.0,0.0,0.0,-2.6591,-2.6591,-2.6591,-2.6591,-2.6591,-2.6591,-2.6591,-2.6591,-2.6591,-2.6591,-2.6591,-2.6591,-2.6591,-2.6591,-2.6591,-2.6591,-2.6591,-2.6591,-2.6591,-2.6591,-2.6591,-2.6591,-2.6591,-2.6664,-2.7297,-2.7627,-2.7856,0.0,0.0,0.0,0.0,0.0,0.0,0.0,0.0,0.0,0.0,0.0,0.0,0.0,0.0,0.0,0.0,0.0,0.0,0.0,0.0,-0.8738,-0.9311,-0.8974,-0.8684,-0.8629,-0.8292,-0.8311,-0.8789,-0.8349,-0.7978,-0.7638,-0.7122,-0.693,-0.7213,-0.7207,-0.7164,-0.7062,-0.8176,-0.8192,-0.7521,-0.7691,-0.7764,-0.7948,-0.8037,0.0,0.0,0.0,0.0,0.0,0.0,0.0,0.0,0.0,0.0,-1.4214,-1.3972,-1.3737,-1.3604,0.0,0.0,0.0,0.0,0.0,0.0,0.0,0.0,0.0,0.0,0.0,0.0,0.0,0.0,0.0,0.0,0.0,0.0,0.0,0.0,0.0,0.0,0.0,0.0,0.0,0.0,0.0,0.0,0.0,0.0,0.0,-2.6591,-2.6591,-2.6591,-2.6591,-2.6591,-2.6591,-2.6591,-2.6591,-2.6591,-2.6591,-2.6591,-2.6591,-2.6591,-2.6591,-2.6591,-2.6591,-2.6591,-2.6591,-2.6591,-2.6591,-2.6591,-2.6591,-2.6591,-2.6637,-2.7031,-2.7398,-2.7765,0.0,0.0,0.0,0.0,0.0,0.0,0.0,0.0,0.0,0.0,0.0,0.0,0.0,0.0,0.0,0.0,0.0,0.0,0.0,0.0,-0.9195,-0.9322,-0.9197,-0.9011,-0.8732,-0.87,-0.8534,-0.8378,-0.836,-0.8582,-0.908,-0.9142,-0.8918,-0.855,-0.8904,-0.8365,-0.7223,-0.7713,-0.7836,-0.7695,-0.7951,-0.7943,-0.7889,-0.8146,-0.8235,0.0,0.0,0.0,0.0,0.0,0.0,0.0,-1.3712,-1.3963,-1.3978,-1.3924,-1.387,-1.3833,0.0,0.0,0.0,0.0,0.0,0.0,0.0,0.0,0.0,0.0,0.0,0.0,0.0,0.0,0.0,0.0,0.0,0.0,0.0,0.0,0.0,0.0,0.0,0.0,0.0,0.0,0.0,0.0,0.0,0.0,-2.6591,-2.6591,-2.6591,-2.6591,-2.6591,-2.6591,-2.6591,-2.6591,-2.6591,0.0,-2.6591,-2.6591,-2.6591,-2.6591,-2.6591,-2.6591,-2.6591,-2.6591,-2.6591,-2.6591,-2.6591,-2.6591,-2.6591,-2.6591,-2.6637,-2.7031,-2.7233,-2.7361,0.0,0.0,0.0,0.0,0.0,0.0,0.0,0.0,0.0,0.0,0.0,0.0,0.0,0.0,0.0,0.0,0.0,0.0,0.0,0.0,0.0,-0.9394,-0.9262,-0.9147,-0.8954,-0.8706,-0.8605,-0.8719,-0.8687,0.0,0.0,0.0,0.0,-0.9334,-0.9555,-0.9232,-0.8604,-0.9267,-0.9375,-0.9086,-0.8877,-0.8796,-0.8822,-0.9007,-0.9081,-0.9189,-0.9828,0.0,0.0,0.0,0.0,0.0,0.0,0.0,-1.3857,-1.3604,-1.3622,-1.3719,0.0,0.0,0.0,0.0,0.0,0.0,0.0,0.0,0.0,0.0,0.0,0.0,0.0,0.0,0.0,0.0,0.0,0.0,0.0,0.0,0.0,0.0,0.0,0.0,0.0,0.0,0.0,0.0,0.0,-2.6591,-2.6591,-2.6591,-2.6591,-2.6591,-2.6591,-2.6591,-2.6591,-2.6591,-2.6591,-2.6591,-2.6591,-2.6591,-2.6591,-2.6591,-2.6591,-2.6591,-2.6591,-2.6591,-2.6591,-2.6591,-2.6591,-2.6591,-2.6591,-2.6591,-2.6619,-2.682,-2.7013,-2.7205,0.0,0.0,0.0,0.0,0.0,0.0,0.0,0.0,0.0,0.0,0.0,0.0,0.0,0.0,0.0,0.0,0.0,0.0,0.0,0.0,0.0,0.0,-0.9351,-0.9227,-0.9072,-0.8684,-0.8791,-0.9316,0.0,0.0,0.0,0.0,0.0,-0.9974,0.0,-0.9991,-1.0099,-1.0987,-1.1067,-1.0453,-1.0011,-0.9762,-0.9781,-1.0034,-1.0009,-1.0038,-1.1227,-1.1698,-1.1885,-1.2477,0.0,0.0,0.0,0.0,-1.3682,-1.3254,-1.3308,-1.3513,0.0,0.0,0.0,0.0,0.0,0.0,0.0,0.0,0.0,0.0,0.0,0.0,0.0,0.0,0.0,0.0,0.0,0.0,0.0,0.0,0.0,0.0,0.0,0.0,0.0,0.0,0.0,0.0,0.0,-2.6591,-2.6591,-2.6591,-2.6591,-2.6591,-2.6591,-2.6591,-2.6591,-2.6591,-2.6591,-2.6591,-2.6591,-2.6591,-2.6591,-2.6591,-2.6591,-2.6591,-2.6591,-2.6591,-2.6591,-2.6591,-2.6591,-2.6591,-2.6591,-2.6591,-2.6591,-2.6691,-2.6893,-2.7179,0.0,0.0,0.0,0.0,0.0,0.0,0.0,0.0,0.0,0.0,0.0,0.0,0.0,0.0,0.0,0.0,0.0,0.0,-1.0513,0.0,0.0,-0.9276,-0.9708,-0.9608,-0.8842,-0.914,-0.9474,-0.9771,0.0,0.0,0.0,0.0,0.0,-1.1037,0.0,0.0,-1.0293,-1.0789,-1.0564,-0.9937,-1.075,-1.058,-0.9971,-1.0788,-1.0626,-1.0038,-1.1227,-1.189,-1.2171,-1.3076,-1.3626,0.0,0.0,0.0,-1.3218,-1.3145,-1.3308,0.0,0.0,0.0,0.0,0.0,0.0,0.0,0.0,0.0,0.0,0.0,0.0,0.0,0.0,0.0,0.0,0.0,0.0,0.0,0.0,0.0,0.0,0.0,0.0,0.0,0.0,0.0,0.0,0.0,-2.6591,-2.6591,-2.6591,-2.6591,-2.6591,-2.6591,-2.6591,-2.6591,-2.6591,-2.6591,-2.6591,-2.6591,-2.6591,-2.6591,-2.6591,-2.6591,-2.6591,-2.6591,-2.6591,-2.6591,-2.6591,-2.6591,-2.6591,-2.6591,-2.6591,-2.6591,-2.6591,-2.689,-2.7027,-2.7073,0.0,0.0,0.0,0.0,0.0,0.0,0.0,0.0,0.0,0.0,0.0,0.0,0.0,0.0,0.0,-1.0683,-1.0979,-1.1037,-1.0887,-1.0663,-1.0279,-0.9708,-0.958,-0.9392,-0.9189,-0.9369,-0.9716,0.0,0.0,0.0,0.0,-1.1315,-1.1356,0.0,0.0,0.0,0.0,-1.1634,-1.1556,-1.1346,-1.1278,-1.1063,-1.0712,-1.1149,-1.1058,-1.0829,-1.2042,-1.256,-1.2765,-1.3278,-1.3592,-1.364,-1.3381,0.0,0.0,0.0,-1.3308,0.0,0.0,0.0,0.0,0.0,0.0,0.0,0.0,0.0,0.0,0.0,0.0,0.0,0.0,0.0,0.0,0.0,0.0,0.0,0.0,0.0,0.0,0.0,0.0,0.0,0.0,0.0,0.0,0.0,-2.6591,-2.6591,-2.6591,-2.6591,-2.6591,-2.6591,-2.6591,-2.6591,-2.6591,-2.6591,-2.6591,-2.6591,-2.6591,-2.6591,-2.6591,-2.6591,-2.6591,-2.6591,-2.6591,-2.6591,-2.6591,-2.6591,-2.6591,-2.6591,-2.6791,-2.6781,-2.689,-2.7107,-2.7206,-2.7206,0.0,0.0,0.0,0.0,0.0,0.0,0.0,0.0,0.0,0.0,0.0,0.0,0.0,0.0,0.0,0.0,-1.0954,-1.0869,-1.0861,-1.0628,-1.033,-0.9863,-0.9474,-0.9285,-0.9437,-0.9658,0.0,0.0,0.0,0.0,-1.2141,-1.186,-1.2001,0.0,-1.1915,0.0,0.0,0.0,0.0,0.0,-1.1929,-1.1671,-1.1671,-1.1671,-1.1671,-1.1791,-1.2756,-1.3127,-1.3151,-1.335,-1.3417,-1.3369,-1.3103,-1.3019,0.0,0.0,0.0,0.0,0.0,0.0,0.0,0.0,0.0,0.0,0.0,0.0,0.0,0.0,0.0,0.0,0.0,0.0,0.0,0.0,0.0,0.0,0.0,0.0,0.0,0.0,0.0,0.0,0.0,0.0,0.0,0.0,-2.6591,-2.6591,-2.6591,-2.6591,-2.6591,-2.6591,-2.6591,-2.6591,-2.6591,-2.6591,-2.6591,-2.6591,-2.6691,-2.6691,-2.6691,-2.68,-2.68,-2.68,-2.6691,-2.6691,-2.6691,-2.68,-2.68,-2.68,-2.6999,-2.7098,-2.7098,-2.7422,-2.753,-2.7539,0.0,0.0,0.0,0.0,0.0,0.0,0.0,0.0,0.0,0.0,0.0,0.0,-1.0593,-1.0353,-1.0292,-1.0665,-1.0514,-1.0266,-1.0147,-1.0381,-1.0107,-0.9134,-0.9553,0.0,-0.9437,-1.0352,0.0,0.0,0.0,0.0,-1.2619,-1.2425,-1.2413,-1.265,-1.2395,-1.2298,-1.233,0.0,0.0,0.0,0.0,-1.2619,-1.2619,-1.2619,-1.2619,-1.2655,0.0,-1.3127,-1.3127,-1.3139,-1.3145,-1.3097,-1.2813,-1.2729,-1.2777,0.0,0.0,0.0,0.0,0.0,0.0,0.0,0.0,0.0,0.0,0.0,0.0,0.0,0.0,0.0,0.0,0.0,0.0,0.0,0.0,0.0,0.0,0.0,0.0,0.0,0.0,0.0,0.0,0.0,0.0,0.0,-2.6591,-2.6591,-2.6591,-2.6591,-2.6591,-2.6591,-2.6591,-2.6591,-2.6591,-2.6591,-2.6591,-2.6591,-2.689,-2.6989,-2.6989,-2.7206,-2.7323,-2.7323,-2.7098,-2.6989,-2.6989,-2.7215,-2.7323,-2.7323,-2.7314,-2.7431,-2.7431,-2.7745,-2.7853,-2.796,0.0,0.0,0.0,0.0,0.0,0.0,0.0,0.0,0.0,0.0,0.0,0.0,0.0,-1.0575,-1.0575,-1.0719,-1.0791,-1.0797,-1.0745,-1.0616,-1.0323,-1.0016,-1.0095,-1.022,-1.0368,-1.1084,0.0,0.0,0.0,-1.2584,-1.2705,-1.2607,-1.2607,-1.2687,-1.2431,-1.2419,-1.2572,-1.2662,0.0,0.0,0.0,0.0,0.0,0.0,0.0,0.0,0.0,0.0,0.0,-1.2856,-1.2856,-1.2837,-1.2735,-1.2705,-1.2789,-1.3242,-1.3942,-1.4648,-1.501,0.0,0.0,0.0,0.0,0.0,0.0,0.0,0.0,0.0,0.0,0.0,0.0,0.0,0.0,0.0,0.0,0.0,0.0,0.0,0.0,0.0,0.0,0.0,0.0,0.0,0.0,0.0,0.0,-2.6591,-2.6591,-2.6591,-2.6591,-2.6591,-2.6591,-2.6591,-2.6591,-2.6591,-2.6691,-2.689,-2.6989,-2.7098,-2.7206,-2.7323,-2.7431,-2.7431,-2.753,-2.7422,-2.7206,-2.7323,-2.7431,-2.7431,-2.7638,-2.7745,-2.7745,-2.8077,-2.8184,-2.8184,0.0,0.0,0.0,0.0,0.0,0.0,0.0,0.0,0.0,0.0,0.0,0.0,0.0,0.0,-1.0683,-1.0598,-1.0828,-1.0905,-1.0757,-1.0697,-1.0562,-1.0416,-1.0573,-1.0824,-1.1141,-1.1555,-1.2023,0.0,0.0,0.0,0.0,-1.2705,-1.2705,-1.2693,-1.2469,-1.2493,0.0,0.0,0.0,-1.2705,0.0,0.0,-1.2705,0.0,0.0,0.0,0.0,0.0,0.0,0.0,-1.2705,-1.2705,-1.2705,-1.2892,-1.3181,-1.3635,-1.4376,-1.5123,-1.5395,0.0,0.0,0.0,0.0,0.0,0.0,0.0,0.0,0.0,0.0,0.0,0.0,0.0,0.0,0.0,0.0,0.0,0.0,0.0,0.0,0.0,0.0,0.0,0.0,0.0,0.0,0.0,0.0,0.0,-2.6591,-2.6591,-2.6691,-2.6682,-2.6691,-2.67,-2.6909,-2.68,-2.6899,-2.7098,-2.7206,-2.7422,-2.7539,-2.7647,-2.7755,-2.7745,-2.796,-2.7853,-2.7539,-2.7647,-2.7755,-2.7755,-2.797,-2.8067,-2.8067,-2.8184,-2.8291,-2.8291,0.0,0.0,0.0,0.0,0.0,0.0,0.0,0.0,0.0,0.0,0.0,0.0,0.0,0.0,0.0,-1.0375,-1.0586,-1.0593,-1.017,-1.061,-1.0801,-1.0334,-1.0982,-1.1473,-1.1721,-1.1822,-1.2198,0.0,0.0,0.0,0.0,0.0,-1.2705,-1.2705,-1.2705,-1.2705,-1.2705,0.0,-1.2705,-1.2705,0.0,-1.2705,-1.2705,0.0,0.0,0.0,-1.2705,-1.2705,0.0,-1.2705,0.0,0.0,0.0,0.0,-1.4011,-1.4216,-1.5078,-1.5921,0.0,0.0,0.0,0.0,0.0,0.0,0.0,0.0,0.0,0.0,0.0,0.0,0.0,0.0,0.0,0.0,0.0,0.0,0.0,0.0,0.0,0.0,0.0,0.0,0.0,0.0,0.0,0.0,-2.6591,-2.6591,-2.6591,-2.6591,-2.6682,-2.6989,-2.6791,-2.6909,-2.7431,-2.7098,-2.7098,-2.7431,-2.7745,-2.7853,-2.796,-2.8184,-2.8291,-2.8291,-2.8291,-2.8174,-2.796,-2.8184,-2.8291,-2.8291,-2.8291,-2.8291,-2.8291,-2.8291,-2.8291,-2.8291,0.0,0.0,0.0,0.0,0.0,0.0,0.0,0.0,0.0,0.0,0.0,0.0,-1.1722,-1.1481,-1.1416,-1.1544,-1.1181,-1.123,-1.1727,-1.1696,-1.1671,-1.1521,-1.2064,-1.2197,-1.1867,-1.2248,-1.256,-1.2705,0.0,0.0,0.0,0.0,0.0,0.0,-1.2705,-1.2705,-1.2705,-1.2705,0.0,0.0,-1.2705,-1.2705,0.0,0.0,0.0,0.0,0.0,-1.2966,-1.3052,0.0,-1.3222,-1.3291,0.0,0.0,-1.481,-1.5114,-1.567,-1.6219,-1.6323,0.0,0.0,0.0,0.0,0.0,0.0,0.0,0.0,0.0,0.0,0.0,0.0,0.0,0.0,0.0,0.0,0.0,0.0,0.0,0.0,0.0,0.0,0.0,0.0,0.0,0.0,0.0,-2.6591,-2.6591,-2.6591,-2.6791,-2.6999,-2.7314,-2.7215,-2.7215,-2.7431,-2.7323,-2.7422,-2.7745,-2.7853,-2.796,-2.8184,-2.8291,-2.8291,-2.8291,-2.8291,-2.8291,-2.8184,-2.8291,-2.8291,-2.8291,-2.8291,-2.8291,-2.8291,-2.8291,-2.8291,-2.8291,0.0,0.0,0.0,0.0,0.0,0.0,0.0,0.0,0.0,0.0,0.0,0.0,-1.2371,-1.2263,-1.2237,-1.2526,-1.2022,-1.1948,-1.2795,-1.2645,-1.2692,-1.2916,-1.338,-1.331,-1.2663,-1.2856,-1.2843,-1.2705,0.0,0.0,0.0,0.0,0.0,0.0,0.0,0.0,0.0,0.0,0.0,0.0,-1.2705,0.0,0.0,-1.2881,-1.2875,0.0,0.0,0.0,-1.3379,-1.3436,-1.3468,0.0,0.0,0.0,0.0,-1.5789,-1.6272,-1.671,-1.6808,0.0,0.0,0.0,0.0,0.0,-1.7582,-1.7582,0.0,0.0,0.0,0.0,0.0,0.0,0.0,0.0,0.0,0.0,0.0,0.0,0.0,0.0,0.0,0.0,0.0,-2.6078,-2.6151,-2.6316,-2.6433,-2.6615,-2.6781,-2.689,-2.7098,-2.7431,-2.7431,-2.7539,-2.7755,-2.7647,-2.7745,-2.8077,-2.8077,-2.8184,-2.8291,-2.8291,-2.8291,-2.8291,-2.8291,-2.8291,-2.8291,-2.8291,-2.8291,-2.8291,-2.8291,-2.8291,-2.8291,-2.8291,-2.8291,-2.8291,0.0,0.0,0.0,0.0,0.0,0.0,0.0,0.0,0.0,0.0,0.0,-1.3209,-1.3506,-1.3301,-1.3266,-1.3563,-1.2946,-1.2869,-1.3584,-1.3525,-1.3716,-1.4363,-1.4592,-1.4434,-1.3769,-1.3533,-1.3291,-1.2954,0.0,0.0,0.0,0.0,0.0,0.0,0.0,0.0,0.0,0.0,0.0,-1.279,-1.279,-1.2881,0.0,0.0,-1.3247,0.0,-1.3442,-1.362,-1.3905,-1.3655,-1.3758,0.0,0.0,0.0,0.0,0.0,-1.6872,0.0,0.0,0.0,0.0,0.0,0.0,0.0,-1.7582,-1.7582,-1.7582,0.0,0.0,0.0,0.0,0.0,0.0,0.0,0.0,0.0,0.0,0.0,0.0,0.0,0.0,0.0,-2.5362,-2.5372,-2.5518,-2.5867,-2.6259,-2.6542,-2.7004,-2.707,-2.7206,-2.7539,-2.7539,-2.7755,-2.8291,-2.8067,-2.8067,-2.8291,-2.8291,-2.8291,-2.8291,-2.8291,-2.8291,-2.8291,-2.8291,-2.8291,-2.8291,-2.8291,-2.8291,-2.8291,-2.8291,-2.8291,-2.8291,-2.8291,-2.8291,-2.8291,-1.4522,0.0,0.0,0.0,0.0,0.0,0.0,0.0,0.0,0.0,0.0,-1.414,-1.4466,-1.4443,-1.4539,-1.485,-1.4088,-1.3974,-1.4786,-1.4604,-1.4531,-1.4687,-1.4998,-1.4844,-1.4185,-1.4372,-1.442,-1.4314,0.0,0.0,0.0,0.0,0.0,0.0,0.0,0.0,0.0,0.0,0.0,-1.3222,-1.3052,0.0,-1.3313,-1.3313,-1.3531,-1.3729,-1.3996,-1.4177,-1.45,0.0,-1.4894,-1.5232,0.0,0.0,0.0,0.0,0.0,0.0,0.0,0.0,0.0,0.0,0.0,0.0,-1.7582,-1.7582,-1.7582,0.0,0.0,0.0,0.0,0.0,0.0,0.0,0.0,0.0,0.0,0.0,0.0,0.0,0.0,0.0,-2.5335,-2.5372,-2.5399,-2.5482,-2.6101,-2.6633,-2.7122,-2.7563,-2.7853,-2.8077,-2.8077,-2.8184,-2.8291,-2.8291,-2.8291,-2.8291,-2.8291,-2.8291,-2.8291,-2.8291,-2.8291,-2.8291,-2.8291,-2.8291,-2.8291,-2.8291,-2.8291,-2.8291,-2.8291,-2.8291,-2.8291,-2.8291,-2.8291,-2.8291,-1.4569,0.0,0.0,0.0,0.0,0.0,0.0,0.0,0.0,0.0,0.0,-1.4781,-1.5435,-1.5086,-1.5038,-1.561,-1.5004,-1.4894,-1.5633,-1.54,-1.5408,-1.5728,-1.589,-1.565,-1.4981,-1.5148,-1.5068,-1.4734,0.0,0.0,0.0,0.0,0.0,0.0,0.0,0.0,0.0,0.0,-1.4132,-1.4132,-1.347,0.0,-1.358,-1.3728,-1.395,-1.418,-1.4507,-1.4658,-1.4823,-1.5297,-1.5491,0.0,0.0,-1.6693,-1.7014,0.0,-1.7582,-1.7582,0.0,0.0,0.0,-1.7582,0.0,0.0,0.0,-1.7582,-1.7786,0.0,0.0,0.0,0.0,0.0,0.0,0.0,0.0,0.0,0.0,0.0,0.0,0.0,0.0,0.0,-2.4748,-2.4757,-2.4951,-2.5452,-2.5956,-2.6484,-2.7199,-2.741,-2.7738,-2.8067,-2.8184,-2.8291,-2.8291,-2.8291,-2.8291,-2.8291,-2.8291,-2.8291,-2.8291,-2.8291,-2.8291,-2.8291,-2.8291,-2.8291,-2.8291,-2.8291,-2.8291,-2.8291,-2.8291,-2.8291,-2.8291,-2.8291,-2.8291,-2.8291,-1.4569,0.0,0.0,0.0,0.0,0.0,0.0,0.0,0.0,0.0,0.0,0.0,0.0,0.0,0.0,-1.6198,-1.5821,-1.574,0.0,0.0,0.0,-1.6812,-1.6812,-1.6566,-1.5899,-1.5982,-1.5733,-1.5235,0.0,0.0,0.0,0.0,0.0,0.0,0.0,0.0,0.0,0.0,0.0,-1.5296,0.0,-1.4064,-1.3933,-1.4396,-1.4629,-1.4736,-1.5354,-1.5659,-1.5923,-1.6197,-1.6279,-1.6375,-1.672,-1.7157,0.0,0.0,0.0,0.0,0.0,0.0,0.0,0.0,0.0,-1.8199,0.0,0.0,0.0,0.0,0.0,0.0,0.0,0.0,0.0,0.0,0.0,0.0,0.0,0.0,0.0,0.0,0.0,0.0,0.0,-2.435,-2.4687,-2.5515,-2.5831,-2.6351,-2.7074,-2.7274,-2.7516,-2.795,-2.8184,-2.8291,-2.8291,-2.8291,-2.8291,-2.8291,-2.8291,-2.8291,-2.8291,-2.8291,-2.8291,-2.8291,-2.8291,-2.8291,-2.8291,-2.8291,-2.8291,-2.8291,-2.8291,-2.8291,-2.8291,-2.8291,-2.8291,-2.8291,-1.4569,-1.4569,0.0,0.0,0.0,0.0,0.0,0.0,0.0,0.0,0.0,0.0,0.0,0.0,0.0,0.0,0.0,0.0,-1.7245,0.0,0.0,-1.731,-1.731,-1.7066,-1.6566,-1.6976,-1.7147,-1.7057,0.0,0.0,0.0,0.0,0.0,0.0,-1.7033,0.0,0.0,0.0,-1.6453,0.0,-1.6773,-1.5889,0.0,-1.5732,-1.5763,-1.5456,-1.7044,-1.8093,-1.8808,0.0,-1.8076,-1.7944,0.0,-1.7823,-1.8513,0.0,0.0,0.0,0.0,0.0,0.0,0.0,-2.0577,0.0,0.0,0.0,0.0,-2.068,0.0,0.0,0.0,0.0,0.0,0.0,0.0,0.0,0.0,0.0,0.0,0.0,0.0,0.0,0.0,-2.4637,-2.496,-2.5302,-2.5705,-2.6328,-2.6958,-2.7451,-2.7851,-2.8281,-2.8291,-2.8291,-2.8291,-2.8291,-2.8291,-2.8291,-2.8291,-2.8291,-2.8291,-2.8291,-2.8291,-2.8291,-2.8291,-2.8291,-2.8291,-2.8291,-2.8291,-2.8291,-2.8291,-2.8291,-2.8291,-2.8291,-2.8291,-2.8291,-1.4648,-1.4816,0.0,0.0,0.0,0.0,0.0,0.0,0.0,0.0,0.0,0.0,0.0,0.0,0.0,0.0,0.0,-1.7554,0.0,0.0,0.0,0.0,0.0,-1.7635,-1.7465,-1.7635,-1.7716,-1.7716,-1.7959,0.0,0.0,0.0,0.0,0.0,-1.7925,0.0,-1.8086,0.0,0.0,0.0,0.0,0.0,0.0,-1.7278,-1.7568,-1.7819,-1.877,-1.9421,-1.9734,0.0,-1.9382,0.0,0.0,0.0,0.0,0.0,0.0,0.0,0.0,0.0,0.0,0.0,0.0,0.0,-2.0885,0.0,-2.1089,0.0,0.0,0.0,0.0,0.0,0.0,0.0,0.0,0.0,0.0,0.0,0.0,0.0,0.0,0.0,0.0,0.0,0.0,0.0,-2.5604,-2.6092,-2.6631,-2.706,-2.749,-2.792,-2.8164,-2.8291,-2.8291,-2.8291,-2.8291,-2.8291,-2.8291,-2.8291,-2.8291,-2.8291,-2.8291,-2.8291,-2.8291,-2.8291,-2.8291,-2.8291,-2.8291,-2.8291,-2.8291,-2.8291,-2.8291,-2.8291,-2.8291,-2.8291,-1.5389,0.0,0.0,0.0,0.0,0.0,0.0,0.0,0.0,0.0,0.0,0.0,-1.7554,-1.7554,0.0,0.0,-1.804,-1.804,0.0,0.0,-1.8201,-1.8201,-1.8201,0.0,0.0,0.0,-1.8201,-1.8201,0.0,0.0,0.0,0.0,0.0,0.0,0.0,-1.8896,-1.9423,0.0,0.0,-1.9213,-1.9791,-1.9821,-1.9364,-1.8822,-1.9293,-2.0351,-2.0531,-2.0768,-2.0978,-2.0785,-2.0793,0.0,-2.0604,0.0,0.0,0.0,0.0,0.0,-2.1395,0.0,0.0,0.0,0.0,0.0,0.0,0.0,0.0,0.0,0.0,0.0,0.0,0.0,0.0,0.0,0.0,0.0,0.0,0.0,0.0,0.0,0.0,0.0,0.0,0.0,0.0,-2.544,-2.5635,-2.5928,-2.6367,-2.6787,-2.7217,-2.7656,-2.8076,-2.8291,-2.8291,-2.8291,-2.8291,-2.8291,-2.8291,-2.8291,-2.8291,-2.8291,-2.8291,-2.8291,-2.8291,-2.8291,-2.8291,-2.8291,-2.8291,-2.8291,-2.8291,-2.8291,-2.8291,-2.8291,-2.8291,-2.8291,-1.6942,-1.6261,0.0,0.0,0.0,0.0,0.0,0.0,0.0,0.0,0.0,0.0,0.0,0.0,0.0,0.0,0.0,-1.8201,-1.862,0.0,-1.87,-1.87,-1.87,-1.8451,0.0,0.0,0.0,0.0,0.0,0.0,0.0,0.0,0.0,0.0,0.0,-1.9825,-1.9934,-2.0245,-2.0409,-2.0455,-2.0857,-2.1487,-2.2007,0.0,-2.084,-2.2695,-2.2179,0.0,0.0,-2.2672,-2.24,0.0,0.0,0.0,0.0,0.0,0.0,0.0,0.0,0.0,0.0,-2.4053,0.0,0.0,0.0,0.0,-2.4143,0.0,0.0,0.0,0.0,0.0,0.0,0.0,0.0,0.0,0.0,0.0,0.0,0.0,0.0,0.0,0.0,0.0,0.0,-2.5645,-2.5742,-2.5928,-2.6367,-2.6787,-2.7217,-2.7656,-2.8076,-2.8291,-2.8291,-2.8291,-2.8291,-2.8291,-2.8291,-2.8291,-2.8291,-2.8291,-2.8291,-2.8291,-2.8291,-2.8291,-2.8291,-2.8291,-2.8291,-2.8291,-2.8291,-2.8291,-2.8291,-2.8291,-2.8291,-2.8291,0.0,0.0,0.0,0.0,0.0,0.0,0.0,-1.7309,0.0,0.0,0.0,0.0,0.0,-1.8451,-1.8709,0.0,0.0,-1.9425,-1.9851,-1.9869,0.0,0.0,0.0,-1.9273,0.0,0.0,0.0,0.0,0.0,0.0,0.0,0.0,0.0,0.0,0.0,-2.0319,0.0,0.0,0.0,0.0,0.0,-2.2401,-2.303,0.0,0.0,-2.3295,-2.3394,-2.3735,0.0,-2.3701,-2.3646,-2.3538,-2.3229,-2.3338,-2.3538,-2.3229,-2.3637,0.0,0.0,0.0,-2.4152,-2.4152,0.0,0.0,0.0,0.0,0.0,0.0,0.0,0.0,0.0,0.0,0.0,0.0,0.0,0.0,0.0,0.0,0.0,0.0,0.0,0.0,0.0,0.0,0.0,-2.5742,-2.5742,-2.5801,-2.5947,-2.6631,-2.708,-2.7226,-2.792,-2.8291,-2.8291,-2.8291,-2.8291,-2.8291,-2.8291,-2.8291,-2.8291,-2.8291,-2.8291,-2.8291,-2.8291,-2.8291,-2.8291,-2.8291,-2.8291,-2.8291,-2.8291,-2.8291,-2.8291,-2.8291,-2.8291,-2.833,-1.8112,0.0,0.0,0.0,0.0,0.0,0.0,0.0,0.0,0.0,-1.8282,0.0,-1.9048,0.0,-1.9381,0.0,-2.0136,-2.0246,-2.0503,-2.0521,0.0,-2.0145,-2.0136,0.0,0.0,0.0,0.0,0.0,0.0,-1.9998,0.0,0.0,0.0,0.0,0.0,0.0,0.0,0.0,-2.141,0.0,0.0,-2.307,0.0,0.0,-2.3758,-2.3794,0.0,-2.4152,-2.4152,-2.4152,-2.4152,-2.4152,-2.4152,-2.4152,-2.4152,-2.4152,-2.4152,-2.4152,-2.4152,-2.4152,0.0,-2.4251,-2.435,0.0,-2.435,0.0,0.0,0.0,0.0,0.0,0.0,0.0,0.0,0.0,0.0,0.0,0.0,-2.4833,0.0,0.0,0.0,0.0,0.0,0.0,-2.5742,-2.5742,-2.5742,-2.5742,0.0,0.0,-2.7012,-2.7012,-2.7851,-2.8291,-2.8291,-2.8291,-2.8291,-2.8291,-2.8291,-2.8291,-2.8291,-2.8291,-2.8291,-2.8291,-2.8291,-2.8291,-2.8291,-2.8291,-2.8291,-2.8291,-2.8291,-2.8291,-2.8291,-2.8291,-2.8389,-2.8555,0.0,0.0,0.0,0.0,-1.804,0.0,0.0,0.0,-1.821,0.0,-1.8727,-1.9039,-1.9834,-1.9962,-2.0118,-2.0512,-2.0549,0.0,-2.0576,-2.0576,0.0,0.0,-2.0549,-2.0539,-2.0521,0.0,0.0,0.0,0.0,0.0,0.0,0.0,0.0,0.0,-2.0961,0.0,-2.1163,-2.1585,-2.2006,-2.2456,-2.3226,-2.3556,-2.3611,-2.4005,-2.4251,-2.4251,-2.4251,-2.4251,-2.4251,-2.4251,-2.4251,-2.4251,-2.4152,-2.4251,-2.4251,-2.4251,-2.4251,-2.4251,-2.4251,-2.4251,-2.4251,-2.444,0.0,0.0,0.0,0.0,-2.4529,0.0,0.0,0.0,0.0,0.0,0.0,0.0,0.0,0.0,0.0,0.0,0.0,0.0,0.0,0.0,0.0,-2.5742,-2.5742,-2.5742,-2.5742,0.0,0.0,0.0,-2.7021,-2.7041,-2.7861,-2.8291,-2.8291,-2.8398,-2.8398,-2.8291,-2.8398,-2.8398,-2.8291,-2.8291,-2.8291,-2.8291,-2.8291,-2.8291,-2.8291,-2.8291,-2.8291,-2.8291,-2.8291,-2.8291,-2.8291,-2.8291,-2.8555,-2.8926,-1.8851,-1.9073,-1.9222,0.0,-1.8763,-1.8531,0.0,0.0,0.0,0.0,-1.9616,-1.9761,-2.0319,-2.0365,-2.0521,-2.0924,-2.0961,0.0,0.0,0.0,0.0,-2.097,-2.0961,-2.0824,-2.0521,-2.0805,0.0,-2.0521,0.0,0.0,-2.0521,0.0,0.0,0.0,0.0,0.0,-2.1603,-2.2006,-2.2584,-2.3253,-2.3647,-2.4013,0.0,0.0,-2.444,-2.444,-2.444,-2.444,-2.444,-2.444,-2.444,-2.444,-2.4251,-2.4341,-2.444,-2.444,-2.4538,-2.4735,-2.4735,-2.4735,-2.4735,-2.4735,-2.4833,-2.4833,0.0,0.0,0.0,0.0,0.0,0.0,0.0,0.0,0.0,0.0,0.0,0.0,0.0,0.0,0.0,-2.5635,0.0,0.0,-2.5732,-2.5742,-2.5742,-2.5742,-2.5742,0.0,0.0,0.0,0.0,-2.749,-2.8018,-2.8291,-2.8291,-2.9112,-2.9112,-2.8291,-2.9112,-2.9112,-2.8291,-2.8291,-2.8291,-2.8291,-2.8291,-2.8291,-2.8291,-2.8291,-2.8291,-2.8291,-2.8291,-2.8291,-2.8291,-2.8291,-2.8555,-2.8965,-1.9082,0.0,0.0,-1.9301,0.0,0.0,-1.8922,0.0,0.0,-1.9897,-2.0081,0.0,-2.0732,-2.0778,-2.0943,-2.1346,-2.1383,0.0,-2.1722,0.0,0.0,-2.1392,-2.1383,-2.1282,-2.1053,-2.1273,0.0,-2.1053,0.0,0.0,-2.1053,0.0,0.0,0.0,0.0,-2.1832,0.0,-2.2704,-2.322,-2.3749,-2.4128,0.0,0.0,-2.4627,-2.4627,-2.4726,-2.4833,-2.4637,-2.4341,-2.444,-2.4529,-2.4566,-2.4753,-2.4908,-2.5045,-2.5214,-2.5371,-2.5471,-2.5471,-2.5471,-2.5481,-2.5581,-2.5681,-2.5681,-2.5681,-2.5681,-2.5681,0.0,0.0,0.0,0.0,0.0,0.0,0.0,0.0,0.0,0.0,0.0,0.0,0.0,-2.637,0.0,-2.6935,-2.6197,-2.5742,-2.5742,-2.5742,0.0,0.0,0.0,0.0,-2.7656,-2.8076,-2.8495,-2.9006,-2.9112,-2.9418,-2.9733,-2.9418,-2.9112,-2.9006,-2.8495,-2.8601,-2.9006,-2.9006,-2.9006,-2.9006,-2.9006,-2.8698,-2.8291,-2.8291,-2.8408,-2.8564,-2.8564,-2.8838,-2.9268,0.0,0.0,0.0,0.0,0.0,0.0,0.0,-1.9723,0.0,-2.0072,0.0,-2.075,-2.1145,-2.12,-2.1443,-2.1722,0.0,-2.1857,-2.1857,-2.1913,-2.1851,-2.1851,-2.1878,-2.1869,-2.1814,-2.1814,0.0,0.0,0.0,0.0,0.0,0.0,0.0,0.0,0.0,0.0,0.0,-2.353,-2.397,-2.4044,-2.4692,-2.4932,-2.4932,-2.4932,-2.4932,-2.4941,-2.5302,-2.4928,-2.4433,-2.4622,-2.4749,-2.4852,-2.5528,-2.5743,-2.5819,-2.617,-2.6275,-2.6275,-2.6275,-2.6275,-2.6378,-2.6593,-2.6695,-2.6695,-2.6695,-2.6695,-2.6695,-2.6695,-2.649,-2.649,0.0,0.0,0.0,0.0,0.0,0.0,0.0,0.0,0.0,0.0,0.0,0.0,-2.8588,-2.7115,-2.61,0.0,0.0,0.0,0.0,0.0,0.0,-2.7934,-2.8308,-2.9006,-2.9922,0.0,-2.9723,-3.137,-2.9733,-2.9313,-3.013,-2.9112,-2.9207,-3.013,-3.013,-3.013,-3.013,-3.013,-2.9523,-2.8495,-2.8495,-2.876,-2.9134,-2.9193,-2.9599,-3.0135,0.0,0.0,0.0,0.0,0.0,-1.9925,-2.0255,-2.009,-2.0163,-2.0814,-2.0961,-2.1163,-2.1575,-2.1872,-2.2124,-2.2199,-2.2542,0.0,0.0,0.0,0.0,-2.2741,-2.2899,-2.2741,-2.2226,-2.2217,-2.2061,0.0,0.0,0.0,0.0,0.0,0.0,0.0,0.0,0.0,-2.3632,-2.3781,0.0,-2.473,-2.5109,-2.5235,-2.5235,-2.5235,-2.5235,-2.5283,-2.5429,-2.5562,-2.5662,-2.5762,-2.5982,-2.6177,-2.6142,-2.6273,-2.6394,-2.6471,-2.6705,-2.691,-2.691,-2.691,-2.691,-2.691,-2.691,-2.691,-2.691,-2.691,-2.691,-2.691,-2.691,-2.691,-2.7012,0.0,0.0,0.0,0.0,0.0,0.0,0.0,0.0,0.0,0.0,-2.8495,0.0,0.0,0.0,0.0,0.0,0.0,0.0,0.0,0.0,0.0,-2.9577,0.0,0.0,0.0,-3.1666,-3.0235,-3.1666,-3.1982,-3.1268,-3.1062,-3.1165,-3.1268,-3.1268,-3.1268,-3.1268,-3.1268,-3.065,-2.9618,-2.9618,-2.9884,-3.0432,-3.0812,-3.1881,-3.294,0.0,0.0,0.0,0.0,0.0,0.0,0.0,-2.1193,0.0,-2.1167,-2.1475,-2.1814,-2.2016,-2.2364,-2.2704,-2.2786,-2.3007,-2.3091,-2.3149,-2.339,-2.3373,-2.3111,-2.3392,0.0,-2.301,-2.301,-2.2917,-2.2721,0.0,0.0,0.0,0.0,0.0,0.0,0.0,-2.3749,0.0,0.0,0.0,-2.5137,-2.544,-2.5538,-2.5538,-2.5538,-2.5673,-2.5896,-2.6,-2.6357,-2.6807,-2.6473,-2.6429,-2.6631,-2.6852,-2.7033,-2.7185,-2.7398,-2.7571,-2.7676,-2.7676,-2.7676,-2.7676,-2.7676,-2.7676,-2.7676,-2.7676,-2.7676,-2.7676,-2.7676,-2.7676,-2.7816,-2.8084,-2.8238,0.0,0.0,0.0,0.0,0.0,0.0,0.0,0.0,0.0,0.0,0.0,0.0,0.0,0.0,0.0,0.0,0.0,0.0,0.0,0.0,0.0,0.0,0.0,0.0,0.0,-3.2476,-3.2387,-3.2387,-3.2387,-3.188,-3.188,-3.2387,-3.2387,-3.2387,-3.2387,-3.1779,-3.1268,-3.0774,-3.1123,-3.1497,-3.1966,-3.2436,-3.3672,-3.4866,0.0,-2.2574,0.0,0.0,-2.23,0.0,-2.1977,-2.2931,-2.3066,-2.1595,-2.1997,-2.2539,-2.2539,-2.2907,-2.3231,-2.3495,-2.357,-2.3616,-2.3647,-2.3852,-2.39,-2.3669,-2.4098,-2.4172,-2.3814,-2.4076,-2.4028,0.0,0.0,0.0,0.0,0.0,0.0,0.0,0.0,0.0,0.0,0.0,-2.5333,-2.544,-2.5635,-2.5742,-2.5752,-2.584,-2.6084,-2.6406,-2.6602,-2.709,-2.7627,-2.7156,-2.6966,-2.7023,-2.7685,-2.7803,-2.7861,-2.8193,-2.8291,-2.8291,-2.8291,-2.8291,-2.8291,-2.8291,-2.8291,-2.8291,-2.8291,-2.8291,-2.8291,-2.8291,-2.8495,-2.8906,-2.9672,-2.9803,0.0,0.0,0.0,0.0,0.0,0.0,0.0,0.0,0.0,0.0,-3.2604,0.0,0.0,0.0,0.0,0.0,0.0,0.0,0.0,0.0,0.0,-3.2387,-3.3201,0.0,-3.3001,-3.4421,-3.3001,-3.2689,-3.3511,-3.27,-3.27,-3.3511,-3.3511,-3.3511,-3.3499,-3.2588,-3.2252,-3.217,-3.2557,-3.3066,-3.3619,-3.3995,-3.5233,-3.6449,0.0,0.0,0.0,0.0,0.0,0.0,-2.4769,-2.5654,-2.5334,-2.2527,-2.2778,-2.3243,-2.3243,-2.3739,-2.4146,-2.4241,-2.4564,-2.4773,-2.4792,-2.5024,-2.5043,-2.4761,-2.5836,-2.5773,-2.4278,-2.5149,-2.4952,0.0,0.0,0.0,0.0,0.0,0.0,0.0,0.0,0.0,0.0,-2.5226,-2.544,-2.5635,-2.5645,-2.5742,-2.5781,-2.6172,-2.6357,-2.6494,-2.7266,-2.7598,-2.7715,-2.8057,-2.8174,-2.8174,-2.8223,-2.8232,-2.8242,-2.8281,-2.8291,-2.8291,-2.8291,-2.8291,-2.8291,-2.8291,-2.8291,-2.8291,-2.8291,-2.8291,-2.8291,-2.8291,-2.9112,-3.012,-3.1214,-3.1407,-3.1396,0.0,0.0,0.0,0.0,0.0,0.0,-3.2993,0.0,0.0,0.0,-3.326,0.0,0.0,0.0,0.0,0.0,0.0,0.0,-3.2978,0.0,-3.3101,-3.3201,-3.4017,-3.4115,-3.34,-3.4115,-3.4519,-3.4628,-3.4519,-3.4531,-3.4628,-3.4628,-3.4628,-3.4628,-3.4531,-3.4188,-3.3788,-3.3833,-3.444,-3.5393,-3.5439,-3.6425,-3.7868,0.0,0.0,0.0,0.0,0.0,0.0,0.0,-2.6993,-2.713,-2.5493,-2.5533,-2.547,-2.4839,-2.5769,-2.6029,-2.5025,-2.5633,-2.5818,-2.5158,-2.5935,-2.632,-2.6031,-2.7274,-2.7661,-2.692,-2.7368,-2.7273,0.0,0.0,0.0,0.0,0.0,0.0,0.0,0.0,-2.5276,-2.5538,-2.5538,-2.5635,-2.5742,-2.5742,-2.5898,-2.6241,-2.708,-2.7671,-2.8188,-2.8543,-2.8836,-2.8975,-2.8436,-2.8291,-2.8291,-2.8291,-2.8291,-2.8291,-2.8291,-2.8804,-2.9207,-2.9207,-2.9723,-3.0245,-3.0245,-3.0245,-3.0245,-3.0245,-3.0245,-3.0245,-3.0245,-3.1154,-3.1971,-3.2488,-3.2588,-3.2789,0.0,0.0,0.0,0.0,0.0,0.0,0.0,0.0,-3.409,0.0,0.0,0.0,0.0,0.0,0.0,0.0,0.0,0.0,-3.4115,0.0,-3.4115,-3.4115,-3.4628,-3.4628,-3.4127,-3.4628,-3.4823,-3.4823,-3.4823,-3.4823,-3.4823,-3.4823,-3.4823,-3.4847,-3.5172,-3.5115,-3.5053,-3.5679,-3.6176,-3.6578,-3.6885,-3.7464,-3.7986,-2.6979,0.0,-2.7161,0.0,-2.7849,-2.788,-2.7756,-2.8578,-2.9071,-2.8429,-2.8508,-2.8054,-2.6682,-2.7535,-2.7652,-2.6456,-2.6914,-2.7105,-2.636,-2.7094,-2.7568,-2.7379,-2.8495,0.0,-2.868,-2.8958,-2.8958,-2.868,-2.7697,0.0,0.0,0.0,0.0,0.0,-2.6562,-2.6562,-2.6562,-2.6562,-2.6562,-2.6572,-2.6714,-2.7063,-2.7466,-2.8488,-2.9189,-2.9768,-2.9916,-3.0169,-3.0235,-2.9523,-2.9323,-2.9217,-2.891,-2.9016,-2.9323,-2.9323,-2.9828,-3.0442,-3.0442,-3.0959,-3.1575,-3.1575,-3.1575,-3.1575,-3.1575,-3.1575,-3.1677,-3.1982,-3.2689,-3.33,-3.361,-3.3709,-3.3918,-3.4726,0.0,0.0,0.0,0.0,0.0,0.0,-3.4823,-3.4679,-3.4306,-3.4607,0.0,0.0,0.0,0.0,0.0,0.0,0.0,0.0,0.0,0.0,0.0,-3.4823,-3.4823,-3.4823,-3.4823,-3.4823,-3.4823,-3.4823,-3.4823,-3.4823,-3.4823,-3.4823,-3.4871,-3.54,-3.5713,-3.5942,-3.6843,-3.7288,-3.7469,-3.7841,-3.7986,-3.7986,-2.8004,-2.843,-2.8884,-2.93,-2.9809,-3.0161,-3.0196,-3.0973,-3.1472,-3.0937,-3.1294,-3.0812,-2.8495,-2.8495,-2.868,-2.868,-2.868,-2.868,-2.868,-2.868,-2.868,0.0,0.0,-2.9704,-2.868,-2.9704,-2.9704,-2.868,0.0,0.0,-2.8591,0.0,-2.8577,-2.868,-2.868,-2.868,-2.868,-2.868,-2.868,-2.8724,-2.9226,-2.9434,-2.9543,-3.0472,-3.0843,-3.0908,-3.14,-3.1575,-3.1575,-3.1575,-3.1575,-3.137,-3.0235,-3.0639,-3.1575,-3.1575,-3.1575,-3.1575,-3.1575,-3.1575,-3.1575,-3.1575,-3.1575,-3.1575,-3.1575,-3.1575,-3.188,-3.3001,-3.3201,-3.3511,-3.4628,-3.4823,-3.4823,-3.4823,0.0,0.0,0.0,0.0,0.0,-3.4823,-3.4823,-3.4823,-3.4823,0.0,0.0,0.0,0.0,0.0,0.0,0.0,0.0,-3.4823,-3.4823,0.0,-3.4823,-3.4823,-3.4823,-3.4823,-3.4823,-3.4823,-3.4823,-3.4823,-3.4823,-3.4823,-3.4823,-3.4823,-3.4871,-3.54,-3.5918,-3.6447,-3.6988,-3.7505,-3.7974,-3.7986,-3.7986,-3.7986,-2.9403,-2.9545,-2.9855,-3.0298,-3.0587,-3.0814,-3.1197,-3.1476,-3.1661,-3.1484,-3.1572,-3.1383,-3.0734,-3.0722,-3.017,0.0,-2.9326,-2.9418,0.0,-2.9326,-2.9704,-2.9704,-3.0734,-3.1104,-3.0722,-3.1104,-3.1104,-3.0734,0.0,0.0,0.0,-2.8688,-2.866,-2.868,-2.868,-2.868,-2.868,-2.868,-2.8877,-2.9299,-2.9463,-2.9913,-3.0537,-3.1645,-3.2267,-3.2474,-3.2644,-3.2689,-3.26,-3.188,-3.2083,-3.2588,-3.2286,-3.188,-3.1575,-3.1575,-3.2083,-3.2689,-3.2689,-3.3201,-3.3808,-3.3808,-3.3808,-3.3808,-3.3808,-3.3808,-3.3906,-3.4225,-3.4323,-3.4421,-3.4726,-3.4823,-3.4823,-3.4823,-3.4823,0.0,0.0,0.0,0.0,-3.4823,-3.4823,-3.4823,0.0,-3.4823,0.0,0.0,0.0,0.0,0.0,0.0,0.0,0.0,-3.4823,0.0,-3.4823,-3.4823,-3.4823,-3.4823,-3.4823,-3.4823,-3.4823,-3.4823,-3.4823,-3.4823,-3.4823,-3.504,-3.54,-3.5942,-3.6471,-3.7,-3.7529,-3.7829,-3.7986,-3.7986,-3.7986,-3.7986,-3.0386,-3.0543,-3.0783,-3.1108,-3.1168,-3.1288,-3.1613,-3.1661,-3.1661,-3.1661,-3.1661,-3.1661,-3.1661,-3.1661,0.0,-2.9988,-3.0362,-3.0543,-2.9886,-3.0441,-3.0722,-3.0722,-3.1371,-3.1661,-3.1661,-3.1661,0.0,-3.1661,-3.1104,-3.0453,-2.9795,-2.9795,-2.9795,-2.9795,-2.9795,-2.9795,-2.9806,-2.9999,-3.0283,-3.0612,-3.1081,-3.1496,-3.2161,-3.3064,-3.3539,-3.3808,-3.3808,-3.3808,-3.3709,-3.3001,-3.3201,-3.3808,-3.3808,-3.33,-3.2789,-3.2789,-3.33,-3.3808,-3.3808,-3.4323,-3.4823,-3.4823,-3.4823,-3.4823,-3.4823,-3.4823,-3.4823,-3.4823,-3.4823,-3.4823,-3.4823,-3.4823,-3.4823,-3.4823,-3.4823,-3.4823,-3.4823,0.0,0.0,0.0,0.0,0.0,0.0,-3.4823,-3.4823,0.0,0.0,0.0,0.0,0.0,0.0,-3.4823,-3.4823,0.0,-3.4823,-3.4823,-3.4823,-3.4823,-3.4823,-3.4823,-3.4823,-3.4823,-3.4823,-3.4835,-3.504,-3.5304,-3.5677,-3.6411,-3.6892,-3.724,-3.7781,-3.7986,-3.7986,-3.7986,-3.7986,-3.7986,-3.0927,-3.1324,-3.1661,0.0,-3.1661,0.0,-3.1661,-3.1661,-3.1661,-3.1661,-3.1661,-3.1661,-3.1661,-3.1661,-3.1661,-3.1661,0.0,0.0,0.0,-3.1661,-3.1661,-3.1661,-3.1661,-3.1661,-3.1661,-3.1661,-3.1661,-3.1661,-3.1661,-3.1661,-3.1661,-3.1661,-3.1661,-3.1661,-3.1661,-3.1685,-3.1757,-3.2286,-3.2539,-3.2695,-3.3657,-3.4066,-3.415,-3.4643,-3.4823,-3.4823,-3.4823,-3.4823,-3.4823,-3.4823,-3.4823,-3.4823,-3.4823,-3.4823,-3.4823,-3.4823,-3.4823,-3.4823,-3.4823,-3.4823,-3.4823,-3.4823,-3.4823,-3.4823,-3.4823,-3.4823,-3.4823,-3.4823,-3.4823,-3.4823,-3.4823,-3.4823,-3.4823,-3.4823,-3.4823,-3.4823,-3.4823,0.0,0.0,0.0,0.0,0.0,0.0,-3.4823,-3.4823,0.0,0.0,0.0,0.0,0.0,-3.4823,-3.4823,-3.4823,-3.4823,-3.4823,-3.4823,-3.4823,-3.4823,-3.4823,-3.4823,-3.4823,-3.4823,-3.4823,-3.4859,-3.5388,-3.5641,-3.5749,-3.6771,-3.7216,-3.73,-3.7793,-3.7986,-3.7986,-3.7986,-3.7986,-3.7986,0.0,0.0,-3.1661,-3.1661,-3.1661,-3.1661,-3.1661,-3.1661,-3.1661,-3.1661,-3.1661,-3.1661,-3.1661,-3.1661,-3.1661,-3.1661,-3.1661,-3.1661,-3.1661,-3.1661,-3.1661,-3.1661,-3.1661,-3.1661,-3.1661,-3.1661,-3.1661,-3.1661,-3.1661,-3.1661,-3.1661,-3.1661,-3.1661,-3.1661,-3.1661,-3.1901,-3.231,-3.2442,-3.2959,-3.3693,-3.3933,-3.4282,-3.4655,-3.4775,-3.4823,-3.4823,-3.4823,-3.4823,-3.4823,-3.4823,-3.4823,-3.4823,-3.4823,-3.4823,-3.4823,-3.4823,-3.4823,-3.4823,-3.4823,-3.4823,-3.4823,-3.4823,-3.4823,-3.4823,-3.4823,-3.4823,-3.4823,-3.4823,-3.4823,-3.4823,-3.4823,-3.4823,-3.4823,-3.4823,-3.4823,-3.4823,-3.4823,-3.4823,0.0,0.0,-3.4823,-3.4823,-3.4823,-3.4823,-3.4823,0.0,0.0,0.0,0.0,-3.4823,-3.4823,-3.4823,-3.4823,-3.4823,-3.4823,-3.4823,-3.4823,-3.4823,-3.4823,-3.4823,-3.4823,-3.4823,-3.4823,-3.4859,-3.5388,-3.5845,-3.6266,-3.6928,-3.7433,-3.7805,-3.7938,-3.7986,-3.7986,-3.7986,-3.7986,-3.7986,-3.1661,-3.1661,-3.1661,-3.1661,-3.1661,-3.1661,-3.1661,-3.1661,-3.1661,-3.1661,-3.1661,-3.1661,-3.1661,-3.1661,-3.1661,-3.1661,-3.1661,-3.1661,-3.1661,-3.1661,-3.1661,-3.1661,-3.1661,-3.1661,-3.1661,-3.1661,-3.1661,-3.1661,-3.1661,-3.1661,-3.1661,-3.1661,-3.1661,-3.1661,-3.1661,-3.1973,-3.2515,-3.2755,-3.3308,-3.4066,-3.4306,-3.4571,-3.4823,-3.4823,-3.4823,-3.4823,-3.4823,-3.4823,-3.4823,-3.4823,-3.4823,-3.4823,-3.4823,-3.4823,-3.4823,-3.4823,-3.4823,-3.4823,-3.4823,-3.4823,-3.4823,-3.4823,-3.4823,-3.4823,-3.4823,-3.4823,-3.4823,-3.4823,-3.4823,-3.4823,-3.4823,-3.4823,-3.4823,-3.4823,-3.4823,-3.4823,-3.4823,-3.4823,0.0,-3.4823,-3.4823,-3.4823,-3.4823,-3.4823,-3.4823,-3.4823,-3.4823,0.0,-3.4823,-3.4823,-3.4823,-3.4823,-3.4823,-3.4823,-3.4823,-3.4823,-3.4823,-3.4823,-3.4823,-3.4823,-3.4823,-3.4823,-3.4956,-3.522,-3.5749,-3.6278,-3.6807,-3.7336,-3.7721,-3.7986,-3.7986,-3.7986,-3.7986,-3.7986,-3.7986,-3.7986,-3.1661,-3.1661,-3.1661,-3.1661,-3.1661,-3.1661,-3.1661,-3.1661,-3.1661,-3.1661,-3.1661,-3.1661,-3.1661,-3.1661,-3.1661,-3.1661,-3.1661,-3.1661,-3.1661,-3.1661,-3.1661,-3.1661,-3.1661,-3.1661,-3.1661,-3.1661,-3.1661,-3.1661,-3.1661,-3.1661,-3.1661,-3.1661,-3.1661,-3.1661,-3.1661,-3.2022,-3.2647,-3.3104,-3.3633,-3.4198,-3.4643,-3.4823,-3.4823,-3.4823,-3.4823,-3.4823,-3.4823,-3.4823,-3.4823,-3.4823,-3.4823,-3.4823,-3.4823,-3.4823,-3.4823,-3.4823,-3.4823,-3.4823,-3.4823,-3.4823,-3.4823,-3.4823,-3.4823,-3.4823,-3.4823,-3.4823,-3.4823,-3.4823,-3.4823,-3.4823,-3.4823,-3.4823,-3.4823,-3.4823,-3.4823,-3.4823,-3.4823,0.0,-3.4823,-3.4823,-3.4823,-3.4823,-3.4823,-3.4823,-3.4823,-3.4823,-3.4823,-3.4823,-3.4823,-3.4823,-3.4823,-3.4823,-3.4823,-3.4823,-3.4823,-3.4823,-3.4823,-3.4823,-3.4823,-3.4823,-3.4823,-3.4907,-3.5196,-3.5653,-3.6266,-3.6771,-3.7228,-3.7757,-3.7986,-3.7986,-3.7986,-3.7986,-3.7986,-3.7986,-3.7986,-3.7986,-3.1661,-3.1661,-3.1661,-3.1661,-3.1661,-3.1661,-3.1661,-3.1661,-3.1661,-3.1661,-3.1661,-3.1661,-3.1661,-3.1661,-3.1661,-3.1661,-3.1661,-3.1661,-3.1661,-3.1661,-3.1661,-3.1661,-3.1661,-3.1661,-3.1661,-3.1661,-3.1661,-3.1661,-3.1661,-3.1661,-3.1661,-3.1661,-3.1661,-3.1661,-3.1661,-3.2226,-3.3176,-3.326,-3.3837,-3.4715,-3.4799,-3.4823,-3.4823,-3.4823,-3.4823,-3.4823,-3.4823,-3.4823,-3.4823,-3.4823,-3.4823,-3.4823,-3.4823,-3.4823,-3.4823,-3.4823,-3.4823,-3.4823,-3.4823,-3.4823,-3.4823,-3.4823,-3.4823,-3.4823,-3.4823,-3.4823,-3.4823,-3.4823,-3.4823,-3.4823,-3.4823,-3.4823,-3.4823,-3.4823,-3.4823,-3.4823,-3.4823,0.0,-3.4823,-3.4823,-3.4823,-3.4823,-3.4823,-3.4823,-3.4823,-3.4823,-3.4823,-3.4823,-3.4823,-3.4823,-3.4823,-3.4823,-3.4823,-3.4823,-3.4823,-3.4823,-3.4823,-3.4823,-3.4823,-3.4823,-3.4847,-3.5292,-3.5533,-3.5677,-3.6651,-3.712,-3.7228,-3.7757,-3.7986,-3.7986,-3.7986,-3.7986,-3.7986,-3.7986,-3.7986,-3.7986,-3.1661,-3.1661,-3.1661,-3.1661,-3.1661,-3.1661,-3.1661,-3.1661,-3.1661,-3.1661,-3.1661,-3.1661,-3.1661,-3.1661,-3.1661,-3.1661,-3.1661,-3.1661,-3.1661,-3.1661,-3.1661,-3.1661,-3.1661,-3.1661,-3.1661,-3.1661,-3.1661,-3.1661,-3.1661,-3.1661,-3.1661,-3.1661,-3.1661,-3.1661,-3.1661,-3.2118,-3.2887,-3.3176,-3.3717,-3.4426,-3.4715,-3.4823,-3.4823,-3.4823,-3.4823,-3.4823,-3.4823,-3.4823,-3.4823,-3.4823,-3.4823,-3.4823,-3.4823,-3.4823,-3.4823,-3.4823,-3.4823,-3.4823,-3.4823,-3.4823,-3.4823,-3.4823,-3.4823,-3.4823,-3.4823,-3.4823,-3.4823,-3.4823,-3.4823,-3.4823,-3.4823,-3.4823,-3.4823,-3.4823,-3.4823,0.0,0.0,-3.4823,-3.4823,-3.4823,-3.4823,-3.4823,-3.4823,-3.4823,-3.4823,-3.4823,-3.4823,-3.4823,-3.4823,-3.4823,-3.4823,-3.4823,-3.4823,-3.4823,-3.4823,-3.4823,-3.4823,-3.4823,-3.4823,-3.498,-3.5256,-3.5509,-3.593,-3.6495,-3.6988,-3.7348,-3.7637,-3.7878,-3.7986,-3.7986,-3.7986,-3.7986,-3.7986,-3.7986,-3.7986,-3.7986,-3.1661,-3.1661,-3.1661,-3.1661,-3.1661,-3.1661,-3.1661,-3.1661,-3.1661,-3.1661,-3.1661,-3.1661,-3.1661,-3.1661,-3.1661,-3.1661,-3.1661,-3.1661,-3.1661,-3.1661,-3.1661,-3.1661,-3.1661,-3.1661,-3.1661,-3.1661,-3.1661,-3.1661,-3.1661,-3.1661,-3.1661,-3.1661,-3.1661,-3.1661,-3.1661,-3.1973,-3.2539,-3.3068,-3.3585,-3.409,-3.4619,-3.4823,-3.4823,-3.4823,-3.4823,-3.4823,-3.4823,-3.4823,-3.4823,-3.4823,-3.4823,-3.4823,-3.4823,-3.4823,-3.4823,-3.4823,-3.4823,-3.4823,-3.4823,-3.4823,-3.4823,-3.4823,-3.4823,-3.4823,-3.4823,-3.4823,-3.4823,-3.4823,-3.4823,-3.4823,-3.4823,-3.4823,-3.4823,-3.4823,0.0,0.0,0.0,-3.4823,-3.4823,-3.4823,-3.4823,-3.4823,-3.4823,-3.4823,-3.4823,-3.4823,-3.4823,-3.4823,-3.4823,-3.4823,-3.4823,-3.4823,-3.4823,-3.4823,-3.4823,-3.4823,-3.4823,-3.4823,-3.4823,-3.51,-3.5617,-3.5749,-3.6314,-3.7204,-3.7324,-3.7601,-3.7986,-3.7986,-3.7986,-3.7986,-3.7986,-3.7986,-3.7986,-3.7986,-3.7986,-3.7986,-3.1661,-3.1661,-3.1661,-3.1661,-3.1661,-3.1661,-3.1661,-3.1661,-3.1661,-3.1661,-3.1661,-3.1661,-3.1661,-3.1661,-3.1661,-3.1661,-3.1661,-3.1661,-3.1661,-3.1661,-3.1661,-3.1661,-3.1661,-3.1661,-3.1661,-3.1661,-3.1661,-3.1661,-3.1661,-3.1661,-3.1661,-3.1661,-3.1661,-3.1661,-3.1661,-3.1973,-3.2539,-3.3068,-3.3585,-3.409,-3.4619,-3.4823,-3.4823,-3.4823,-3.4823,-3.4823,-3.4823,-3.4823,-3.4823,-3.4823,-3.4823,-3.4823,-3.4823,-3.4823,-3.4823,-3.4823,-3.4823,-3.4823,-3.4823,-3.4823,-3.4823,-3.4823,-3.4823,-3.4823,-3.4823,-3.4823,-3.4823,-3.4823,-3.4823,-3.4823,-3.4823,-3.4823,-3.4823,-3.4823,0.0,0.0,-3.4823,-3.4823,-3.4823,-3.4823,-3.4823,-3.4823,-3.4823,-3.4823,-3.4823,-3.4823,-3.4823,-3.4823,-3.4823,-3.4823,-3.4823,-3.4823,-3.4823,-3.4823,-3.4823,-3.4823,-3.4823,-3.4823,-3.4823,-3.51,-3.5629,-3.6122,-3.6663,-3.7216,-3.7709,-3.7938,-3.7986,-3.7986,-3.7986,-3.7986,-3.7986,-3.7986,-3.7986,-3.7986,-3.7986,-3.7986,-3.1661,-3.1661,-3.1661,-3.1661,-3.1661,-3.1661,-3.1661,-3.1661,-3.1661,-3.1661,-3.1661,-3.1661,-3.1661,-3.1661,-3.1661,-3.1661,-3.1661,-3.1661,-3.1661,-3.1661,-3.1661,-3.1661,-3.1661,-3.1661,-3.1661,-3.1661,-3.1661,-3.1661,-3.1661,-3.1661,-3.1661,-3.1661,-3.1661,-3.1661,-3.1661,-3.1781,-3.2022,-3.2575,-3.3104,-3.3621,-3.4126,-3.4535,-3.4823,-3.4823,-3.4823,-3.4823,-3.4823,-3.4823,-3.4823,-3.4823,-3.4823,-3.4823,-3.4823,-3.4823,-3.4823,-3.4823,-3.4823,-3.4823,-3.4823,-3.4823,-3.4823,-3.4823,-3.4823,-3.4823,-3.4823,-3.4823,-3.4823,-3.4823,-3.4823,-3.4823,-3.4823,-3.4823,-3.4823,-3.4823,0.0,-3.4823,-3.4823,-3.4823,-3.4823,-3.4823,-3.4823,-3.4823,-3.4823,-3.4823,-3.4823,-3.4823,-3.4823,-3.4823,-3.4823,-3.4823,-3.4823,-3.4823,-3.4823,-3.4823,-3.4823,-3.4823,-3.4823,-3.4835,-3.516,-3.5593,-3.6122,-3.6651,-3.718,-3.7697,-3.789,-3.7986,-3.7986,-3.7986,-3.7986,-3.7986,-3.7986,-3.7986,-3.7986,-3.7986,-3.7986,-3.7986,-3.1661,-3.1661,-3.1661,-3.1661,-3.1661,-3.1661,-3.1661,-3.1661,-3.1661,-3.1661,-3.1661,-3.1661,-3.1661,-3.1661,-3.1661,-3.1661,-3.1661,-3.1661,-3.1661,-3.1661,-3.1661,-3.1661,-3.1661,-3.1661,-3.1661,-3.1661,-3.1661,-3.1661,-3.1661,-3.1661,-3.1661,-3.1661,-3.1661,-3.1661,-3.1661,-3.1661,-3.1709,-3.2262,-3.2803,-3.3332,-3.3837,-3.4354,-3.4823,-3.4823,-3.4823,-3.4823,-3.4823,-3.4823,-3.4823,-3.4823,-3.4823,-3.4823,-3.4823,-3.4823,-3.4823,-3.4823,-3.4823,-3.4823,-3.4823,-3.4823,-3.4823,-3.4823,-3.4823,-3.4823,-3.4823,-3.4823,-3.4823,-3.4823,-3.4823,-3.4823,-3.4823,-3.4823,-3.4823,-3.4823,-3.4823,-3.4823,-3.4823,-3.4823,-3.4823,-3.4823,-3.4823,-3.4823,-3.4823,-3.4823,-3.4823,-3.4823,-3.4823,-3.4823,-3.4823,-3.4823,-3.4823,-3.4823,-3.4823,-3.4823,-3.4823,-3.4823,-3.4907,-3.5088,-3.5437,-3.5978,-3.6663,-3.7024,-3.7481,-3.7986,-3.7986,-3.7986,-3.7986,-3.7986,-3.7986,-3.7986,-3.7986,-3.7986,-3.7986,-3.7986,-3.7986,-3.7986,-3.1749,-3.1749,-3.1749,-3.1749,-3.1749,-3.1749,-3.1749,-3.1749,-3.1673,-3.1661,-3.1661,-3.1661,-3.1661,-3.1661,-3.1661,-3.1661,-3.1661,-3.1661,-3.1661,-3.1661,-3.1661,-3.1661,-3.1661,-3.1661,-3.1661,-3.1661,-3.1661,-3.1661,-3.1661,-3.1661,-3.1661,-3.1661,-3.1661,-3.1661,-3.1661,-3.1661,-3.1697,-3.2262,-3.2803,-3.332,-3.3837,-3.4354,-3.4823,-3.4823,-3.4823,-3.4823,-3.4823,-3.4823,-3.4823,-3.4823,-3.4823,-3.4823,-3.4823,-3.4823,-3.4823,-3.4823,-3.4823,-3.4823,-3.4823,-3.4823,-3.4823,-3.4823,-3.4823,-3.4823,-3.4823,-3.4823,-3.4823,-3.4823,-3.4823,-3.4823,-3.4823,-3.4823,-3.4823,-3.4823,-3.4823,-3.4823,-3.4823,-3.4823,-3.4823,-3.4823,-3.4823,-3.4823,-3.4823,-3.4823,-3.4823,-3.4823,-3.4823,-3.4823,-3.4823,-3.4823,-3.4823,-3.4823,-3.4823,-3.4823,-3.4823,-3.4823,-3.51,-3.5617,-3.5617,-3.6182,-3.7192,-3.7192,-3.7481,-3.7986,-3.7986,-3.7986,-3.7986,-3.7986,-3.7986,-3.7986,-3.7986,-3.7986,-3.7986,-3.7986,-3.7986,-3.7986,-3.3116,-3.3116,-3.3116,-3.3116,-3.3116,-3.2945,-3.245,-3.2363,-3.2189,-3.1749,-3.1661,-3.1661,-3.1661,-3.1661,-3.1661,-3.1661,-3.1661,-3.1661,-3.1661,-3.1661,-3.1661,-3.1661,-3.1661,-3.1661,-3.1661,-3.1661,-3.1661,-3.1661,-3.1661,-3.1661,-3.1661,-3.1661,-3.1661,-3.1661,-3.1661,-3.1661,-3.1673,-3.1841,-3.2226,-3.2779,-3.3308,-3.3813,-3.4318,-3.4691,-3.4823,-3.4823,-3.4823,-3.4823,-3.4823,-3.4823,-3.4823,-3.4823,-3.4823,-3.4823,-3.4823,-3.4823,-3.4823,-3.4823,-3.4823,-3.4823,-3.4823,-3.4823,-3.4823,-3.4823,-3.4823,-3.4823,-3.4823,-3.4823,-3.4823,-3.4823,-3.4823,-3.4823,-3.4823,-3.4823,-3.4823,-3.4823,-3.4823,-3.4823,-3.4823,-3.4823,-3.4823,-3.4823,-3.4823,-3.4823,-3.4823,-3.4823,-3.4823,-3.4823,-3.4823,-3.4823,-3.4823,-3.4823,-3.4823,-3.4823,-3.4823,-3.4823,-3.51,-3.5617,-3.599,-3.6531,-3.7204,-3.7577,-3.7829,-3.7986,-3.7986,-3.7986,-3.7986,-3.7986,-3.7986,-3.7986,-3.7986,-3.7986,-3.7986,-3.7986,-3.7986,-3.7986,-3.3713,-3.3713,-3.3713,-3.3713,-3.3713,-3.3543,-3.3129,-3.3129,-3.2957,-3.2525,-3.2525,-3.2525,-3.2525,-3.2264,-3.2101,-3.2101,-3.1837,-3.1661,-3.1661,-3.1661,-3.1661,-3.1661,-3.1661,-3.1661,-3.1661,-3.1661,-3.1661,-3.1661,-3.1661,-3.1661,-3.1661,-3.1661,-3.1661,-3.1661,-3.1661,-3.1661,-3.1661,-3.1661,-3.1985,-3.2551,-3.308,-3.3585,-3.4102,-3.4631,-3.4823,-3.4823,-3.4823,-3.4823,-3.4823,-3.4823,-3.4823,-3.4823,-3.4823,-3.4823,-3.4823,-3.4823,-3.4823,-3.4823,-3.4823,-3.4823,-3.4823,-3.4823,-3.4823,-3.4823,-3.4823,-3.4823,-3.4823,-3.4823,-3.4823,-3.4823,-3.4823,-3.4823,-3.4823,-3.4823,-3.4823,-3.4823,-3.4823,-3.4823,-3.4823,-3.4823,-3.4823,-3.4823,-3.4823,-3.4823,-3.4823,-3.4823,-3.4823,-3.4823,-3.4823,-3.4823,-3.4823,-3.4823,-3.4823,-3.4931,-3.5136,-3.5148,-3.54,-3.593,-3.6471,-3.7,-3.7517,-3.7841,-3.7986,-3.7986,-3.7986,-3.7986,-3.7986,-3.7986,-3.7986,-3.7986,-3.7986,-3.7986,-3.7986,-3.7986,-3.7986,-3.7986,-3.3882,-3.3882,-3.3882,-3.3882,-3.3882,-3.3882,-3.3797,-3.3797,-3.3797,-3.3713,-3.3713,-3.3713,-3.3713,-3.3129,-3.2797,-3.2797,-3.2189,-3.1749,-3.1661,-3.1761,-3.1749,-3.1749,-3.1837,-3.1837,-3.1837,-3.1749,-3.1661,-3.1661,-3.1661,-3.1661,-3.1661,-3.1661,-3.1661,-3.1661,-3.1661,-3.1661,-3.1661,-3.1661,-3.1961,-3.2478,-3.3008,-3.3525,-3.403,-3.4559,-3.4787,-3.4823,-3.4823,-3.4823,-3.4823,-3.4823,-3.4823,-3.4823,-3.4823,-3.4823,-3.4823,-3.4823,-3.4823,-3.4823,-3.4823,-3.4823,-3.4823,-3.4823,-3.4823,-3.4823,-3.4823,-3.4823,-3.4823,-3.4823,-3.4823,-3.4823,-3.4823,-3.4823,-3.4823,-3.4823,-3.4823,-3.4823,-3.4823,-3.4823,-3.4823,-3.4823,-3.4823,-3.4823,-3.4823,-3.4823,-3.4823,-3.4823,-3.4823,-3.4823,-3.4823,-3.4823,-3.4823,-3.4823,-3.4871,-3.5136,-3.5617,-3.5713,-3.6002,-3.6483,-3.6964,-3.7469,-3.7986,-3.7986,-3.7986,-3.7986,-3.7986,-3.7986,-3.7986,-3.7986,-3.7986,-3.7986,-3.7986,-3.7986,-3.7986,-3.7986,-3.7986,-3.7986,-3.5304,-3.5304,-3.5304,-3.5304,-3.5304,-3.5046,-3.4551,-3.4468,-3.4301,-3.3797,-3.3713,-3.3713,-3.3713,-3.3556,-3.3471,-3.3471,-3.2871,-3.2276,-3.1749,-3.2189,-3.245,-3.245,-3.2957,-3.3288,-3.3288,-3.2264,-3.1661,-3.1661,-3.1661,-3.1661,-3.1661,-3.1661,-3.1661,-3.1661,-3.1661,-3.1661,-3.1661,-3.1661,-3.1733,-3.1889,-3.2454,-3.2984,-3.3501,-3.4018,-3.4463,-3.4823,-3.4823,-3.4823,-3.4823,-3.4823,-3.4823,-3.4823,-3.4823,-3.4823,-3.4823,-3.4823,-3.4823,-3.4823,-3.4823,-3.4823,-3.4823,-3.4823,-3.4823,-3.4823,-3.4823,-3.4823,-3.4823,-3.4823,-3.4823,-3.4823,-3.4823,-3.4823,-3.4823,-3.4823,-3.4823,-3.4823,-3.4823,-3.4823,-3.4823,-3.4823,-3.4823,-3.4823,-3.4823,-3.4823,-3.4823,-3.4823,-3.4823,-3.4823,-3.4823,-3.4823,-3.4823,-3.4823,-3.5232,-3.5497,-3.5617,-3.6435,-3.6904,-3.7024,-3.7132,-3.7469,-3.7986,-3.7986,-3.7986,-3.7986,-3.7986,-3.7986,-3.7986,-3.7986,-3.7986,-3.7986,-3.7986,-3.7986,-3.7986,-3.7986,-3.7986,-3.7986,-3.571,-3.571,-3.571,-3.571,-3.571,-3.5548,-3.5209,-3.5223,-3.5046,-3.4716,-3.4634,-3.4634,-3.4634,-3.4384,-3.405,-3.3713,-3.3386,-3.3043,-3.2698,-3.2957,-3.3215,-3.3215,-3.3543,-3.3713,-3.3713,-3.3031,-3.2525,-3.2189,-3.2189,-3.2013,-3.1749,-3.2013,-3.2013,-3.1661,-3.1661,-3.1661,-3.1661,-3.1661,-3.1661,-3.1709,-3.2274,-3.2815,-3.3344,-3.3849,-3.4366,-3.4823,-3.4823,-3.4823,-3.4823,-3.4823,-3.4823,-3.4823,-3.4823,-3.4823,-3.4823,-3.4823,-3.4823,-3.4823,-3.4823,-3.4823,-3.4823,-3.4823,-3.4823,-3.4823,-3.4823,-3.4823,-3.4823,-3.4823,-3.4823,-3.4823,-3.4823,-3.4823,-3.4823,-3.4823,-3.4823,-3.4823,-3.4823,-3.4823,-3.4823,-3.4823,-3.4823,-3.4823,-3.4823,-3.4823,-3.4823,-3.4823,-3.4823,-3.4823,-3.4823,-3.4823,-3.4823,-3.4823,-3.534,-3.5737,-3.599,-3.6795,-3.7324,-3.7565,-3.7565,-3.7709,-3.7986,-3.7986,-3.7986,-3.7986,-3.7986,-3.7986,-3.7986,-3.7986,-3.7986,-3.7986,-3.7986,-3.7986,-3.7986,-3.7986,-3.7986,-3.7986,-3.571,-3.571,-3.571,-3.571,-3.571,-3.571,-3.571,-3.571,-3.571,-3.571,-3.571,-3.571,-3.571,-3.5209,-3.4634,-3.3966,-3.3882,-3.3797,-3.3713,-3.3797,-3.3882,-3.3882,-3.3966,-3.405,-3.405,-3.3966,-3.3543,-3.2884,-3.2884,-3.2624,-3.2089,-3.2612,-3.2525,-3.2001,-3.1925,-3.1837,-3.1837,-3.1749,-3.1661,-3.1709,-3.2166,-3.2762,-3.3385,-3.3893,-3.4508,-3.5077,-3.4981,-3.492,-3.4823,-3.4823,-3.4823,-3.4823,-3.4823,-3.4823,-3.4835,-3.492,-3.5017,-3.5017,-3.5199,-3.5199,-3.5199,-3.5199,-3.5199,-3.5199,-3.5199,-3.5114,-3.5017,-3.5017,-3.5017,-3.5017,-3.5017,-3.492,-3.4823,-3.4823,-3.4823,-3.4823,-3.4823,-3.4823,-3.4823,-3.4823,-3.4823,-3.4823,-3.4823,-3.4823,-3.4823,-3.4823,-3.4823,-3.4823,-3.4823,-3.4823,-3.4871,-3.4956,-3.5473,-3.6002,-3.6531,-3.7072,-3.7553,-3.7986,-3.7986,-3.7986,-3.7986,-3.7986,-3.7986,-3.7986,-3.7986,-3.7986,-3.7986,-3.7986,-3.7986,-3.7986,-3.7986,-3.7986,-3.7986,-3.7986,-3.7986,-3.7986,-3.571,-3.571,-3.571,-3.571,-3.571,-3.571,-3.571,-3.571,-3.571,-3.571,-3.571,-3.571,-3.571,-3.5629,-3.5291,-3.4634,-3.4551,-3.4301,-3.3713,-3.4217,-3.4551,-3.4551,-3.5127,-3.5467,-3.5467,-3.4881,-3.4217,-3.3543,-3.3543,-3.3543,-3.3458,-3.3543,-3.3543,-3.3373,-3.2797,-3.2537,-3.2537,-3.1925,-3.1661,-3.1673,-3.1745,-3.2451,-3.3526,-3.4148,-3.5048,-3.6049,-3.5886,-3.5391,-3.4823,-3.4823,-3.4823,-3.4823,-3.4823,-3.4823,-3.492,-3.5584,-3.587,-3.5966,-3.6602,-3.6777,-3.6777,-3.6777,-3.6777,-3.6777,-3.6777,-3.6332,-3.587,-3.587,-3.587,-3.587,-3.587,-3.5307,-3.4823,-3.4823,-3.4823,-3.4823,-3.4823,-3.4823,-3.4823,-3.4823,-3.4823,-3.4823,-3.4823,-3.4823,-3.4823,-3.4823,-3.4823,-3.4823,-3.4823,-3.4823,-3.504,-3.5497,-3.6026,-3.6555,-3.7084,-3.7613,-3.7914,-3.7986,-3.7986,-3.7986,-3.7986,-3.7986,-3.7986,-3.7986,-3.7986,-3.7986,-3.7986,-3.7986,-3.7986,-3.7986,-3.7986,-3.7986,-3.7986,-3.7986,-3.7986,-3.7986,-3.571,-3.571,-3.571,-3.571,-3.571,-3.571,-3.571,-3.571,-3.571,-3.571,-3.571,-3.571,-3.571,-3.571,-3.5548,-3.5291,-3.5304,-3.5127,-3.4799,-3.5046,-3.5304,-3.5304,-3.5548,-3.571,-3.571,-3.5386,-3.5127,-3.4799,-3.4468,-3.405,-3.3713,-3.405,-3.405,-3.3713,-3.3386,-3.33,-3.3215,-3.2945,-3.2772,-3.2772,-3.2772,-3.3283,-3.4098,-3.4743,-3.548,-3.621,-3.6493,-3.6414,-3.6036,-3.6036,-3.6048,-3.6061,-3.6036,-3.6036,-3.6131,-3.6508,-3.6602,-3.6696,-3.6964,-3.7057,-3.7057,-3.7057,-3.7057,-3.7057,-3.7057,-3.7176,-3.7083,-3.6696,-3.6602,-3.6602,-3.6602,-3.632,-3.6036,-3.6036,-3.6036,-3.5941,-3.5488,-3.5488,-3.5295,-3.4823,-3.5211,-3.5295,-3.4823,-3.5211,-3.5307,-3.4823,-3.4823,-3.4823,-3.4823,-3.4823,-3.5076,-3.5605,-3.6134,-3.6663,-3.718,-3.7709,-3.7986,-3.7986,-3.7986,-3.7986,-3.7986,-3.7986,-3.7986,-3.7986,-3.7986,-3.7986,-3.7986,-3.7986,-3.7986,-3.7986,-3.7986,-3.7986,-3.7986,-3.7986,-3.7986,-3.7986]},{"header":{"parameterUnit":"m.s-1","parameterCategory":1,"la1":30.6,"la2":28.766,"lo1":-90.7593,"lo2":-88.6598,"dy":0.0162,"dx":0.0183,"nx":116,"ny":114,"refTime":"2023-07-19T12:00:00:Z","depth":0,"parameterNumber":3,"parameterNumberName":"V-component_of_WINDS"},"data":[0.0,0.0,0.0,0.0,0.0,0.0,0.0,0.0,0.0,0.0,0.0,0.0,0.0,0.0,0.0,0.0,0.0,0.0,0.0,0.0,0.0,0.0,0.0,0.0,0.0,0.0,0.0,0.0,0.0,0.0,0.0,0.0,0.0,0.0,0.0,0.0,0.0,0.0,0.0,0.0,0.0,0.0,0.0,0.0,0.0,0.0,0.0,0.0,0.0,0.0,0.0,0.0,0.0,0.0,0.0,0.0,0.0,0.0,0.0,0.0,0.0,0.0,0.0,0.0,0.0,0.0,0.0,0.0,0.0,0.0,0.0,0.0,0.0,0.0,0.0,0.0,0.0,0.0,0.0,0.0,0.0,0.0,0.0,0.0,0.0,0.0,0.0,0.0,0.0,0.0,0.0,0.0,0.0,0.0,0.0,0.0,0.0,0.0,0.0,0.0,0.0,0.0,0.0,0.0,0.0,0.0,0.0,0.0,0.0,0.0,0.0,0.0,0.0,0.0,0.0,0.0,0.0,0.0,0.0,0.0,0.0,0.0,0.0,0.0,0.0,0.0,0.0,0.0,0.0,0.0,0.0,0.0,0.0,0.0,0.0,0.0,0.0,0.0,0.0,0.0,0.0,0.0,0.0,0.0,0.0,0.0,0.0,0.0,0.0,0.0,0.0,0.0,0.0,0.0,0.0,0.0,0.0,0.0,0.0,0.0,0.0,0.0,0.0,0.0,0.0,0.0,0.0,0.0,0.0,0.0,0.0,0.0,0.0,0.0,0.0,0.0,0.0,0.0,0.0,0.0,0.0,0.0,0.0,0.0,0.0,0.0,0.0,0.0,0.0,0.0,0.0,0.0,0.0,0.0,0.0,0.0,0.0,0.0,0.0,0.0,0.0,0.0,0.0,0.0,0.0,0.0,0.0,0.0,0.0,0.0,0.0,0.0,0.0,0.0,0.0,0.0,0.0,0.0,0.0,0.0,0.0,0.0,0.0,0.0,0.0,0.0,0.0,0.0,0.0,0.0,0.0,0.0,0.0,0.0,0.0,0.0,0.0,0.0,0.0,0.0,0.0,0.0,0.0,0.0,0.0,0.0,0.0,0.0,0.0,0.0,0.0,0.0,0.0,0.0,0.0,0.0,0.0,0.0,0.0,0.0,0.0,0.0,0.0,0.0,0.0,0.0,0.0,0.0,0.0,0.0,0.0,0.0,0.0,0.0,0.0,0.0,0.0,0.0,0.0,0.0,0.0,0.0,0.0,0.0,0.0,0.0,0.0,0.0,0.0,0.0,0.0,0.0,0.0,0.0,0.0,0.0,0.0,0.0,0.0,0.0,0.0,0.0,0.0,0.0,0.0,0.0,0.0,0.0,0.0,0.0,0.0,0.0,0.0,0.0,0.0,0.0,0.0,0.0,0.0,0.0,0.0,0.0,0.0,0.0,0.0,0.0,0.0,0.0,0.0,0.0,0.0,0.0,0.0,0.0,0.0,0.0,0.0,0.0,0.0,0.0,0.0,0.0,0.0,0.0,0.0,0.0,0.0,0.0,0.0,0.0,0.0,0.0,0.0,0.0,0.0,0.0,0.0,0.0,0.0,0.0,0.0,0.0,0.0,0.0,0.0,0.0,0.0,0.0,0.0,0.0,0.0,0.0,0.0,0.0,0.0,0.0,0.0,0.0,0.0,0.0,0.0,0.0,0.0,0.0,0.0,0.0,0.0,0.0,0.0,0.0,0.0,0.0,0.0,0.0,0.0,0.0,0.0,0.0,0.0,0.0,0.0,0.0,0.0,0.0,0.0,0.0,0.0,0.0,0.0,0.0,0.0,0.0,0.0,0.0,0.0,0.0,0.0,0.0,0.0,0.0,0.0,0.0,0.0,0.0,0.0,0.0,0.0,0.0,0.0,0.0,0.0,0.0,0.0,0.0,0.0,0.0,0.0,0.0,0.0,0.0,0.0,0.0,0.0,0.0,0.0,0.0,0.0,0.0,0.0,0.0,0.0,0.0,0.0,0.0,0.0,0.0,0.0,0.0,0.0,0.0,0.0,0.0,0.0,0.0,0.0,0.0,0.0,0.0,0.0,0.0,0.0,0.0,0.0,0.0,0.0,0.0,0.0,0.0,0.0,0.0,0.0,0.0,0.0,0.0,0.0,0.0,0.0,0.0,0.0,0.0,0.0,0.0,0.0,0.0,0.0,0.0,0.0,0.0,0.0,0.0,0.0,0.0,0.0,0.0,0.0,0.0,0.0,0.0,0.0,0.0,0.0,0.0,0.0,0.0,0.0,0.0,0.0,0.0,0.0,0.0,0.0,0.0,0.0,0.0,0.0,0.0,0.0,0.0,0.0,0.0,0.0,0.0,0.0,0.0,0.0,0.0,0.0,0.0,0.0,0.0,0.0,0.0,0.0,0.0,0.0,0.0,0.0,0.0,0.0,0.0,0.0,0.0,0.0,0.0,0.0,0.0,0.0,0.0,0.0,0.0,0.0,0.0,0.0,0.0,0.0,0.0,0.0,0.0,0.0,0.0,0.0,0.0,0.0,0.0,0.0,0.0,0.0,0.0,0.0,0.0,0.0,0.0,0.0,0.0,0.0,0.0,0.0,0.0,0.0,0.0,0.0,0.0,0.0,0.0,0.0,0.0,0.0,0.0,0.0,0.0,0.0,0.0,0.0,0.0,0.0,0.0,0.0,0.0,0.0,0.0,0.0,0.0,0.0,0.0,0.0,0.0,0.0,0.0,0.0,0.0,0.0,0.0,0.0,0.0,0.0,0.0,0.0,0.0,0.0,0.0,0.0,0.0,0.0,0.0,0.0,0.0,0.0,0.0,0.0,0.0,0.0,0.0,0.0,0.0,0.0,0.0,0.0,0.0,0.0,0.0,0.0,0.0,0.0,0.0,0.0,0.0,0.0,0.0,0.0,0.0,0.0,0.0,0.0,0.0,0.0,0.0,0.0,0.0,0.0,0.0,0.0,0.0,0.0,0.0,0.0,0.0,0.0,0.0,0.0,0.0,0.0,0.0,0.0,0.0,0.0,0.0,0.0,0.0,0.0,0.0,0.0,0.0,0.0,0.0,0.0,0.0,0.0,0.0,0.0,0.0,0.0,0.0,0.0,0.0,0.0,0.0,0.0,0.0,0.0,0.0,0.0,0.0,0.0,0.0,0.0,0.0,0.0,0.0,0.0,0.0,0.0,0.0,0.0,0.0,0.0,0.0,0.0,0.0,0.0,0.0,0.0,0.0,0.0,0.0,0.0,0.0,0.0,0.0,0.0,0.0,0.0,0.0,0.0,0.0,0.0,0.0,0.0,0.0,0.0,0.0,0.0,0.0,0.0,0.0,0.0,0.0,0.0,0.0,0.0,0.0,0.0,0.0,0.0,0.0,0.0,0.0,0.0,0.0,0.0,0.0,0.0,0.0,0.0,0.0,0.0,0.0,0.0,0.0,0.0,0.0,0.0,0.0,0.0,0.0,0.0,0.0,0.0,0.0,0.0,0.0,0.0,0.0,0.0,0.0,0.0,0.0,0.0,0.0,0.0,0.0,0.0,0.0,0.0,0.0,0.0,0.0,0.0,0.0,0.0,0.0,0.0,0.0,0.0,0.0,0.0,0.0,0.0,0.0,0.0,0.0,0.0,0.0,0.0,0.0,0.0,0.0,0.0,0.0,0.0,0.0,0.0,0.0,0.0,0.0,0.0,0.0,0.0,0.0,0.0,0.0,0.0,0.0,0.0,0.0,0.0,0.0,0.0,0.0,0.0,0.0,0.0,0.0,0.0,0.0,0.0,0.0,0.0,0.0,0.0,0.0,0.0,0.0,0.0,0.0,0.0,0.0,0.0,0.0,0.0,0.0,0.0,0.0,0.0,0.0,0.0,0.0,0.0,0.0,0.0,0.0,0.0,0.0,0.0,0.0,0.0,0.0,0.0,0.0,0.0,0.0,0.0,0.0,0.0,0.0,0.0,0.0,0.0,0.0,0.0,0.0,0.0,0.0,0.0,0.0,0.0,0.0,0.0,0.0,0.0,0.0,0.0,0.0,0.0,0.0,0.0,0.0,0.0,0.0,0.0,0.0,0.0,0.0,0.0,0.0,0.0,0.0,0.0,0.0,0.0,0.0,0.0,0.0,0.0,0.0,0.0,0.0,0.0,0.0,0.0,0.0,0.0,0.0,0.0,0.0,0.0,0.0,0.0,0.0,0.0,0.0,0.0,0.0,0.0,0.0,0.0,0.0,0.0,0.0,0.0,0.0,0.0,0.0,0.0,0.0,0.0,0.0,0.0,0.0,0.0,0.0,0.0,0.0,0.0,0.0,0.0,0.0,0.0,0.0,0.0,0.0,0.0,0.0,0.0,0.0,0.0,0.0,0.0,0.0,0.0,0.0,0.0,0.0,0.0,0.0,0.0,0.0,0.0,0.0,0.0,0.0,0.0,0.0,0.0,0.0,0.0,0.0,0.0,0.0,0.0,0.0,0.0,0.0,0.0,0.0,0.0,0.0,0.0,0.0,0.0,0.0,0.0,0.0,0.0,0.0,0.0,0.0,0.0,0.0,0.0,0.0,0.0,0.0,0.0,0.0,0.0,0.0,0.0,0.0,0.0,0.0,0.0,0.0,0.0,0.0,0.0,0.0,0.0,0.0,0.0,0.0,0.0,0.0,0.0,0.0,0.0,0.0,0.0,0.0,0.0,0.0,0.0,0.0,0.0,0.0,0.0,0.0,0.0,0.0,0.0,0.0,0.0,0.0,0.0,0.0,0.0,0.0,0.0,0.0,0.0,0.0,0.0,0.0,0.0,0.0,0.0,0.0,0.0,0.0,0.0,0.0,0.0,0.0,0.0,0.0,0.0,0.0,0.0,0.0,0.0,0.0,0.0,0.0,0.0,0.0,0.0,0.0,0.0,0.0,0.0,0.0,0.0,0.0,0.0,0.0,0.0,0.0,0.0,0.0,0.0,0.0,0.0,0.0,0.0,0.0,0.0,0.0,0.0,0.0,0.0,0.0,0.0,0.0,0.0,0.0,0.0,0.0,0.0,0.0,0.0,0.0,0.0,0.0,0.0,0.0,0.0,0.0,0.0,0.0,0.0,0.0,0.0,0.0,0.0,0.0,0.0,0.0,0.0,0.0,0.0,0.0,0.0,0.0,0.0,0.0,0.0,0.0,0.0,0.0,0.0,0.0,0.0,0.0,0.0,0.0,0.0,0.0,0.0,0.0,0.0,0.0,0.0,0.0,0.0,0.0,0.0,0.0,0.0,0.0,0.0,0.0,0.0,0.0,0.0,0.0,0.0,0.0,0.0,0.0,0.0,0.0,0.0,0.0,0.0,0.0,0.0,0.0,0.0,0.0,0.0,0.0,0.0,0.0,0.0,0.0,0.0,0.0,0.0,0.0,0.0,0.0,0.0,0.0,0.0,0.0,0.0,0.0,0.0,0.0,0.0,0.0,0.0,0.0,0.0,0.0,0.0,0.0,0.0,0.0,0.0,0.0,0.0,0.0,0.0,0.0,0.0,0.0,0.0,0.0,0.0,0.0,0.0,0.0,0.0,0.0,0.0,0.0,0.0,0.0,0.0,0.0,0.0,0.0,0.0,0.0,0.0,0.0,0.0,0.0,0.0,0.0,0.0,0.0,0.0,0.0,0.0,0.0,0.0,0.0,0.0,0.0,0.0,0.0,0.0,0.0,0.0,0.0,0.0,0.0,0.0,0.0,0.0,0.0,0.0,0.0,0.0,0.0,0.0,0.0,0.0,0.0,0.0,0.0,0.0,0.0,0.0,0.0,0.0,0.0,0.0,0.0,0.0,0.0,0.0,0.0,0.0,0.0,0.0,0.0,0.0,0.0,0.0,0.0,0.0,0.0,0.0,0.0,0.0,0.0,0.0,0.0,0.0,0.0,0.0,0.0,0.0,0.0,0.0,0.0,0.0,0.0,0.0,0.0,0.0,0.0,0.0,0.0,0.0,0.0,0.0,0.0,0.0,0.0,0.0,0.0,0.0,0.0,0.0,0.0,0.0,0.0,0.0,0.0,0.0,0.0,0.0,0.0,0.0,0.0,0.0,0.0,0.0,0.0,0.0,0.0,0.0,0.0,0.0,0.0,0.0,0.0,-4.071,0.0,0.0,0.0,0.0,0.0,0.0,0.0,0.0,0.0,0.0,0.0,0.0,0.0,0.0,0.0,0.0,0.0,0.0,0.0,0.0,0.0,0.0,0.0,0.0,0.0,0.0,0.0,0.0,0.0,0.0,0.0,0.0,0.0,0.0,0.0,0.0,0.0,0.0,0.0,0.0,0.0,0.0,0.0,0.0,0.0,0.0,0.0,0.0,0.0,0.0,0.0,0.0,0.0,0.0,0.0,0.0,0.0,0.0,0.0,0.0,0.0,0.0,0.0,0.0,0.0,0.0,0.0,0.0,0.0,0.0,0.0,0.0,0.0,0.0,0.0,0.0,0.0,0.0,0.0,0.0,0.0,0.0,0.0,0.0,0.0,0.0,0.0,0.0,0.0,0.0,0.0,0.0,0.0,0.0,0.0,0.0,0.0,0.0,0.0,0.0,0.0,0.0,0.0,0.0,0.0,0.0,0.0,0.0,0.0,0.0,0.0,0.0,0.0,0.0,0.0,0.0,-4.0506,0.0,0.0,0.0,0.0,0.0,0.0,0.0,0.0,0.0,0.0,0.0,0.0,0.0,0.0,0.0,0.0,0.0,0.0,0.0,0.0,0.0,0.0,0.0,0.0,0.0,0.0,0.0,0.0,0.0,0.0,0.0,0.0,0.0,0.0,0.0,0.0,0.0,0.0,0.0,0.0,0.0,0.0,0.0,0.0,0.0,0.0,0.0,0.0,0.0,0.0,0.0,0.0,0.0,0.0,0.0,0.0,0.0,0.0,0.0,0.0,0.0,0.0,0.0,0.0,0.0,0.0,0.0,0.0,0.0,0.0,0.0,0.0,0.0,0.0,0.0,0.0,0.0,0.0,0.0,0.0,0.0,0.0,0.0,0.0,0.0,0.0,0.0,0.0,0.0,0.0,0.0,0.0,0.0,0.0,0.0,0.0,0.0,0.0,0.0,0.0,0.0,0.0,0.0,0.0,0.0,0.0,0.0,0.0,-4.1837,-4.2112,-4.2044,-4.2588,-4.2811,-4.266,-4.1208,-4.0654,-4.0837,-4.1513,0.0,0.0,0.0,0.0,0.0,0.0,0.0,0.0,0.0,0.0,0.0,0.0,0.0,0.0,0.0,0.0,0.0,0.0,0.0,0.0,0.0,0.0,0.0,0.0,0.0,0.0,0.0,0.0,0.0,0.0,0.0,0.0,0.0,0.0,0.0,0.0,0.0,0.0,-3.781,-3.7965,-3.8359,-3.8856,0.0,0.0,0.0,0.0,0.0,0.0,0.0,0.0,0.0,0.0,0.0,0.0,0.0,0.0,0.0,0.0,0.0,0.0,0.0,0.0,0.0,0.0,0.0,0.0,0.0,0.0,0.0,0.0,0.0,0.0,0.0,0.0,0.0,0.0,0.0,0.0,0.0,0.0,0.0,0.0,0.0,0.0,0.0,0.0,-3.7766,-3.8724,0.0,0.0,0.0,0.0,0.0,0.0,0.0,0.0,0.0,0.0,0.0,0.0,0.0,-4.1816,-4.1869,-4.2543,-4.2796,-4.2622,-4.2736,-4.2697,-4.2524,-4.2536,-4.255,-4.2531,-4.2234,0.0,-4.2328,-4.2484,0.0,0.0,0.0,0.0,0.0,0.0,0.0,0.0,0.0,0.0,0.0,0.0,0.0,0.0,0.0,0.0,0.0,0.0,0.0,0.0,0.0,0.0,0.0,0.0,0.0,0.0,0.0,0.0,0.0,0.0,0.0,0.0,0.0,0.0,0.0,0.0,-3.6955,-3.7706,-3.8334,-3.8893,-3.9255,-3.9413,-3.9194,-3.9274,-3.9602,-3.9602,0.0,0.0,0.0,0.0,0.0,0.0,0.0,0.0,0.0,0.0,0.0,0.0,0.0,0.0,0.0,0.0,0.0,0.0,0.0,0.0,0.0,0.0,0.0,0.0,0.0,0.0,0.0,0.0,0.0,0.0,0.0,0.0,0.0,0.0,0.0,0.0,0.0,0.0,0.0,-3.921,-3.9603,-4.0116,-4.0101,-4.0256,0.0,0.0,0.0,0.0,0.0,0.0,0.0,0.0,0.0,-4.1416,-4.2209,-4.2629,-4.2628,-4.2883,-4.2967,-4.2848,-4.3235,-4.3361,-4.3308,-4.37,-4.3885,-4.3862,-4.3815,-4.3839,-4.3847,-4.3479,-4.3333,-4.3393,0.0,0.0,0.0,0.0,-4.4249,-4.4231,0.0,0.0,0.0,0.0,0.0,0.0,0.0,0.0,0.0,0.0,0.0,0.0,0.0,0.0,0.0,0.0,0.0,0.0,0.0,0.0,0.0,0.0,0.0,0.0,0.0,0.0,0.0,0.0,-3.8378,-3.8774,-3.8915,-3.9627,-3.9845,-3.9698,-3.9712,-3.9689,-3.9602,-3.9602,-3.9602,0.0,0.0,0.0,0.0,0.0,0.0,0.0,0.0,0.0,0.0,0.0,0.0,0.0,0.0,0.0,0.0,0.0,0.0,0.0,0.0,0.0,0.0,0.0,0.0,0.0,0.0,0.0,0.0,0.0,0.0,0.0,0.0,0.0,0.0,0.0,0.0,0.0,0.0,-4.0813,-4.0939,-4.096,-4.0948,-4.0906,0.0,0.0,0.0,0.0,0.0,0.0,-4.1473,-4.1924,-4.2175,-4.217,-4.2985,-4.3273,-4.2999,-4.3096,-4.312,-4.3062,-4.3547,-4.3916,-4.4113,-4.4929,-4.5285,-4.5236,-4.5369,-4.542,-4.5344,-4.4445,-4.4052,-4.4066,-4.4786,-4.5061,-4.5065,-4.5129,-4.5254,-4.5222,0.0,0.0,0.0,0.0,0.0,0.0,0.0,0.0,0.0,0.0,0.0,0.0,0.0,0.0,0.0,0.0,0.0,0.0,0.0,0.0,0.0,0.0,0.0,0.0,0.0,0.0,0.0,-3.8727,-3.8765,-3.9222,-4.002,-4.0077,-4.0015,-3.9889,-3.9889,-3.9777,-3.9602,-3.9602,-3.9602,-3.9602,0.0,0.0,0.0,0.0,0.0,0.0,0.0,0.0,0.0,0.0,0.0,0.0,0.0,0.0,0.0,0.0,0.0,0.0,0.0,0.0,0.0,0.0,0.0,0.0,0.0,0.0,0.0,0.0,0.0,0.0,0.0,0.0,0.0,0.0,0.0,0.0,0.0,0.0,0.0,-4.0906,-4.0955,0.0,0.0,0.0,0.0,-4.1816,-4.2035,-4.2421,-4.3055,-4.2999,-4.2938,-4.2938,-4.3617,-4.3558,-4.2735,-4.3458,-4.3814,-4.3741,-4.3798,-4.417,-4.4857,-4.5729,-4.6127,-4.6165,-4.661,-4.6786,-4.6703,-4.5401,-4.4701,-4.4489,-4.4857,-4.4857,-4.4676,-4.4995,-4.5125,-4.5125,0.0,0.0,0.0,0.0,0.0,0.0,0.0,0.0,0.0,0.0,0.0,0.0,0.0,0.0,0.0,0.0,0.0,0.0,0.0,0.0,0.0,0.0,0.0,0.0,0.0,0.0,-3.9395,-3.9641,-3.9719,-3.9871,-4.0117,-4.0195,-4.0117,-3.9911,-3.9994,-3.9951,-3.9796,-3.9708,-3.9665,-3.9661,-3.9626,-3.965,0.0,0.0,0.0,0.0,0.0,0.0,0.0,0.0,0.0,0.0,0.0,0.0,0.0,0.0,0.0,0.0,0.0,0.0,0.0,0.0,0.0,0.0,0.0,0.0,0.0,0.0,0.0,0.0,0.0,0.0,0.0,0.0,0.0,0.0,0.0,0.0,0.0,-4.0905,-4.083,0.0,-4.1481,-4.1632,-4.1963,-4.2673,-4.2717,-4.2814,-4.3067,-4.2956,-4.287,-4.287,-4.3558,-4.4048,-4.423,-4.5045,-4.5661,-4.6114,-4.6114,-4.6145,-4.6195,-4.6403,-4.6382,-4.6122,-4.6248,-4.6331,-4.6275,-4.581,-4.5631,-4.5693,-4.6055,-4.6185,-4.6166,-4.6487,-4.663,-4.6701,0.0,0.0,0.0,0.0,0.0,0.0,0.0,0.0,0.0,0.0,0.0,0.0,0.0,0.0,0.0,0.0,0.0,0.0,0.0,0.0,0.0,0.0,0.0,0.0,0.0,0.0,0.0,0.0,0.0,0.0,0.0,-4.0253,-4.0215,-4.0036,-4.0137,-4.0117,-4.0036,-3.9892,-3.9804,-3.9762,-3.9727,-3.975,-3.9804,0.0,0.0,0.0,0.0,0.0,0.0,0.0,0.0,0.0,0.0,0.0,0.0,0.0,0.0,0.0,0.0,0.0,0.0,0.0,0.0,0.0,0.0,0.0,0.0,0.0,0.0,0.0,0.0,0.0,0.0,0.0,0.0,0.0,0.0,0.0,-4.1331,-4.1271,-4.1441,-4.173,-4.2212,-4.2351,-4.2699,-4.3419,-4.3169,-4.3239,-4.3765,-4.3695,-4.3768,-4.4015,-4.4775,-4.53,-4.5494,-4.6041,-4.6543,-4.6999,-4.6999,-4.7,-4.6995,-4.7054,-4.693,-4.6635,-4.6616,-4.6654,-4.6654,-4.6505,-4.6543,-4.6654,-4.6762,-4.6791,-4.6772,-4.7118,-4.7352,-4.7523,0.0,0.0,0.0,0.0,0.0,0.0,0.0,0.0,0.0,0.0,0.0,0.0,0.0,0.0,0.0,0.0,0.0,0.0,0.0,0.0,0.0,0.0,0.0,0.0,0.0,0.0,0.0,0.0,0.0,0.0,0.0,0.0,-4.031,-4.031,-4.031,-4.031,-4.0291,-4.0176,-4.0057,-3.9933,-3.9911,-4.0019,-4.0214,0.0,0.0,0.0,0.0,0.0,0.0,0.0,0.0,0.0,0.0,0.0,0.0,0.0,0.0,0.0,0.0,0.0,0.0,0.0,0.0,0.0,0.0,0.0,0.0,0.0,0.0,0.0,0.0,0.0,0.0,0.0,0.0,0.0,-4.1183,-4.1738,-4.2169,-4.2055,-4.271,-4.3095,-4.2833,-4.3031,-4.3408,-4.396,-4.3425,-4.373,-4.526,-4.5335,-4.5657,-4.6374,-4.7232,-4.722,-4.6339,-4.6377,-4.6391,-4.6354,-4.6373,-4.6705,-4.7335,-4.7796,-4.7895,-4.7772,-4.7901,-4.7933,-4.7875,-4.7493,-4.732,-4.7252,-4.686,-4.6549,-4.632,-4.6775,-4.7165,-4.7472,0.0,0.0,0.0,0.0,0.0,0.0,0.0,0.0,0.0,0.0,0.0,0.0,0.0,0.0,0.0,0.0,0.0,0.0,0.0,0.0,0.0,0.0,0.0,0.0,0.0,0.0,0.0,0.0,0.0,0.0,0.0,-4.0408,-4.0425,-4.0519,-4.0519,-4.0519,-4.0504,-4.0489,-4.0438,-4.037,-4.0039,-3.9998,-4.0139,0.0,0.0,0.0,0.0,0.0,0.0,0.0,0.0,0.0,0.0,0.0,0.0,0.0,0.0,0.0,0.0,0.0,0.0,0.0,0.0,0.0,0.0,0.0,0.0,0.0,0.0,0.0,0.0,0.0,0.0,0.0,0.0,-4.2999,-4.276,-4.2859,-4.2884,-4.2739,-4.2835,-4.2889,-4.2814,-4.2871,-4.3197,-4.3959,-4.4401,-4.511,-4.6118,-4.6113,-4.6205,-4.6393,-4.6587,-4.6702,-4.6722,-4.8177,-4.9078,-4.9386,-4.9988,-5.0177,-5.0035,-4.9749,-4.9387,-4.8978,-4.8947,-4.8595,-4.8138,-4.802,-4.7589,-4.7089,-4.743,-4.7517,-4.7497,-4.8125,-4.8633,-4.9079,0.0,0.0,0.0,0.0,0.0,0.0,0.0,0.0,0.0,0.0,0.0,0.0,0.0,0.0,0.0,0.0,0.0,0.0,0.0,0.0,0.0,0.0,0.0,0.0,0.0,0.0,0.0,0.0,0.0,0.0,-4.0588,-4.0515,-4.053,-4.0588,-4.0588,-4.0615,-4.0604,-4.0604,-4.0617,-4.0617,-4.0312,-4.0229,-4.0336,-4.05,-4.0568,-4.0655,-4.1191,-4.1361,-4.1524,-4.2765,0.0,0.0,0.0,0.0,0.0,0.0,0.0,0.0,0.0,0.0,0.0,0.0,0.0,0.0,0.0,0.0,0.0,0.0,0.0,0.0,0.0,0.0,0.0,0.0,-4.3597,-4.3481,-4.3742,-4.3692,-4.3458,-4.3041,-4.3503,-4.3692,-4.3348,-4.394,-4.4551,-4.501,-4.5485,-4.6113,-4.6953,-4.6773,-4.6828,-4.7119,-4.7799,-4.8174,-4.8196,-4.9856,-5.076,-5.0875,-5.1255,-5.1303,-5.0969,-5.0451,-4.9999,0.0,-4.9412,-4.9067,-4.8657,-4.8657,-4.8389,0.0,0.0,0.0,0.0,0.0,-4.9085,-4.9384,0.0,0.0,0.0,0.0,0.0,0.0,0.0,0.0,0.0,0.0,0.0,0.0,0.0,0.0,0.0,0.0,0.0,0.0,0.0,0.0,0.0,0.0,-3.8456,0.0,0.0,0.0,0.0,-4.0454,-4.0545,-4.0635,-4.0642,-4.0629,-4.0629,-4.0655,-4.0655,-4.0642,-4.0645,-4.0645,-4.0668,-4.0731,-4.0668,-4.0636,-4.0642,-4.0757,-4.082,-4.1006,-4.1897,-4.2237,-4.2507,-4.4176,0.0,0.0,0.0,0.0,0.0,0.0,0.0,0.0,0.0,0.0,0.0,0.0,0.0,0.0,0.0,0.0,0.0,0.0,0.0,0.0,0.0,0.0,0.0,0.0,-4.3916,-4.3691,-4.4198,-4.4378,-4.411,-4.3227,-4.448,-4.5105,-4.4246,-4.5583,-4.65,-4.6478,-4.6488,-4.6862,-4.7715,0.0,0.0,0.0,0.0,-5.0511,-5.0082,-5.1252,-5.1663,-5.125,-5.1192,-5.1132,-5.0989,-5.0514,-5.0182,-5.0018,-4.971,-4.9531,-4.946,-4.946,-4.9388,-4.9204,-4.8168,-4.7765,-4.787,-4.8531,-4.8816,-4.8837,0.0,0.0,0.0,0.0,0.0,0.0,0.0,0.0,0.0,0.0,0.0,0.0,0.0,0.0,0.0,0.0,0.0,0.0,0.0,0.0,-3.6195,-3.7706,-3.8051,-3.8919,-4.0422,-4.0534,-4.0602,-4.072,-4.0648,-4.0706,-4.0926,-4.08,-4.0811,-4.0918,-4.0918,-4.0926,-4.0933,-4.0933,-4.0933,-4.094,-4.0933,-4.0894,-4.084,-4.081,-4.1305,-4.2031,-4.2213,-4.2719,-4.3479,-4.4511,-4.4826,-4.4934,-4.5846,0.0,0.0,0.0,0.0,0.0,0.0,0.0,0.0,0.0,0.0,0.0,0.0,0.0,0.0,0.0,0.0,0.0,0.0,0.0,0.0,-4.4338,-4.4225,-4.4119,-4.4078,-4.5225,-4.5512,-4.398,-4.526,-4.5946,-4.5125,-4.5927,-4.6478,-4.6434,-4.6776,-4.7318,-4.8134,-4.9015,-4.9575,-4.9728,-5.0629,-5.0916,-5.0499,-5.1583,-5.1952,-5.1628,0.0,0.0,-5.2152,-5.1723,-5.1472,-5.1325,-5.1276,-5.0869,-5.0281,-5.0281,-4.9906,-4.9228,-4.8422,-4.8272,-4.8446,-4.8079,-4.8101,-4.8365,0.0,0.0,0.0,0.0,0.0,0.0,0.0,0.0,0.0,0.0,0.0,0.0,0.0,0.0,0.0,0.0,0.0,0.0,0.0,-3.5281,-3.6104,-3.7828,-3.8028,-3.8865,-4.0565,-4.0692,-4.0768,-4.0849,-4.081,-4.0858,-4.1006,-4.0937,-4.0953,-4.0994,-4.0994,-4.1019,-4.1056,-4.1056,-4.1042,-4.1057,-4.1042,-4.1031,-4.1045,-4.142,-4.1855,-4.2403,-4.3299,-4.3877,-4.4384,-4.526,-4.5526,-4.5585,-4.6059,-4.6169,-4.6137,0.0,0.0,0.0,0.0,0.0,0.0,0.0,0.0,0.0,0.0,0.0,0.0,0.0,0.0,-4.5266,0.0,0.0,-4.4568,-4.4766,-4.486,-4.4842,-4.4668,-4.5696,-4.5998,-4.48,-4.6116,-4.6781,-4.5922,-4.6969,-4.7686,-4.7643,-4.8443,-4.9068,-4.9472,-5.0035,-5.0342,-5.0342,-5.1117,-5.1323,-5.0835,-5.199,-5.2352,-5.1901,-5.2162,-5.225,-5.2221,-5.192,-5.174,-5.169,-5.169,-5.1458,-5.1101,-5.1101,-5.0869,-5.0423,-4.9638,-4.9321,-4.9207,-4.8887,-4.898,-4.9245,0.0,0.0,0.0,0.0,0.0,0.0,0.0,0.0,0.0,0.0,0.0,0.0,0.0,0.0,0.0,0.0,0.0,0.0,0.0,-3.5451,-3.6221,-3.7951,-3.8178,-3.9015,-4.0703,-4.0857,-4.0929,-4.0929,-4.0974,-4.1013,-4.1019,-4.1019,-4.1025,-4.1011,-4.1011,-4.1042,-4.11,-4.11,-4.1094,-4.1108,-4.109,-4.1191,-4.1436,-4.2261,-4.2577,-4.2791,-4.4345,-4.5027,-4.5286,-4.5982,-4.6216,-4.6216,-4.6216,-4.6216,-4.6209,-4.614,-4.6131,0.0,0.0,0.0,0.0,0.0,0.0,0.0,0.0,0.0,-4.559,-4.5673,-4.4989,-4.4604,-4.5336,-4.4999,-4.4771,-4.5184,-4.5495,-4.5611,-4.5526,-4.632,-4.6679,-4.6056,-4.7137,-4.7666,-4.6942,-4.818,-4.9093,-4.9245,-5.0,-5.0506,-5.0675,-5.0729,-5.073,-5.073,-5.1517,-5.1759,-5.1337,-5.2236,-5.2499,-5.2054,-5.1907,-5.1858,-5.1858,-5.174,-5.169,-5.169,-5.169,-5.169,-5.169,-5.169,-5.169,-5.1637,-5.0994,-5.051,-5.0117,-4.9811,-4.9866,-5.0061,0.0,0.0,0.0,0.0,0.0,0.0,0.0,0.0,0.0,0.0,0.0,0.0,0.0,0.0,0.0,0.0,0.0,0.0,0.0,-3.5621,-3.6416,-3.8093,-3.8302,-3.9159,-4.0843,-4.0948,-4.0981,-4.0981,-4.1007,-4.1025,-4.1091,-4.1091,-4.1081,-4.1085,-4.1085,-4.1085,-4.1104,-4.1104,-4.1108,-4.1108,-4.1108,-4.1557,-4.2357,-4.3212,-4.3544,-4.3681,-4.4633,-4.5492,-4.6156,-4.6253,-4.6292,-4.6292,-4.6292,-4.6292,-4.6284,-4.6211,0.0,-4.6184,-4.6192,-4.6189,-4.6183,-4.6196,-4.6107,-4.5988,0.0,0.0,-4.4614,-4.543,-4.4728,-4.4225,-4.5132,-4.5166,-4.5055,-4.5125,-4.5734,-4.621,-4.6187,-4.7596,-4.8585,-4.8514,-4.8642,-4.8718,-4.8623,-4.9151,-4.9787,-5.0433,-4.9945,-4.9933,-5.0572,-5.1,-5.123,-5.123,-5.1873,-5.2214,-5.2185,-5.2048,-5.1987,-5.1907,-5.1808,-5.169,-5.169,-5.169,-5.169,-5.169,-5.169,-5.169,-5.169,-5.169,-5.169,-5.169,-5.1601,-5.1544,-5.1294,-4.9883,-4.9365,-4.9412,0.0,0.0,0.0,0.0,0.0,0.0,0.0,0.0,0.0,0.0,0.0,0.0,0.0,0.0,0.0,0.0,0.0,0.0,-3.5713,-3.5745,-3.6526,-3.8237,-3.8447,-3.9292,-4.0989,-4.1037,-4.1061,-4.1061,-4.1061,-4.107,-4.1097,-4.1091,-4.1099,-4.1105,-4.1092,-4.1093,-4.1093,-4.1093,-4.1074,-4.1054,-4.1074,-4.1269,-4.1676,-4.3104,-4.3611,-4.3766,-4.5232,-4.5987,0.0,0.0,-4.6249,-4.6249,-4.6249,-4.6211,-4.6189,-4.6144,-4.6152,0.0,-4.615,-4.6102,0.0,0.0,-4.5977,-4.5854,-4.5742,-4.5269,-4.4921,-4.5246,-4.493,-4.4878,-4.5769,-4.5852,-4.5955,0.0,-4.7272,-4.7824,-4.7824,-4.8802,-4.9543,-4.9543,-4.9749,-5.0005,-5.0278,-5.0037,-5.0263,-5.1268,-5.1028,-5.0967,-5.1275,-5.1682,-5.1899,-5.1899,-5.2083,-5.2168,-5.2071,-5.1956,-5.1858,-5.179,-5.1758,-5.169,-5.169,-5.169,-5.169,-5.169,-5.169,-5.169,-5.169,-5.169,-5.169,-5.169,-5.169,-5.169,-5.1619,-5.0941,-5.0709,-5.0709,0.0,0.0,0.0,0.0,0.0,0.0,0.0,0.0,0.0,0.0,0.0,0.0,0.0,0.0,0.0,0.0,0.0,0.0,0.0,-3.5866,-3.6533,-3.8029,-3.8408,0.0,-4.0709,-4.0986,-4.1105,-4.1105,-4.1105,-4.1087,-4.1069,-4.1074,-4.1054,-4.1034,-4.1047,-4.1041,-4.1041,-4.1041,-4.1016,-4.0987,-4.1035,-4.1124,-4.1432,-4.2986,-4.3684,-4.407,-4.5677,-4.6248,0.0,0.0,-4.6175,-4.6175,-4.6175,-4.6147,-4.6089,-4.6086,-4.6059,-4.6057,-4.6027,0.0,0.0,-4.5922,-4.5829,-4.5699,-4.5524,-4.5189,-4.4972,-4.5331,-4.5204,-4.5375,-4.6483,-4.682,-4.7162,-4.7813,-4.8631,-4.9182,-4.9182,-4.9834,-5.0293,-5.0193,-5.0522,-5.0997,-5.1552,-5.0732,-5.062,-5.1724,-5.1701,-5.1725,-5.1944,-5.2182,-5.2264,-5.2264,-5.2102,-5.2005,-5.1907,-5.1858,-5.1808,-5.169,-5.169,-5.169,-5.169,-5.169,-5.169,-5.169,-5.169,-5.169,-5.169,-5.169,-5.169,-5.169,-5.169,-5.169,-5.169,-5.169,-5.169,-5.169,0.0,0.0,0.0,0.0,0.0,0.0,0.0,0.0,0.0,0.0,0.0,0.0,0.0,0.0,0.0,0.0,0.0,0.0,0.0,-3.5994,-3.6381,-3.7282,-3.808,-3.8924,-3.9823,-4.0663,-4.1108,-4.1108,-4.1108,-4.1064,-4.0994,-4.0994,-4.0964,-4.0905,-4.0905,-4.0905,-4.0905,-4.0905,-4.0905,-4.0905,-4.0905,-4.1413,-4.2251,-4.3163,-4.4026,-4.4885,-4.5782,0.0,0.0,0.0,-4.6094,-4.6094,-4.6094,-4.6094,0.0,-4.6013,-4.6007,0.0,0.0,0.0,-4.5944,-4.5679,-4.5607,-4.5543,-4.5266,-4.4486,-4.4288,-4.5848,-4.5483,-4.5407,-4.7055,-4.8041,-4.8655,-4.8674,-4.9356,-4.9887,-4.9887,-5.0618,-5.1017,-5.0629,-5.0922,-5.1491,0.0,-5.1261,-5.093,-5.1738,-5.1479,-5.1583,-5.2221,-5.2293,-5.2264,-5.2102,-5.1956,-5.1907,-5.1907,-5.1758,-5.169,-5.169,-5.169,-5.169,-5.169,-5.169,-5.169,-5.169,-5.169,-5.169,-5.169,-5.169,-5.169,-5.169,-5.169,-5.169,-5.169,-5.169,-5.169,-5.169,0.0,0.0,0.0,0.0,0.0,0.0,0.0,0.0,0.0,0.0,0.0,0.0,0.0,0.0,0.0,0.0,0.0,0.0,0.0,-3.5618,-3.63,-3.7122,-3.7973,-3.8849,-3.9708,-4.0538,-4.0964,-4.0964,-4.0964,-4.0961,-4.0933,-4.093,-4.0928,-4.0896,-4.0901,-4.0898,-4.0898,-4.0898,-4.0863,-4.0837,-4.089,-4.1041,-4.1442,-4.2879,-4.3588,-4.3995,0.0,0.0,0.0,0.0,0.0,0.0,-4.6035,0.0,0.0,-4.5938,-4.5835,-4.5733,0.0,0.0,-4.5577,-4.5491,-4.54,-4.5301,-4.522,-4.5312,-4.5545,-4.6089,-4.6847,-4.7586,-4.8155,-4.8932,-4.9481,-4.9481,-4.9709,-5.0088,-5.0675,-5.0808,-5.0936,-5.1349,-5.151,0.0,0.0,0.0,0.0,-5.2577,-5.2227,-5.2069,-5.2293,-5.212,-5.2005,-5.1956,-5.1858,-5.1758,-5.1758,-5.174,-5.169,-5.169,-5.169,-5.169,-5.169,-5.169,-5.169,-5.169,-5.169,-5.169,-5.169,-5.1487,-5.1538,-5.169,-5.1487,-5.1538,-5.169,-5.169,-5.169,-5.169,0.0,0.0,0.0,0.0,0.0,0.0,0.0,0.0,0.0,0.0,0.0,0.0,0.0,0.0,0.0,0.0,0.0,0.0,0.0,0.0,-3.5967,-3.6498,-3.7338,-3.8228,-3.9143,-3.9987,-4.0572,-4.0896,-4.0896,-4.089,-4.0857,-4.0852,-4.0866,-4.0867,-4.0859,-4.0848,-4.0848,-4.0848,-4.0826,-4.0804,-4.0856,-4.0843,-4.0984,-4.2667,-4.3305,0.0,0.0,0.0,0.0,0.0,0.0,0.0,0.0,-4.5861,-4.5794,-4.5794,-4.5677,-4.5528,-4.5526,-4.5475,-4.5381,-4.5241,-4.5216,-4.5246,-4.5506,-4.5903,-4.6373,-4.6961,-4.7946,-4.878,-4.9064,-4.9538,-4.9898,-4.9898,-5.0043,-5.0383,-5.1102,-5.1218,-5.1451,-5.1956,-5.2155,0.0,0.0,0.0,0.0,-5.2751,-5.2508,-5.2264,-5.2168,-5.2005,-5.1858,-5.1808,-5.174,-5.169,-5.169,-5.169,-5.169,-5.169,-5.169,-5.169,-5.169,-5.169,-5.169,-5.169,-5.1589,-5.1538,-5.1538,-5.1384,-5.1333,-5.1367,-5.1436,-5.1487,-5.1538,-5.164,-5.169,-5.169,0.0,0.0,0.0,0.0,0.0,0.0,0.0,0.0,0.0,0.0,0.0,0.0,0.0,0.0,0.0,0.0,0.0,0.0,0.0,0.0,0.0,-3.5491,-3.6261,-3.7152,-3.8092,-3.9004,-3.9915,-4.0811,-4.0849,-4.0849,-4.0776,-4.0807,-4.0792,-4.079,-4.079,-4.079,-4.079,-4.079,-4.079,-4.079,-4.079,-4.079,-4.0952,-4.2448,0.0,0.0,0.0,0.0,0.0,0.0,0.0,0.0,0.0,0.0,-4.5596,-4.5596,-4.5493,-4.5361,-4.5216,-4.5279,-4.5301,-4.4991,-4.5038,-4.5376,-4.6044,-4.6222,-4.6733,-4.8344,-4.8723,-4.8969,0.0,0.0,-4.9879,-4.9841,-5.0285,-5.0779,-5.1159,-5.1892,-5.2401,0.0,0.0,0.0,0.0,0.0,0.0,-5.2311,0.0,-5.2168,-5.1907,-5.1907,-5.1875,-5.1744,-5.1762,-5.1779,-5.1815,-5.1779,-5.1726,-5.169,-5.169,-5.169,-5.169,-5.169,-5.169,-5.164,-5.1384,-5.1281,-5.1281,-5.1228,-5.1052,-5.0874,-5.1418,-5.1487,-5.1298,-5.1538,-5.164,-5.164,0.0,0.0,0.0,0.0,0.0,0.0,0.0,0.0,0.0,0.0,0.0,0.0,0.0,0.0,0.0,0.0,0.0,0.0,0.0,0.0,0.0,0.0,0.0,0.0,0.0,0.0,0.0,0.0,0.0,-4.0577,-4.0582,-4.072,-4.0796,0.0,-4.079,-4.079,-4.079,-4.079,-4.079,-4.079,0.0,-4.079,-4.0894,0.0,0.0,0.0,0.0,0.0,0.0,0.0,0.0,0.0,0.0,-4.5475,-4.5438,-4.5438,-4.5361,-4.5237,-4.5213,-4.5106,-4.5014,-4.4919,-4.4919,-4.5195,-4.6019,-4.6657,-4.7397,-4.8477,-4.9178,-4.9462,0.0,0.0,0.0,-4.9083,-5.0165,0.0,-5.1569,-5.2092,0.0,0.0,0.0,-5.2599,-5.2498,-5.2358,0.0,0.0,-5.2054,-5.1956,-5.1907,-5.1808,-5.2026,-5.2564,-5.2564,-5.285,-5.3421,-5.2868,-5.2279,-5.169,-5.169,-5.1607,-5.1384,-5.1384,-5.1281,-5.1035,-5.0982,-5.0928,-5.0928,-5.0729,-5.0729,-5.082,-5.0729,-5.082,-5.0928,-5.0982,-5.1035,-5.1035,0.0,0.0,0.0,0.0,0.0,0.0,0.0,0.0,0.0,0.0,0.0,0.0,0.0,0.0,0.0,0.0,0.0,0.0,0.0,0.0,0.0,0.0,0.0,0.0,0.0,0.0,0.0,0.0,0.0,0.0,0.0,-4.053,-4.0579,-4.0579,-4.064,-4.0668,-4.0668,0.0,0.0,0.0,0.0,0.0,0.0,0.0,0.0,0.0,0.0,0.0,0.0,0.0,0.0,-4.5493,-4.5419,-4.5361,-4.532,-4.532,0.0,-4.508,-4.508,-4.4943,-4.4796,-4.4796,-4.5079,-4.5552,-4.6448,-4.7333,-4.8211,-4.9045,-4.9576,0.0,0.0,0.0,0.0,0.0,0.0,0.0,-5.2184,-5.2324,-5.2504,0.0,-5.2627,0.0,-5.2405,-5.2264,-5.2264,0.0,-5.2153,-5.2019,-5.2308,-5.2276,-5.2564,-5.335,-5.3385,-5.3581,-5.4028,-5.3599,-5.2993,-5.2208,-5.2088,-5.1756,-5.1298,-5.1176,-5.0999,-5.0803,0.0,-5.0602,-5.0602,-5.0453,-5.0415,-5.0453,-5.0564,-5.062,-5.0657,-5.0766,-5.0803,-5.0803,0.0,0.0,0.0,0.0,0.0,0.0,0.0,0.0,0.0,0.0,0.0,0.0,0.0,0.0,0.0,0.0,0.0,0.0,0.0,0.0,0.0,0.0,0.0,0.0,0.0,0.0,0.0,0.0,0.0,0.0,0.0,0.0,0.0,0.0,0.0,0.0,0.0,0.0,0.0,0.0,0.0,0.0,0.0,0.0,0.0,0.0,0.0,0.0,0.0,0.0,-4.5342,-4.5302,-4.5302,-4.5218,-4.5103,-4.5103,-4.4967,-4.4846,-4.4846,-4.4745,-4.4685,-4.4712,-4.5289,-4.61,-4.7022,-4.798,-4.8886,-4.9728,0.0,-4.969,-4.8988,0.0,-5.0069,-4.9995,0.0,-5.1712,-5.2563,-5.2522,-5.2444,-5.2751,-5.2379,-5.215,-5.2264,-5.2161,-5.2355,-5.3053,-5.2502,-5.2416,-5.2993,-5.3028,-5.3385,-5.4152,-5.4277,-5.4295,-5.4188,-5.4188,-5.3742,-5.2886,-5.2625,-5.2059,-5.1228,-5.0928,-5.0766,-5.0657,-5.0453,0.0,-5.0359,-5.0359,-5.0206,-5.0068,-5.0509,-5.0564,-5.0359,-5.0602,-5.0712,-5.0712,0.0,0.0,0.0,0.0,0.0,0.0,0.0,0.0,0.0,0.0,-3.1193,0.0,0.0,0.0,0.0,0.0,0.0,0.0,0.0,0.0,0.0,0.0,0.0,0.0,0.0,0.0,0.0,0.0,0.0,0.0,0.0,0.0,0.0,0.0,0.0,0.0,0.0,0.0,0.0,0.0,0.0,0.0,0.0,0.0,0.0,0.0,0.0,0.0,0.0,0.0,-4.5052,-4.4819,-4.4827,-4.4719,-4.4632,-4.4632,-4.4605,-4.4551,-4.4551,-4.4551,-4.4551,-4.4685,-4.5227,-4.6008,-4.7129,-4.7935,0.0,0.0,0.0,-4.9841,-4.9709,-5.0391,0.0,-5.0391,0.0,0.0,0.0,0.0,-5.2509,0.0,0.0,0.0,0.0,0.0,0.0,0.0,0.0,-5.3689,-5.3813,-5.3831,-5.4188,-5.4973,-5.5651,-5.5669,-5.5009,-5.4991,-5.4295,-5.2886,-5.2816,-5.2129,-5.0874,-5.082,-5.0564,-5.0166,-5.0109,0.0,-5.0051,-5.0051,-5.0051,-5.0011,-5.0109,-5.0109,-5.0051,-5.0109,-5.0166,-5.0166,0.0,0.0,0.0,0.0,0.0,0.0,0.0,0.0,0.0,0.0,-3.102,-3.179,0.0,0.0,0.0,0.0,0.0,0.0,0.0,0.0,0.0,0.0,0.0,0.0,0.0,0.0,0.0,0.0,0.0,0.0,0.0,0.0,0.0,0.0,0.0,0.0,0.0,0.0,0.0,0.0,0.0,0.0,0.0,0.0,0.0,0.0,0.0,0.0,0.0,0.0,-4.4776,-4.4365,-4.4532,-4.4551,-4.4515,-4.4515,-4.4515,-4.4515,-4.4515,-4.4458,-4.443,-4.4468,-4.5358,-4.639,-4.7033,0.0,0.0,0.0,0.0,-4.9898,-4.9898,0.0,0.0,0.0,0.0,0.0,0.0,0.0,0.0,0.0,0.0,0.0,0.0,0.0,0.0,0.0,0.0,-5.4634,-5.4634,-5.5027,-5.5437,-5.5812,-5.6204,-5.6204,-5.583,-5.5419,-5.4616,-5.3474,-5.289,-5.1989,-5.082,-5.0657,-5.0359,-5.0011,-5.0011,0.0,-5.0011,-5.0011,-5.0011,-5.0011,-5.0011,-5.0011,-5.0011,-5.0011,-5.0011,-5.0011,0.0,0.0,0.0,0.0,0.0,0.0,0.0,-2.9853,-2.9855,-2.9888,-3.0624,-3.1478,-3.2348,-3.3375,-3.4238,0.0,0.0,0.0,0.0,0.0,0.0,0.0,0.0,0.0,0.0,0.0,0.0,0.0,0.0,0.0,0.0,0.0,0.0,0.0,0.0,0.0,0.0,0.0,0.0,0.0,0.0,0.0,0.0,0.0,0.0,0.0,0.0,0.0,0.0,0.0,-4.4572,-4.4036,-4.4325,-4.4383,-4.4383,-4.4383,-4.4383,-4.4383,-4.4383,-4.4325,-4.4226,-4.4207,-4.5438,-4.6694,-4.6866,-4.834,0.0,0.0,-4.9898,-4.9993,-5.0372,0.0,0.0,0.0,0.0,0.0,0.0,0.0,0.0,0.0,0.0,0.0,0.0,0.0,0.0,0.0,0.0,0.0,-5.5473,-5.6062,-5.6401,-5.6401,-5.6401,-5.6311,-5.6133,-5.5526,-5.4723,-5.376,-5.2856,-5.1829,-5.0803,-5.0509,-5.0246,-5.0011,-5.0011,0.0,0.0,-5.0011,-5.0011,-5.0011,-5.0011,-5.0011,-5.0011,-5.0011,-5.0011,-5.0011,0.0,0.0,0.0,0.0,0.0,0.0,0.0,-2.9626,-2.9698,-2.9872,-2.9981,-3.0459,-3.1508,-3.3032,-3.4025,0.0,0.0,0.0,0.0,0.0,0.0,0.0,0.0,0.0,0.0,0.0,0.0,0.0,0.0,0.0,0.0,0.0,0.0,0.0,0.0,0.0,0.0,0.0,0.0,0.0,0.0,0.0,0.0,0.0,0.0,0.0,0.0,0.0,0.0,0.0,0.0,-4.4005,-4.4036,-4.4036,-4.4036,-4.4036,0.0,0.0,-4.4036,-4.4036,-4.3986,-4.3873,-4.5199,-4.6522,-4.6544,0.0,0.0,-4.9692,-4.9816,-5.0372,-5.1888,-5.2248,0.0,0.0,0.0,0.0,0.0,0.0,0.0,0.0,0.0,0.0,0.0,0.0,0.0,0.0,0.0,0.0,-5.6294,-5.6347,-5.6401,-5.6401,-5.6401,-5.6044,-5.533,-5.5241,-5.4456,-5.2993,-5.2608,-5.1829,-5.0803,-5.0509,-5.0246,-5.0011,-5.0011,0.0,0.0,-5.0011,-5.0011,-5.0011,-5.0011,-5.0011,-5.0011,-5.0011,-5.0011,-5.0011,0.0,0.0,0.0,0.0,0.0,0.0,0.0,-2.9415,-2.9494,-2.9698,-2.9822,-3.0121,-3.0667,-3.1771,-3.2882,0.0,0.0,0.0,0.0,0.0,0.0,0.0,0.0,0.0,0.0,0.0,0.0,0.0,0.0,0.0,0.0,0.0,0.0,0.0,0.0,0.0,0.0,0.0,0.0,0.0,0.0,0.0,0.0,0.0,0.0,0.0,0.0,0.0,0.0,0.0,0.0,0.0,-4.4005,-4.4005,0.0,0.0,-4.4005,-4.4005,-4.4005,-4.4005,-4.3955,-4.3744,-4.5101,-4.6508,-4.6494,0.0,0.0,-4.9634,-5.004,-5.0689,-5.1876,-5.2498,-5.3015,0.0,0.0,0.0,0.0,0.0,0.0,0.0,0.0,0.0,0.0,0.0,0.0,0.0,0.0,0.0,-5.6401,-5.6401,-5.6401,-5.6401,-5.5937,-5.5526,-5.5205,-5.4277,-5.3422,-5.2572,-5.1988,-5.1352,-5.0564,-5.0453,-5.0246,-5.0011,-5.0011,0.0,0.0,-5.0011,-5.0011,-5.0011,-5.0011,-5.0011,-5.0011,-5.0011,-5.0011,-5.0011,0.0,0.0,0.0,0.0,0.0,0.0,-2.9228,-2.9206,-2.9293,-2.957,-2.9716,-2.9905,-3.0171,-3.0968,-3.1913,-3.3029,0.0,0.0,0.0,0.0,0.0,0.0,0.0,0.0,0.0,0.0,0.0,0.0,0.0,0.0,0.0,0.0,0.0,0.0,0.0,0.0,0.0,0.0,0.0,0.0,0.0,0.0,0.0,0.0,0.0,0.0,0.0,0.0,0.0,0.0,0.0,0.0,0.0,0.0,0.0,0.0,-4.4005,-4.4005,-4.4005,-4.3923,-4.3828,-4.3563,-4.4934,-4.6338,0.0,0.0,0.0,-4.9495,-5.0103,-5.0866,-5.1743,-5.2569,-5.3241,0.0,0.0,-5.3326,0.0,0.0,0.0,0.0,0.0,0.0,0.0,0.0,0.0,0.0,0.0,0.0,0.0,-5.6169,-5.6044,-5.6044,-5.5508,-5.4991,-5.4527,-5.3351,-5.2518,-5.2059,-5.137,-5.0801,-5.0415,-5.0302,-5.0149,-5.0011,-5.0011,0.0,0.0,-5.0011,-5.0011,-5.0011,-5.0011,-5.0011,-5.0011,-5.0011,-5.0011,-5.0011,0.0,0.0,0.0,0.0,0.0,0.0,0.0,-2.9017,-2.9138,-2.9551,-2.9608,-2.9751,-3.0157,-3.093,-3.1382,-3.1343,0.0,0.0,0.0,0.0,0.0,0.0,0.0,0.0,0.0,0.0,0.0,0.0,0.0,0.0,0.0,0.0,0.0,0.0,0.0,0.0,0.0,0.0,0.0,0.0,0.0,0.0,0.0,0.0,0.0,0.0,0.0,0.0,0.0,0.0,0.0,0.0,0.0,0.0,0.0,0.0,-4.4005,-4.4005,-4.4005,-4.3795,-4.3529,-4.3268,-4.4636,-4.5955,0.0,0.0,0.0,-4.9211,-4.9945,-5.0866,-5.1743,-5.2569,-5.3328,-5.3996,-5.3833,0.0,0.0,0.0,0.0,0.0,0.0,0.0,0.0,0.0,0.0,0.0,0.0,0.0,0.0,-5.5651,-5.5223,-5.5223,-5.5205,-5.4474,-5.2921,-5.2572,-5.2024,-5.1298,-5.0692,-5.0415,-5.0415,-5.0109,-4.9993,0.0,0.0,0.0,0.0,-5.0011,-5.0011,-5.0011,-5.0011,-5.0011,-5.0011,-5.0011,-5.0011,-5.0011,0.0,0.0,0.0,0.0,0.0,0.0,0.0,-2.8994,-2.9138,-2.9551,-2.9608,-2.9751,-3.0157,-3.0433,-3.0767,-3.1251,0.0,0.0,0.0,0.0,0.0,0.0,0.0,0.0,0.0,0.0,-3.4908,-3.4908,-3.4908,-3.4908,0.0,0.0,0.0,0.0,0.0,0.0,0.0,0.0,0.0,0.0,0.0,0.0,0.0,0.0,0.0,0.0,0.0,0.0,0.0,0.0,0.0,0.0,0.0,0.0,0.0,0.0,0.0,0.0,-4.4005,-4.3942,-4.3795,-4.3529,-4.4934,-4.6289,-4.6096,0.0,0.0,-4.9179,-5.0232,-5.1241,-5.1502,-5.2677,-5.3646,-5.387,-5.3794,-5.3502,0.0,0.0,0.0,0.0,0.0,0.0,0.0,0.0,0.0,0.0,0.0,0.0,0.0,-5.5348,-5.5205,-5.5205,-5.417,-5.3298,-5.2572,-5.1953,-5.1299,-5.0675,-5.0471,-5.0302,-5.0092,-5.0051,-5.0011,0.0,0.0,0.0,0.0,-5.0011,-5.0011,-5.0011,-5.0011,-5.0011,-5.0062,-5.058,-5.0752,-5.0752,0.0,0.0,0.0,0.0,0.0,0.0,0.0,-2.9246,-2.9334,-2.9662,-2.9716,-2.9839,-3.0157,-3.0171,-3.0352,-3.0811,0.0,0.0,0.0,0.0,0.0,0.0,0.0,0.0,0.0,-3.4908,-3.4908,-3.4908,-3.4908,-3.4908,-3.4908,-3.4945,-3.5018,0.0,0.0,0.0,0.0,0.0,0.0,0.0,0.0,0.0,-3.8158,0.0,0.0,0.0,0.0,0.0,0.0,0.0,0.0,0.0,0.0,0.0,0.0,0.0,-4.4005,0.0,0.0,-4.3942,-4.3795,-4.3664,-4.4967,0.0,0.0,0.0,0.0,0.0,-5.0317,-5.1398,-5.1398,-5.2717,-5.3813,-5.3813,-5.3813,0.0,0.0,0.0,0.0,0.0,0.0,0.0,0.0,0.0,0.0,0.0,0.0,0.0,0.0,-5.4491,-5.4331,-5.4331,-5.3385,-5.2622,-5.1971,-5.1388,-5.0892,-5.0415,-5.0302,-5.0149,-5.0011,-5.0011,-5.0011,0.0,0.0,0.0,0.0,-5.0011,-5.0011,-5.0011,-5.0011,-5.0183,-5.0476,-5.0942,-5.1287,-5.1528,0.0,0.0,0.0,0.0,0.0,0.0,0.0,0.0,0.0,0.0,-2.9888,-2.9972,-3.0171,-3.0142,-3.0113,0.0,0.0,0.0,0.0,0.0,0.0,0.0,0.0,0.0,0.0,-3.4908,-3.487,-3.4813,-3.4889,-3.4889,-3.4832,-3.5015,-3.5122,-3.5138,-3.5251,-3.581,-3.6795,-3.8493,-3.9446,-3.9764,-3.9147,-3.8747,0.0,0.0,0.0,0.0,0.0,0.0,0.0,0.0,0.0,0.0,0.0,0.0,0.0,0.0,0.0,0.0,0.0,0.0,0.0,0.0,0.0,0.0,0.0,0.0,0.0,0.0,0.0,0.0,-5.1398,-5.2717,-5.3813,-5.3813,-5.3813,0.0,0.0,0.0,0.0,0.0,0.0,0.0,0.0,0.0,0.0,0.0,0.0,0.0,0.0,-5.326,-5.285,-5.2796,-5.2796,-5.2286,-5.1298,-5.0928,-5.0657,-5.0359,-5.0109,-5.0011,-5.0011,-5.0011,-5.0011,0.0,0.0,0.0,0.0,-5.0011,-5.0011,-5.0011,-5.0011,-5.0459,-5.1114,-5.1166,-5.1666,-5.2304,0.0,0.0,0.0,0.0,0.0,0.0,0.0,0.0,0.0,0.0,-2.9817,-2.9902,-3.0109,-3.0113,0.0,0.0,0.0,0.0,0.0,0.0,0.0,0.0,0.0,0.0,0.0,-3.4908,-3.4605,-3.3979,-3.4696,-3.4729,-3.4139,-3.4901,-3.5296,-3.5402,-3.5326,-3.6136,-3.7621,-3.8108,-3.8997,-4.0043,-3.9241,-3.8366,0.0,0.0,0.0,0.0,-3.5094,-3.6481,0.0,0.0,0.0,0.0,0.0,0.0,0.0,0.0,-4.4005,-4.4005,-4.4005,0.0,-4.391,-4.391,0.0,0.0,0.0,0.0,0.0,0.0,0.0,0.0,0.0,0.0,0.0,0.0,0.0,0.0,0.0,0.0,0.0,0.0,0.0,0.0,0.0,0.0,0.0,0.0,0.0,0.0,0.0,-5.2975,-5.26,-5.1993,-5.1772,-5.1405,-5.0928,-5.082,-5.0547,-5.0109,-5.0051,-5.0011,-5.0011,-5.0011,-5.0011,0.0,0.0,0.0,-5.0011,-5.0011,-5.0011,-5.0011,-5.0011,-5.0459,-5.1183,-5.1752,-5.2459,-5.3132,0.0,0.0,0.0,0.0,0.0,0.0,0.0,0.0,0.0,0.0,0.0,0.0,0.0,0.0,0.0,0.0,0.0,0.0,0.0,0.0,0.0,0.0,0.0,0.0,-3.4908,-3.4908,-3.4528,-3.3747,-3.4253,-3.4301,-3.3964,-3.4525,-3.5064,-3.5502,-3.5463,-3.6392,-3.7983,-3.8036,-3.8727,-3.9706,-3.8879,0.0,0.0,0.0,0.0,0.0,-3.5019,-3.6215,0.0,-3.8835,-4.0494,-4.2445,0.0,0.0,0.0,0.0,-4.4005,-4.4005,-4.4005,-4.4005,-4.4005,-4.4005,-4.5249,-4.6494,0.0,0.0,0.0,0.0,0.0,0.0,0.0,0.0,0.0,0.0,0.0,0.0,0.0,0.0,0.0,0.0,0.0,0.0,0.0,0.0,0.0,0.0,0.0,0.0,0.0,-5.2332,-5.2136,-5.1708,-5.1436,-5.1123,-5.0803,-5.0657,-5.0415,-5.0011,-5.0011,-5.0011,-5.0011,-5.0011,-5.0011,0.0,0.0,0.0,-5.0011,-5.0011,-5.0011,-5.0011,-5.0011,-5.0666,-5.1666,-5.2063,-5.2925,-5.3908,0.0,0.0,0.0,0.0,0.0,0.0,0.0,0.0,0.0,0.0,0.0,0.0,0.0,0.0,0.0,0.0,0.0,0.0,0.0,0.0,0.0,0.0,0.0,-3.4775,-3.4908,-3.4775,-3.4357,-3.362,-3.3636,-3.3716,-3.3853,-3.4097,-3.4687,-3.5528,-3.5707,-3.6652,-3.8105,-3.8232,-3.8686,-3.9234,-3.843,0.0,0.0,0.0,0.0,0.0,0.0,0.0,0.0,-3.8686,-4.0215,-4.1869,-4.3485,0.0,0.0,0.0,0.0,0.0,-4.4005,-4.4005,-4.4005,-4.4005,-4.5249,-4.6494,0.0,0.0,0.0,0.0,0.0,0.0,0.0,0.0,0.0,0.0,0.0,0.0,0.0,0.0,0.0,0.0,0.0,0.0,0.0,0.0,0.0,0.0,0.0,0.0,0.0,-5.164,-5.164,-5.164,-5.1333,-5.0999,-5.0766,-5.0509,-5.0263,-5.0011,-5.0011,-5.0011,-5.0011,-5.0011,-5.0011,-5.0011,0.0,0.0,-5.0011,-5.0011,-5.0011,-5.0011,-5.0011,-5.0907,-5.2218,-5.2218,-5.3201,-5.4512,0.0,0.0,0.0,0.0,0.0,0.0,0.0,0.0,0.0,0.0,0.0,0.0,0.0,0.0,0.0,0.0,0.0,0.0,0.0,0.0,0.0,0.0,-3.343,-3.4207,-3.4889,-3.4226,-3.352,-3.2781,-3.289,-3.3023,-3.3159,-3.3986,-3.4801,-3.5608,-3.6305,-3.7147,-3.8064,-3.8796,-3.9206,-3.9234,-3.843,0.0,0.0,0.0,0.0,0.0,0.0,0.0,0.0,-3.8686,-4.0215,-4.1869,-4.3485,0.0,0.0,0.0,0.0,0.0,-4.4005,-4.4005,-4.4005,-4.4005,-4.5249,-4.6494,0.0,0.0,0.0,0.0,0.0,0.0,0.0,0.0,0.0,0.0,0.0,0.0,0.0,0.0,0.0,0.0,0.0,0.0,0.0,0.0,0.0,0.0,0.0,0.0,0.0,-5.1487,-5.1333,-5.1333,-5.0855,-5.0509,-5.0453,-5.0397,-5.0263,-5.0011,-5.0011,-5.0011,-5.0011,-5.0011,-5.0011,-5.0011,0.0,-5.0011,-5.0011,-5.0011,-5.0011,-5.0011,-5.0011,-5.0907,-5.2218,-5.2218,-5.3201,-5.4512,0.0,0.0,0.0,0.0,0.0,0.0,0.0,0.0,0.0,0.0,0.0,0.0,0.0,0.0,0.0,0.0,0.0,0.0,0.0,0.0,0.0,-3.2368,-3.324,-3.4074,-3.4889,-3.4112,-3.3367,-3.2703,-3.2302,-3.2423,-3.3079,-3.4455,-3.5287,-3.5639,-3.6453,-3.7276,-3.8073,-3.8477,-3.8656,-3.859,0.0,0.0,0.0,0.0,0.0,0.0,0.0,0.0,0.0,0.0,-4.0215,-4.1869,-4.3485,0.0,0.0,0.0,0.0,0.0,-4.4005,-4.4005,-4.4005,-4.4005,-4.5249,-4.6494,-4.6494,0.0,0.0,0.0,0.0,0.0,0.0,0.0,0.0,0.0,0.0,0.0,0.0,0.0,0.0,0.0,0.0,0.0,0.0,0.0,0.0,0.0,0.0,0.0,0.0,0.0,-5.1298,-5.1298,-5.0729,-5.0415,-5.0415,-5.0263,-5.0109,-5.0011,-5.0011,-5.0011,-5.0011,-5.0011,-5.0011,-5.0011,0.0,-5.0011,-5.0011,-5.0011,-5.0011,-5.0011,-5.0011,-5.0666,-5.1718,-5.2546,-5.3563,-5.4512,0.0,0.0,0.0,0.0,0.0,0.0,0.0,0.0,0.0,0.0,0.0,0.0,0.0,0.0,0.0,0.0,0.0,0.0,0.0,0.0,-3.1572,-3.2368,-3.324,-3.4074,-3.4889,-3.3903,-3.3192,-3.2795,-3.1736,-3.1872,-3.3121,-3.4649,-3.5566,-3.5948,-3.6742,-3.7482,-3.8099,-3.8325,-3.8163,-3.7751,0.0,0.0,0.0,0.0,0.0,0.0,0.0,0.0,0.0,0.0,0.0,0.0,0.0,0.0,0.0,-4.4005,-4.4005,-4.4005,-4.4005,-4.4005,-4.4061,-4.4246,0.0,-4.6494,-4.6494,0.0,0.0,0.0,0.0,0.0,0.0,0.0,0.0,0.0,0.0,0.0,0.0,0.0,0.0,0.0,0.0,0.0,0.0,0.0,0.0,0.0,0.0,0.0,0.0,0.0,-5.107,-5.107,-5.0582,-5.0302,-5.0302,-5.0109,-5.0011,-5.0011,-5.0011,-5.0011,-5.0011,-5.0011,-5.0011,-5.0011,-5.0011,-5.0011,-5.0011,-5.0011,-5.0011,-5.0011,-5.0011,-5.0562,-5.1528,-5.2908,-5.3873,-5.4512,0.0,0.0,0.0,0.0,0.0,0.0,0.0,0.0,0.0,0.0,0.0,0.0,0.0,0.0,0.0,0.0,0.0,0.0,0.0,0.0,-3.1572,-3.2368,-3.324,-3.4074,-3.4889,-3.3316,-3.2583,-3.2795,-3.118,-3.1314,-3.3121,-3.3989,-3.5253,-3.6837,-3.7649,-3.8041,-3.8151,-3.8968,-3.8382,-3.6889,-3.6832,0.0,0.0,0.0,0.0,0.0,0.0,0.0,0.0,0.0,0.0,0.0,0.0,0.0,-4.4005,-4.4005,-4.4005,-4.4005,-4.4005,-4.4005,-4.4191,-4.4989,0.0,0.0,-4.6494,-4.7738,0.0,0.0,0.0,0.0,0.0,0.0,0.0,0.0,0.0,0.0,0.0,0.0,0.0,0.0,0.0,0.0,0.0,0.0,0.0,0.0,0.0,0.0,0.0,0.0,-5.0453,-5.0453,-5.0149,-5.0011,-5.0011,-5.0011,-5.0011,-5.0011,-5.0011,-5.0011,-5.0011,-5.0011,-5.0011,-5.0011,-5.0011,-5.0011,-5.0011,-5.0011,-5.0011,-5.0011,-5.0011,-5.0873,-5.2235,-5.308,-5.3873,-5.4512,0.0,0.0,0.0,0.0,0.0,0.0,0.0,0.0,0.0,0.0,0.0,0.0,0.0,0.0,0.0,0.0,0.0,0.0,0.0,0.0,-3.2084,-3.2387,-3.3714,-3.4358,-3.4169,-3.3083,-3.2359,-3.1985,-3.1487,-3.1868,-3.3139,-3.448,-3.5724,-3.6909,-3.828,-3.864,-3.8177,-3.8473,-3.79,-3.6742,-3.6203,-3.5778,0.0,0.0,0.0,0.0,0.0,0.0,0.0,0.0,-4.1146,-4.1898,0.0,-4.4121,-4.4005,-4.4005,-4.4005,-4.4005,-4.4005,-4.4005,-4.4209,-4.5082,0.0,0.0,0.0,0.0,0.0,0.0,0.0,0.0,0.0,0.0,0.0,0.0,0.0,0.0,0.0,0.0,0.0,0.0,0.0,0.0,0.0,0.0,0.0,0.0,0.0,0.0,0.0,-5.0471,-5.0415,-5.0415,-5.0166,-5.0011,-5.0011,-5.0011,-5.0011,-5.0011,-5.0011,-5.0011,-5.0011,-5.0011,-5.0011,-5.0011,-5.0011,-5.0011,-5.0011,-5.0011,-5.0011,-5.0011,-5.0011,-5.0631,-5.1632,-5.239,-5.3166,-5.3891,0.0,0.0,0.0,0.0,0.0,0.0,0.0,0.0,0.0,0.0,0.0,0.0,0.0,0.0,0.0,0.0,0.0,0.0,0.0,-3.1629,-3.252,-3.2804,-3.415,-3.4396,-3.3316,-3.283,-3.2237,-3.147,-3.1395,-3.2092,-3.3492,-3.4662,-3.606,-3.7662,-3.8569,-3.8698,-3.8189,-3.7823,-3.7193,-3.6331,-3.5746,-3.5495,0.0,0.0,0.0,0.0,0.0,0.0,0.0,0.0,-4.1405,0.0,0.0,0.0,0.0,-4.4005,-4.3819,-4.367,-4.3931,-4.3819,-4.3949,0.0,0.0,0.0,0.0,0.0,0.0,0.0,0.0,0.0,0.0,0.0,0.0,0.0,0.0,0.0,0.0,0.0,0.0,0.0,0.0,0.0,0.0,0.0,0.0,0.0,0.0,0.0,0.0,-5.0246,-5.0246,-5.0246,-5.0109,-5.0011,-5.0011,-5.0011,-5.0011,-5.0011,-5.0011,-5.0011,-5.0011,-5.0011,-5.0011,-5.0011,-5.0011,-5.0011,-5.0011,-5.0011,-5.0011,-5.0011,-5.0011,-5.0459,-5.12,-5.1942,-5.2718,-5.3511,0.0,0.0,0.0,0.0,0.0,0.0,0.0,0.0,0.0,0.0,0.0,0.0,0.0,0.0,0.0,0.0,0.0,0.0,0.0,-3.197,-3.2804,-3.3657,-3.4472,-3.4112,-3.2444,-3.2507,-3.2172,-3.1405,-3.0727,-3.1742,-3.4306,-3.4318,-3.6137,-3.9348,-3.8479,-3.8144,-3.8131,-3.7186,-3.6293,-3.5502,-3.5502,-3.5495,-3.5493,0.0,0.0,0.0,0.0,0.0,0.0,0.0,-4.1995,0.0,0.0,0.0,0.0,0.0,-4.3448,-4.2983,-4.3782,-4.3429,0.0,0.0,0.0,0.0,0.0,0.0,0.0,0.0,0.0,0.0,0.0,0.0,0.0,0.0,0.0,0.0,0.0,0.0,0.0,0.0,0.0,0.0,0.0,0.0,0.0,0.0,0.0,0.0,0.0,-5.0011,-5.0011,-5.0011,-5.0011,-5.0011,-5.0011,-5.0011,-5.0011,-5.0011,-5.0011,-5.0011,-5.0011,-5.0011,-5.0011,-5.0011,-5.0011,-5.0011,-5.0011,-5.0011,-5.0011,-5.0011,-5.0011,-5.0459,-5.1183,-5.1942,-5.2718,-5.3494,0.0,0.0,0.0,0.0,0.0,0.0,0.0,0.0,0.0,0.0,0.0,0.0,0.0,0.0,0.0,0.0,0.0,0.0,0.0,-3.2539,-3.343,-3.3695,-3.4472,-3.4112,-3.2444,-3.1235,-3.0579,-3.0496,-3.0948,-3.2144,-3.3972,-3.5239,-3.6767,-3.843,-3.8744,-3.8285,-3.7262,-3.6942,-3.6232,-3.5292,-3.5435,-3.5412,-3.535,0.0,0.0,0.0,0.0,0.0,0.0,0.0,0.0,0.0,0.0,0.0,0.0,-4.4005,-4.3838,-4.3708,-4.3949,0.0,0.0,0.0,0.0,0.0,0.0,0.0,0.0,0.0,0.0,0.0,0.0,0.0,0.0,0.0,0.0,0.0,0.0,0.0,0.0,0.0,0.0,0.0,0.0,0.0,0.0,0.0,0.0,0.0,0.0,-5.0011,-5.0011,-5.0011,-5.0011,-5.0011,-5.0011,-5.0011,-5.0011,-5.0011,-5.0011,-5.0011,-5.0011,-5.0011,-5.0011,-5.0011,-5.0011,-5.0011,-5.0011,-5.0011,-5.0011,-5.0011,-5.0011,-5.0131,-5.0493,-5.1752,-5.2373,-5.2753,0.0,0.0,0.0,0.0,0.0,0.0,0.0,0.0,0.0,0.0,0.0,0.0,0.0,0.0,0.0,0.0,0.0,0.0,0.0,0.0,-3.3828,-3.4112,-3.4624,-3.4093,-3.2391,-3.0692,-3.0009,-3.0408,-3.1378,-3.2496,-3.377,-3.5672,-3.7183,-3.8262,-3.817,-3.7603,-3.6716,-3.6243,-3.5729,-3.5242,-3.5665,-3.5768,-3.5766,0.0,0.0,0.0,0.0,0.0,0.0,0.0,0.0,0.0,0.0,0.0,0.0,-4.3615,-4.3299,-4.3113,-4.3448,0.0,0.0,0.0,0.0,0.0,0.0,0.0,0.0,0.0,0.0,0.0,0.0,0.0,0.0,0.0,0.0,0.0,0.0,0.0,0.0,0.0,0.0,0.0,0.0,0.0,0.0,0.0,0.0,0.0,0.0,-5.0011,-5.0011,-5.0011,-5.0011,-5.0011,-5.0011,-5.0011,-5.0011,-5.0011,-5.0011,-5.0011,-5.0011,-5.0011,-5.0011,-5.0011,-5.0011,-5.0011,-5.0011,-5.0011,-5.0011,-5.0011,-5.0011,-5.0011,-5.0149,-5.1338,-5.1959,-5.239,0.0,0.0,0.0,0.0,0.0,0.0,0.0,0.0,0.0,0.0,0.0,0.0,0.0,0.0,0.0,0.0,0.0,0.0,0.0,0.0,-3.4093,-3.4751,-3.4698,-3.3885,-3.2204,-3.0676,-3.0226,-3.0903,-3.1995,-3.2914,-3.3756,-3.5802,-3.739,-3.845,-3.7079,-3.6431,-3.6332,-3.5416,-3.5132,-3.5381,-3.6184,-3.6528,-3.6608,-3.7408,0.0,0.0,0.0,0.0,0.0,0.0,0.0,0.0,0.0,0.0,-4.3745,-4.3002,-4.2277,-4.1869,0.0,0.0,0.0,0.0,0.0,0.0,0.0,0.0,0.0,0.0,0.0,0.0,0.0,0.0,0.0,0.0,0.0,0.0,0.0,0.0,0.0,0.0,0.0,0.0,0.0,0.0,0.0,0.0,0.0,0.0,0.0,-5.0011,-5.0011,-5.0011,-5.0011,-5.0011,-5.0011,-5.0011,-5.0011,-5.0011,-5.0011,-5.0011,-5.0011,-5.0011,-5.0011,-5.0011,-5.0011,-5.0011,-5.0011,-5.0011,-5.0011,-5.0011,-5.0011,-5.0011,-5.0097,-5.0838,-5.1528,-5.2218,0.0,0.0,0.0,0.0,0.0,0.0,0.0,0.0,0.0,0.0,0.0,0.0,0.0,0.0,0.0,0.0,0.0,0.0,0.0,0.0,-3.462,-3.4788,-3.3446,-3.2221,-3.1224,-3.0847,-3.0772,-3.0997,-3.2618,-3.379,-3.4489,-3.6328,-3.7147,-3.7034,-3.6387,-3.5874,-3.5503,-3.59,-3.6093,-3.6203,-3.7007,-3.7368,-3.7519,-3.8323,-3.8744,0.0,0.0,0.0,0.0,0.0,0.0,0.0,-4.3823,-4.362,-4.302,-4.2853,-4.2686,-4.2575,0.0,0.0,0.0,0.0,0.0,0.0,0.0,0.0,0.0,0.0,0.0,0.0,0.0,0.0,0.0,0.0,0.0,0.0,0.0,0.0,0.0,0.0,0.0,0.0,0.0,0.0,0.0,0.0,0.0,0.0,-5.0011,-5.0011,-5.0011,-5.0011,-5.0011,-5.0011,-5.0011,-5.0011,-5.0011,0.0,-5.0011,-5.0011,-5.0011,-5.0011,-5.0011,-5.0011,-5.0011,-5.0011,-5.0011,-5.0011,-5.0011,-5.0011,-5.0011,-5.0011,-5.0097,-5.0838,-5.1218,-5.1459,0.0,0.0,0.0,0.0,0.0,0.0,0.0,0.0,0.0,0.0,0.0,0.0,0.0,0.0,0.0,0.0,0.0,0.0,0.0,0.0,0.0,-3.4162,-3.284,-3.1898,-3.1486,-3.113,-3.1563,-3.2827,-3.4207,0.0,0.0,0.0,0.0,-3.5452,-3.5352,-3.5378,-3.5496,-3.5833,-3.6249,-3.6785,-3.7699,-3.8099,-3.8213,-3.9013,-3.9336,-3.9411,-4.0163,0.0,0.0,0.0,0.0,0.0,0.0,0.0,-4.2649,-4.1869,-4.1924,-4.2222,0.0,0.0,0.0,0.0,0.0,0.0,0.0,0.0,0.0,0.0,0.0,0.0,0.0,0.0,0.0,0.0,0.0,0.0,0.0,0.0,0.0,0.0,0.0,0.0,0.0,0.0,0.0,0.0,0.0,-5.0011,-5.0011,-5.0011,-5.0011,-5.0011,-5.0011,-5.0011,-5.0011,-5.0011,-5.0011,-5.0011,-5.0011,-5.0011,-5.0011,-5.0011,-5.0011,-5.0011,-5.0011,-5.0011,-5.0011,-5.0011,-5.0011,-5.0011,-5.0011,-5.0011,-5.0062,-5.0442,-5.0804,-5.1166,0.0,0.0,0.0,0.0,0.0,0.0,0.0,0.0,0.0,0.0,0.0,0.0,0.0,0.0,0.0,0.0,0.0,0.0,0.0,0.0,0.0,0.0,-3.2611,-3.218,-3.1899,-3.1582,-3.2524,-3.4769,0.0,0.0,0.0,0.0,0.0,-3.422,0.0,-3.513,-3.581,-3.5936,-3.6483,-3.7374,-3.8364,-3.8791,-3.8866,-3.9507,-3.9775,-3.9889,-4.0484,-4.0797,-4.1109,-4.2462,0.0,0.0,0.0,0.0,-4.211,-4.0791,-4.0958,-4.159,0.0,0.0,0.0,0.0,0.0,0.0,0.0,0.0,0.0,0.0,0.0,0.0,0.0,0.0,0.0,0.0,0.0,0.0,0.0,0.0,0.0,0.0,0.0,0.0,0.0,0.0,0.0,0.0,0.0,-5.0011,-5.0011,-5.0011,-5.0011,-5.0011,-5.0011,-5.0011,-5.0011,-5.0011,-5.0011,-5.0011,-5.0011,-5.0011,-5.0011,-5.0011,-5.0011,-5.0011,-5.0011,-5.0011,-5.0011,-5.0011,-5.0011,-5.0011,-5.0011,-5.0011,-5.0011,-4.9935,-5.0314,-5.0848,0.0,0.0,0.0,0.0,0.0,0.0,0.0,0.0,0.0,0.0,0.0,0.0,0.0,0.0,0.0,0.0,0.0,0.0,-3.4386,0.0,0.0,-3.2349,-3.2772,-3.2435,-3.1091,-3.2408,-3.3592,-3.4645,0.0,0.0,0.0,0.0,0.0,-3.4221,0.0,0.0,-3.5897,-3.7319,-3.8093,-3.8423,-3.9096,-3.9486,-3.9624,-3.9571,-3.9656,-3.9889,-4.0484,-4.1128,-4.1758,-4.1791,-4.2251,0.0,0.0,0.0,-4.068,-4.0457,-4.0958,0.0,0.0,0.0,0.0,0.0,0.0,0.0,0.0,0.0,0.0,0.0,0.0,0.0,0.0,0.0,0.0,0.0,0.0,0.0,0.0,0.0,0.0,0.0,0.0,0.0,0.0,0.0,0.0,0.0,-5.0011,-5.0011,-5.0011,-5.0011,-5.0011,-5.0011,-5.0011,-5.0011,-5.0011,-5.0011,-5.0011,-5.0011,-5.0011,-5.0011,-5.0011,-5.0011,-5.0011,-5.0011,-5.0011,-5.0011,-5.0011,-5.0011,-5.0011,-5.0011,-5.0011,-5.0011,-5.0011,-4.9784,-4.9777,-4.9862,0.0,0.0,0.0,0.0,0.0,0.0,0.0,0.0,0.0,0.0,0.0,0.0,0.0,0.0,0.0,-3.3125,-3.3788,-3.4221,-3.4269,-3.434,-3.3885,-3.2772,-3.3135,-3.3026,-3.2312,-3.35,-3.4741,0.0,0.0,0.0,0.0,-3.8509,-3.7436,0.0,0.0,0.0,0.0,-3.776,-3.8396,-3.8927,-3.9333,-3.9556,-3.9632,-3.9532,-3.9537,-3.9722,-4.033,-4.0765,-4.1111,-4.1481,-4.1832,-4.198,-4.1181,0.0,0.0,0.0,-4.0958,0.0,0.0,0.0,0.0,0.0,0.0,0.0,0.0,0.0,0.0,0.0,0.0,0.0,0.0,0.0,0.0,0.0,0.0,0.0,0.0,0.0,0.0,0.0,0.0,0.0,0.0,0.0,0.0,0.0,-5.0011,-5.0011,-5.0011,-5.0011,-5.0011,-5.0011,-5.0011,-5.0011,-5.0011,-5.0011,-5.0011,-5.0011,-5.0011,-5.0011,-5.0011,-5.0011,-5.0011,-5.0011,-5.0011,-5.0011,-5.0011,-5.0011,-5.0011,-5.0011,-4.986,-4.9842,-4.9784,-4.9666,-4.959,-4.959,0.0,0.0,0.0,0.0,0.0,0.0,0.0,0.0,0.0,0.0,0.0,0.0,0.0,0.0,0.0,0.0,-3.3714,-3.3701,-3.3929,-3.4228,-3.4054,-3.3296,-3.3592,-3.3766,-3.3744,-3.4534,0.0,0.0,0.0,0.0,-3.9402,-3.9406,-3.8648,0.0,-3.64,0.0,0.0,0.0,0.0,0.0,-3.9324,-3.9401,-3.9401,-3.9401,-3.9401,-3.9488,-4.0151,-4.0401,-4.0476,-4.1089,-4.1293,-4.1144,-4.0327,-4.0067,0.0,0.0,0.0,0.0,0.0,0.0,0.0,0.0,0.0,0.0,0.0,0.0,0.0,0.0,0.0,0.0,0.0,0.0,0.0,0.0,0.0,0.0,0.0,0.0,0.0,0.0,0.0,0.0,0.0,0.0,0.0,0.0,-5.0011,-5.0011,-5.0011,-5.0011,-5.0011,-5.0011,-5.0011,-5.0011,-5.0011,-5.0011,-5.0011,-5.0011,-4.9935,-4.9935,-4.9935,-4.9877,-4.9877,-4.9877,-4.9935,-4.9935,-4.9935,-4.9877,-4.9877,-4.9877,-4.9725,-4.9649,-4.9649,-4.9471,-4.9411,-4.9428,0.0,0.0,0.0,0.0,0.0,0.0,0.0,0.0,0.0,0.0,0.0,0.0,-3.2846,-3.3086,-3.3146,-3.3069,-3.2358,-3.2315,-3.319,-3.3956,-3.412,-3.3504,-3.4158,0.0,-3.4615,-3.5229,0.0,0.0,0.0,0.0,-3.9129,-3.9109,-3.9072,-3.8934,-3.7867,-3.757,-3.7949,0.0,0.0,0.0,0.0,-3.9129,-3.9129,-3.9129,-3.9129,-3.924,0.0,-4.0401,-4.0401,-4.0438,-4.0457,-4.0308,-3.9435,-3.9175,-3.9324,0.0,0.0,0.0,0.0,0.0,0.0,0.0,0.0,0.0,0.0,0.0,0.0,0.0,0.0,0.0,0.0,0.0,0.0,0.0,0.0,0.0,0.0,0.0,0.0,0.0,0.0,0.0,0.0,0.0,0.0,0.0,-5.0011,-5.0011,-5.0011,-5.0011,-5.0011,-5.0011,-5.0011,-5.0011,-5.0011,-5.0011,-5.0011,-5.0011,-4.9784,-4.9708,-4.9708,-4.959,-4.9547,-4.9547,-4.9649,-4.9708,-4.9708,-4.9607,-4.9547,-4.9547,-4.953,-4.9488,-4.9488,-4.929,-4.9229,-4.9168,0.0,0.0,0.0,0.0,0.0,0.0,0.0,0.0,0.0,0.0,0.0,0.0,0.0,-3.3036,-3.3036,-3.299,-3.3213,-3.3478,-3.3822,-3.419,-3.43,-3.4086,-3.4918,-3.5349,-3.5285,-3.6539,0.0,0.0,0.0,-3.8729,-3.9101,-3.9091,-3.9091,-3.9045,-3.7978,-3.7941,-3.8692,-3.8971,0.0,0.0,0.0,0.0,0.0,0.0,0.0,0.0,0.0,0.0,0.0,-3.9565,-3.9565,-3.951,-3.9194,-3.9101,-3.9361,-4.0754,-4.2909,-4.5082,-4.6197,0.0,0.0,0.0,0.0,0.0,0.0,0.0,0.0,0.0,0.0,0.0,0.0,0.0,0.0,0.0,0.0,0.0,0.0,0.0,0.0,0.0,0.0,0.0,0.0,0.0,0.0,0.0,0.0,-5.0011,-5.0011,-5.0011,-5.0011,-5.0011,-5.0011,-5.0011,-5.0011,-5.0011,-4.9935,-4.9784,-4.9708,-4.9649,-4.959,-4.9547,-4.9488,-4.9488,-4.9411,-4.9471,-4.959,-4.9547,-4.9488,-4.9488,-4.935,-4.929,-4.929,-4.9124,-4.9063,-4.9063,0.0,0.0,0.0,0.0,0.0,0.0,0.0,0.0,0.0,0.0,0.0,0.0,0.0,0.0,-3.2878,-3.2618,-3.3324,-3.3812,-3.386,-3.4452,-3.482,-3.4884,-3.5693,-3.625,-3.644,-3.7212,-3.7843,0.0,0.0,0.0,0.0,-3.9101,-3.9101,-3.9064,-3.8377,-3.8451,0.0,0.0,0.0,-3.9101,0.0,0.0,-3.9101,0.0,0.0,0.0,0.0,0.0,0.0,0.0,-3.9101,-3.9101,-3.9101,-3.9677,-4.0568,-4.1653,-4.3918,-4.6201,-4.6687,0.0,0.0,0.0,0.0,0.0,0.0,0.0,0.0,0.0,0.0,0.0,0.0,0.0,0.0,0.0,0.0,0.0,0.0,0.0,0.0,0.0,0.0,0.0,0.0,0.0,0.0,0.0,0.0,0.0,-5.0011,-5.0011,-4.9935,-4.9918,-4.9935,-4.9952,-4.9818,-4.9877,-4.9801,-4.9649,-4.959,-4.9471,-4.9428,-4.9367,-4.9307,-4.929,-4.9168,-4.9229,-4.9428,-4.9367,-4.9307,-4.9307,-4.9185,-4.9107,-4.9107,-4.9063,-4.9001,-4.9001,0.0,0.0,0.0,0.0,0.0,0.0,0.0,0.0,0.0,0.0,0.0,0.0,0.0,0.0,0.0,-3.1931,-3.2581,-3.3092,-3.3265,-3.4703,-3.5605,-3.5743,-3.6489,-3.7237,-3.804,-3.721,-3.7541,0.0,0.0,0.0,0.0,0.0,-3.9101,-3.9101,-3.9101,-3.9101,-3.9101,0.0,-3.9101,-3.9101,0.0,-3.9101,-3.9101,0.0,0.0,0.0,-3.9101,-3.9101,0.0,-3.9101,0.0,0.0,0.0,0.0,-4.2804,-4.2798,-4.5064,-4.7583,0.0,0.0,0.0,0.0,0.0,0.0,0.0,0.0,0.0,0.0,0.0,0.0,0.0,0.0,0.0,0.0,0.0,0.0,0.0,0.0,0.0,0.0,0.0,0.0,0.0,0.0,0.0,0.0,-5.0011,-5.0011,-5.0011,-5.0011,-4.9918,-4.9708,-4.986,-4.9818,-4.9488,-4.9649,-4.9649,-4.9488,-4.929,-4.9229,-4.9168,-4.9063,-4.9001,-4.9001,-4.9001,-4.9046,-4.9168,-4.9063,-4.9001,-4.9001,-4.9001,-4.9001,-4.9001,-4.9001,-4.9001,-4.9001,0.0,0.0,0.0,0.0,0.0,0.0,0.0,0.0,0.0,0.0,0.0,0.0,-3.3103,-3.2877,-3.2921,-3.329,-3.366,-3.4056,-3.4548,-3.4456,-3.4382,-3.4432,-3.5795,-3.6719,-3.7073,-3.7976,-3.8655,-3.9101,0.0,0.0,0.0,0.0,0.0,0.0,-3.9101,-3.9101,-3.9101,-3.9101,0.0,0.0,-3.9101,-3.9101,0.0,0.0,0.0,0.0,0.0,-3.9036,-3.9007,0.0,-3.895,-3.9153,0.0,0.0,-4.3629,-4.4206,-4.5833,-4.7441,-4.7405,0.0,0.0,0.0,0.0,0.0,0.0,0.0,0.0,0.0,0.0,0.0,0.0,0.0,0.0,0.0,0.0,0.0,0.0,0.0,0.0,0.0,0.0,0.0,0.0,0.0,0.0,0.0,-5.0011,-5.0011,-5.0011,-4.986,-4.9725,-4.953,-4.9607,-4.9607,-4.9488,-4.9547,-4.9471,-4.929,-4.9229,-4.9168,-4.9063,-4.9001,-4.9001,-4.9001,-4.9001,-4.9001,-4.9063,-4.9001,-4.9001,-4.9001,-4.9001,-4.9001,-4.9001,-4.9001,-4.9001,-4.9001,0.0,0.0,0.0,0.0,0.0,0.0,0.0,0.0,0.0,0.0,0.0,0.0,-3.3533,-3.324,-3.3395,-3.4183,-3.4426,-3.47,-3.4917,-3.522,-3.5349,-3.5247,-3.6512,-3.7327,-3.7572,-3.8146,-3.8665,-3.9101,0.0,0.0,0.0,0.0,0.0,0.0,0.0,0.0,0.0,0.0,0.0,0.0,-3.9101,0.0,0.0,-3.9064,-3.9045,0.0,0.0,0.0,-3.9412,-3.9021,-3.9113,0.0,0.0,0.0,0.0,-4.5213,-4.6596,-4.785,-4.7795,0.0,0.0,0.0,0.0,0.0,-4.8306,-4.8306,0.0,0.0,0.0,0.0,0.0,0.0,0.0,0.0,0.0,0.0,0.0,0.0,0.0,0.0,0.0,0.0,0.0,-4.9045,-4.9183,-4.9493,-4.9453,-4.9533,-4.9842,-4.9784,-4.9649,-4.9488,-4.9488,-4.9428,-4.9307,-4.9367,-4.929,-4.9124,-4.9124,-4.9063,-4.9001,-4.9001,-4.9001,-4.9001,-4.9001,-4.9001,-4.9001,-4.9001,-4.9001,-4.9001,-4.9001,-4.9001,-4.9001,-4.9001,-4.9001,-4.9001,0.0,0.0,0.0,0.0,0.0,0.0,0.0,0.0,0.0,0.0,0.0,-3.3967,-3.4732,-3.4204,-3.4113,-3.4877,-3.509,-3.5119,-3.4932,-3.6417,-3.7179,-3.6934,-3.7767,-3.835,-3.8615,-3.7952,-3.8058,-3.8998,0.0,0.0,0.0,0.0,0.0,0.0,0.0,0.0,0.0,0.0,0.0,-3.9073,-3.9073,-3.9064,0.0,0.0,-3.9024,0.0,-3.9039,-3.9557,-4.0099,-3.9379,-3.9674,0.0,0.0,0.0,0.0,0.0,-4.7316,0.0,0.0,0.0,0.0,0.0,0.0,0.0,-4.8306,-4.8306,-4.8306,0.0,0.0,0.0,0.0,0.0,0.0,0.0,0.0,0.0,0.0,0.0,0.0,0.0,0.0,0.0,-4.77,-4.7717,-4.7993,-4.8648,-4.8615,-4.8884,-4.9478,-4.9598,-4.959,-4.9428,-4.9428,-4.9307,-4.9001,-4.9107,-4.9107,-4.9001,-4.9001,-4.9001,-4.9001,-4.9001,-4.9001,-4.9001,-4.9001,-4.9001,-4.9001,-4.9001,-4.9001,-4.9001,-4.9001,-4.9001,-4.9001,-4.9001,-4.9001,-4.9001,-3.2616,0.0,0.0,0.0,0.0,0.0,0.0,0.0,0.0,0.0,0.0,-3.4563,-3.5358,-3.5304,-3.5539,-3.6298,-3.5994,-3.5933,-3.6367,-3.6146,-3.5965,-3.5901,-3.666,-3.7207,-3.7442,-3.7935,-3.8314,-3.8541,0.0,0.0,0.0,0.0,0.0,0.0,0.0,0.0,0.0,0.0,0.0,-3.895,-3.9007,0.0,-3.8939,-3.8939,-3.9298,-3.9871,-3.9798,-4.0314,-4.0946,0.0,-4.1199,-4.2136,0.0,0.0,0.0,0.0,0.0,0.0,0.0,0.0,0.0,0.0,0.0,0.0,-4.8306,-4.8306,-4.8306,0.0,0.0,0.0,0.0,0.0,0.0,0.0,0.0,0.0,0.0,0.0,0.0,0.0,0.0,0.0,-4.7648,-4.7717,-4.7769,-4.7924,-4.8323,-4.8545,-4.843,-4.8967,-4.9229,-4.9124,-4.9124,-4.9063,-4.9001,-4.9001,-4.9001,-4.9001,-4.9001,-4.9001,-4.9001,-4.9001,-4.9001,-4.9001,-4.9001,-4.9001,-4.9001,-4.9001,-4.9001,-4.9001,-4.9001,-4.9001,-4.9001,-4.9001,-4.9001,-4.9001,-3.2916,0.0,0.0,0.0,0.0,0.0,0.0,0.0,0.0,0.0,0.0,-3.5249,-3.5926,-3.5756,-3.5861,-3.6552,-3.6447,-3.6407,-3.6606,-3.6726,-3.6744,-3.6608,-3.6985,-3.732,-3.7551,-3.7969,-3.8252,-3.8382,0.0,0.0,0.0,0.0,0.0,0.0,0.0,0.0,0.0,0.0,-3.8566,-3.8566,-3.8844,0.0,-3.8888,-3.9312,-3.9669,-4.0044,-4.0404,-4.0827,-4.1287,-4.2029,-4.2561,0.0,0.0,-4.5865,-4.6746,0.0,-4.8306,-4.8306,0.0,0.0,0.0,-4.8306,0.0,0.0,0.0,-4.8306,-4.821,0.0,0.0,0.0,0.0,0.0,0.0,0.0,0.0,0.0,0.0,0.0,0.0,0.0,0.0,0.0,-4.6544,-4.6562,-4.668,-4.6876,-4.7557,-4.8025,-4.8073,-4.8447,-4.8778,-4.9107,-4.9063,-4.9001,-4.9001,-4.9001,-4.9001,-4.9001,-4.9001,-4.9001,-4.9001,-4.9001,-4.9001,-4.9001,-4.9001,-4.9001,-4.9001,-4.9001,-4.9001,-4.9001,-4.9001,-4.9001,-4.9001,-4.9001,-4.9001,-4.9001,-3.2916,0.0,0.0,0.0,0.0,0.0,0.0,0.0,0.0,0.0,0.0,0.0,0.0,0.0,0.0,-3.6595,-3.6823,-3.6858,0.0,0.0,0.0,-3.754,-3.754,-3.7649,-3.7915,-3.788,-3.7984,-3.8186,0.0,0.0,0.0,0.0,0.0,0.0,0.0,0.0,0.0,0.0,0.0,-3.8099,0.0,-3.8903,-3.9074,-3.9822,-4.0194,-4.0487,-4.1342,-4.1604,-4.1754,-4.3321,-4.3832,-4.4089,-4.5627,-4.6506,0.0,0.0,0.0,0.0,0.0,0.0,0.0,0.0,0.0,-4.8035,0.0,0.0,0.0,0.0,0.0,0.0,0.0,0.0,0.0,0.0,0.0,0.0,0.0,0.0,0.0,0.0,0.0,0.0,0.0,-4.5318,-4.5468,-4.5794,-4.6601,-4.7295,-4.7852,-4.7963,-4.8388,-4.9152,-4.9063,-4.9001,-4.9001,-4.9001,-4.9001,-4.9001,-4.9001,-4.9001,-4.9001,-4.9001,-4.9001,-4.9001,-4.9001,-4.9001,-4.9001,-4.9001,-4.9001,-4.9001,-4.9001,-4.9001,-4.9001,-4.9001,-4.9001,-4.9001,-3.2916,-3.2916,0.0,0.0,0.0,0.0,0.0,0.0,0.0,0.0,0.0,0.0,0.0,0.0,0.0,0.0,0.0,0.0,-3.7193,0.0,0.0,-3.7334,-3.7334,-3.7447,-3.7649,-3.7466,-3.741,-3.7429,0.0,0.0,0.0,0.0,0.0,0.0,-3.7376,0.0,0.0,0.0,-3.7614,0.0,-3.8347,-3.9081,0.0,-4.0195,-4.1063,-4.2179,-4.3268,-4.3412,-4.3256,0.0,-4.5022,-4.5264,0.0,-4.6736,-4.6699,0.0,0.0,0.0,0.0,0.0,0.0,0.0,-4.7044,0.0,0.0,0.0,0.0,-4.6999,0.0,0.0,0.0,0.0,0.0,0.0,0.0,0.0,0.0,0.0,0.0,0.0,0.0,0.0,0.0,-4.514,-4.5029,-4.495,-4.5665,-4.6299,-4.6929,-4.7547,-4.824,-4.8984,-4.9001,-4.9001,-4.9001,-4.9001,-4.9001,-4.9001,-4.9001,-4.9001,-4.9001,-4.9001,-4.9001,-4.9001,-4.9001,-4.9001,-4.9001,-4.9001,-4.9001,-4.9001,-4.9001,-4.9001,-4.9001,-4.9001,-4.9001,-4.9001,-3.3094,-3.3277,0.0,0.0,0.0,0.0,0.0,0.0,0.0,0.0,0.0,0.0,0.0,0.0,0.0,0.0,0.0,-3.722,0.0,0.0,0.0,0.0,0.0,-3.7182,-3.7241,-3.7182,-3.7143,-3.7143,-3.7027,0.0,0.0,0.0,0.0,0.0,-3.6956,0.0,-3.6878,0.0,0.0,0.0,0.0,0.0,0.0,-4.0703,-4.1641,-4.3018,-4.3953,-4.4139,-4.4064,0.0,-4.5114,0.0,0.0,0.0,0.0,0.0,0.0,0.0,0.0,0.0,0.0,0.0,0.0,0.0,-4.6908,0.0,-4.6817,0.0,0.0,0.0,0.0,0.0,0.0,0.0,0.0,0.0,0.0,0.0,0.0,0.0,0.0,0.0,0.0,0.0,0.0,0.0,-4.5026,-4.5422,-4.6126,-4.687,-4.7614,-4.8359,-4.8781,-4.9001,-4.9001,-4.9001,-4.9001,-4.9001,-4.9001,-4.9001,-4.9001,-4.9001,-4.9001,-4.9001,-4.9001,-4.9001,-4.9001,-4.9001,-4.9001,-4.9001,-4.9001,-4.9001,-4.9001,-4.9001,-4.9001,-4.9001,-3.3575,0.0,0.0,0.0,0.0,0.0,0.0,0.0,0.0,0.0,0.0,0.0,-3.722,-3.722,0.0,0.0,-3.6987,-3.6987,0.0,0.0,-3.6908,-3.6908,-3.6908,0.0,0.0,0.0,-3.6908,-3.6908,0.0,0.0,0.0,0.0,0.0,0.0,0.0,-3.6887,-3.6723,0.0,0.0,-3.8325,-3.9695,-4.0639,-4.129,-4.154,-4.2334,-4.3395,-4.428,-4.4536,-4.4481,-4.483,-4.5364,0.0,-4.6007,0.0,0.0,0.0,0.0,0.0,-4.6678,0.0,0.0,0.0,0.0,0.0,0.0,0.0,0.0,0.0,0.0,0.0,0.0,0.0,0.0,0.0,0.0,0.0,0.0,0.0,0.0,0.0,0.0,0.0,0.0,0.0,0.0,-4.4737,-4.4626,-4.4908,-4.5669,-4.6397,-4.7141,-4.7902,-4.8629,-4.9001,-4.9001,-4.9001,-4.9001,-4.9001,-4.9001,-4.9001,-4.9001,-4.9001,-4.9001,-4.9001,-4.9001,-4.9001,-4.9001,-4.9001,-4.9001,-4.9001,-4.9001,-4.9001,-4.9001,-4.9001,-4.9001,-4.9001,-3.4546,-3.4872,0.0,0.0,0.0,0.0,0.0,0.0,0.0,0.0,0.0,0.0,0.0,0.0,0.0,0.0,0.0,-3.6908,-3.6742,0.0,-3.6702,-3.6702,-3.6702,-3.6806,0.0,0.0,0.0,0.0,0.0,0.0,0.0,0.0,0.0,0.0,0.0,-3.7482,-3.7491,-3.8276,-3.8587,-3.8674,-3.9433,-4.0625,-4.205,0.0,-4.3205,-4.3366,-4.4484,0.0,0.0,-4.5723,-4.6182,0.0,0.0,0.0,0.0,0.0,0.0,0.0,0.0,0.0,0.0,-4.5476,0.0,0.0,0.0,0.0,-4.5406,0.0,0.0,0.0,0.0,0.0,0.0,0.0,0.0,0.0,0.0,0.0,0.0,0.0,0.0,0.0,0.0,0.0,0.0,-4.4643,-4.4587,-4.4908,-4.5669,-4.6397,-4.7141,-4.7902,-4.8629,-4.9001,-4.9001,-4.9001,-4.9001,-4.9001,-4.9001,-4.9001,-4.9001,-4.9001,-4.9001,-4.9001,-4.9001,-4.9001,-4.9001,-4.9001,-4.9001,-4.9001,-4.9001,-4.9001,-4.9001,-4.9001,-4.9001,-4.9001,0.0,0.0,0.0,0.0,0.0,0.0,0.0,-3.712,0.0,0.0,0.0,0.0,0.0,-3.6806,-3.6917,0.0,0.0,-3.7515,-3.7932,-3.7966,0.0,0.0,0.0,-3.7022,0.0,0.0,0.0,0.0,0.0,0.0,0.0,0.0,0.0,0.0,0.0,-3.8215,0.0,0.0,0.0,0.0,0.0,-4.213,-4.3542,0.0,0.0,-4.4043,-4.4939,-4.5114,0.0,-4.5528,-4.5667,-4.5701,-4.5837,-4.5803,-4.5701,-4.5837,-4.5649,0.0,0.0,0.0,-4.5423,-4.5423,0.0,0.0,0.0,0.0,0.0,0.0,0.0,0.0,0.0,0.0,0.0,0.0,0.0,0.0,0.0,0.0,0.0,0.0,0.0,0.0,0.0,0.0,0.0,-4.4587,-4.4587,-4.4688,-4.4942,-4.6126,-4.6904,-4.7158,-4.8359,-4.9001,-4.9001,-4.9001,-4.9001,-4.9001,-4.9001,-4.9001,-4.9001,-4.9001,-4.9001,-4.9001,-4.9001,-4.9001,-4.9001,-4.9001,-4.9001,-4.9001,-4.9001,-4.9001,-4.9001,-4.9001,-4.9001,-4.9069,-3.693,0.0,0.0,0.0,0.0,0.0,0.0,0.0,0.0,0.0,-3.6869,0.0,-3.6984,0.0,-3.723,0.0,-3.787,-3.8077,-3.856,-3.8594,0.0,-3.7887,-3.787,0.0,0.0,0.0,0.0,0.0,0.0,-3.7611,0.0,0.0,0.0,0.0,0.0,0.0,0.0,0.0,-4.0267,0.0,0.0,-4.3388,0.0,0.0,-4.4682,-4.4751,0.0,-4.5423,-4.5423,-4.5423,-4.5423,-4.5423,-4.5423,-4.5423,-4.5423,-4.5423,-4.5423,-4.5423,-4.5423,-4.5423,0.0,-4.5371,-4.5318,0.0,-4.5318,0.0,0.0,0.0,0.0,0.0,0.0,0.0,0.0,0.0,0.0,0.0,0.0,-4.5032,0.0,0.0,0.0,0.0,0.0,0.0,-4.4587,-4.4587,-4.4587,-4.4587,0.0,0.0,-4.6786,-4.6786,-4.824,-4.9001,-4.9001,-4.9001,-4.9001,-4.9001,-4.9001,-4.9001,-4.9001,-4.9001,-4.9001,-4.9001,-4.9001,-4.9001,-4.9001,-4.9001,-4.9001,-4.9001,-4.9001,-4.9001,-4.9001,-4.9001,-4.9171,-4.9458,0.0,0.0,0.0,0.0,-3.6987,0.0,0.0,0.0,-3.6926,0.0,-3.6754,-3.6967,-3.75,-3.7542,-3.7836,-3.8577,-3.8646,0.0,-3.8698,-3.8698,0.0,0.0,-3.8646,-3.8629,-3.8594,0.0,0.0,0.0,0.0,0.0,0.0,0.0,0.0,0.0,-3.9422,0.0,-3.9802,-4.0595,-4.1388,-4.2233,-4.3682,-4.4302,-4.4406,-4.5147,-4.5371,-4.5371,-4.5371,-4.5371,-4.5371,-4.5371,-4.5371,-4.5371,-4.5423,-4.5371,-4.5371,-4.5371,-4.5371,-4.5371,-4.5371,-4.5371,-4.5371,-4.5247,0.0,0.0,0.0,0.0,-4.5177,0.0,0.0,0.0,0.0,0.0,0.0,0.0,0.0,0.0,0.0,0.0,0.0,0.0,0.0,0.0,0.0,-4.4587,-4.4587,-4.4587,-4.4587,0.0,0.0,0.0,-4.6802,-4.6836,-4.8257,-4.9001,-4.9001,-4.894,-4.894,-4.9001,-4.894,-4.894,-4.9001,-4.9001,-4.9001,-4.9001,-4.9001,-4.9001,-4.9001,-4.9001,-4.9001,-4.9001,-4.9001,-4.9001,-4.9001,-4.9001,-4.9458,-5.0101,-3.6602,-3.6444,-3.6343,0.0,-3.6626,-3.6766,0.0,0.0,0.0,0.0,-3.7283,-3.756,-3.8215,-3.8301,-3.8594,-3.9353,-3.9422,0.0,0.0,0.0,0.0,-3.9439,-3.9422,-3.9163,-3.8594,-3.9129,0.0,-3.8594,0.0,0.0,-3.8594,0.0,0.0,0.0,0.0,0.0,-4.0629,-4.1388,-4.2475,-4.3733,-4.401,-4.4457,0.0,0.0,-4.5247,-4.5247,-4.5247,-4.5247,-4.5247,-4.5247,-4.5247,-4.5247,-4.5371,-4.53,-4.5247,-4.5247,-4.5194,-4.5086,-4.5086,-4.5086,-4.5086,-4.5086,-4.5032,-4.5032,0.0,0.0,0.0,0.0,0.0,0.0,0.0,0.0,0.0,0.0,0.0,0.0,0.0,0.0,0.0,-4.4626,0.0,0.0,-4.457,-4.4587,-4.4587,-4.4587,-4.4587,0.0,0.0,0.0,0.0,-4.7614,-4.8528,-4.9001,-4.9001,-4.845,-4.845,-4.9001,-4.845,-4.845,-4.9001,-4.9001,-4.9001,-4.9001,-4.9001,-4.9001,-4.9001,-4.9001,-4.9001,-4.9001,-4.9001,-4.9001,-4.9001,-4.9001,-4.9458,-5.0168,-3.6461,0.0,0.0,-3.6301,0.0,0.0,-3.6544,0.0,0.0,-3.7422,-3.7767,0.0,-3.8991,-3.9077,-3.9388,-4.0146,-4.0215,0.0,-4.0853,0.0,0.0,-4.0233,-4.0215,-4.0026,-3.9595,-4.0008,0.0,-3.9595,0.0,0.0,-3.9595,0.0,0.0,0.0,0.0,-4.106,0.0,-4.2477,-4.3441,-4.4199,-4.4439,0.0,0.0,-4.5123,-4.5123,-4.5069,-4.5032,-4.514,-4.53,-4.5247,-4.5177,-4.5245,-4.5589,-4.5637,-4.5651,-4.596,-4.6007,-4.5952,-4.5952,-4.5952,-4.5969,-4.5913,-4.5857,-4.5857,-4.5857,-4.5857,-4.5857,0.0,0.0,0.0,0.0,0.0,0.0,0.0,0.0,0.0,0.0,0.0,0.0,0.0,-4.4105,0.0,-4.3739,-4.4253,-4.4587,-4.4587,-4.4587,0.0,0.0,0.0,0.0,-4.7902,-4.8629,-4.8861,-4.8513,-4.845,-4.8242,-4.8048,-4.8242,-4.845,-4.8513,-4.8861,-4.8798,-4.8513,-4.8513,-4.8513,-4.8513,-4.8513,-4.8719,-4.9001,-4.9001,-4.9204,-4.9475,-4.9475,-4.9949,-5.0693,0.0,0.0,0.0,0.0,0.0,0.0,0.0,-3.7094,0.0,-3.7749,0.0,-3.9026,-3.9767,-3.9871,-4.0117,-4.0853,0.0,-4.0892,-4.0892,-4.0995,-4.1095,-4.1095,-4.1147,-4.1129,-4.1026,-4.1026,0.0,0.0,0.0,0.0,0.0,0.0,0.0,0.0,0.0,0.0,0.0,-4.3563,-4.4147,-4.4284,-4.4776,-4.4978,-4.4978,-4.4978,-4.4978,-4.4995,-4.495,-4.5203,-4.5472,-4.5348,-4.5346,-4.5534,-4.6054,-4.6203,-4.634,-4.6971,-4.7158,-4.7158,-4.7158,-4.7158,-4.7101,-4.7003,-4.6944,-4.6944,-4.6944,-4.6944,-4.6944,-4.6944,-4.706,-4.706,0.0,0.0,0.0,0.0,0.0,0.0,0.0,0.0,0.0,0.0,0.0,0.0,-4.2583,-4.3604,-4.431,0.0,0.0,0.0,0.0,0.0,0.0,-4.7899,-4.854,-4.8513,-4.7885,0.0,-4.8032,-4.6949,-4.8048,-4.8306,-4.7754,-4.845,-4.837,-4.7754,-4.7754,-4.7754,-4.7754,-4.7754,-4.8177,-4.8861,-4.8861,-4.9316,-4.9957,-5.0058,-5.05,-5.1159,0.0,0.0,0.0,0.0,0.0,-3.7473,-3.8094,-3.7784,-3.7922,-3.9146,-3.9422,-3.9802,-4.0578,-4.0707,-4.0748,-4.0886,-4.0876,0.0,0.0,0.0,0.0,-4.2102,-4.2395,-4.2324,-4.1802,-4.1785,-4.1492,0.0,0.0,0.0,0.0,0.0,0.0,0.0,0.0,0.0,-4.3752,-4.4027,0.0,-4.4844,-4.4835,-4.4831,-4.4831,-4.4831,-4.4831,-4.4916,-4.564,-4.5879,-4.5823,-4.5767,-4.6158,-4.6743,-4.692,-4.6914,-4.689,-4.7026,-4.6961,-4.6844,-4.6844,-4.6844,-4.6844,-4.6844,-4.6844,-4.6844,-4.6844,-4.6844,-4.6844,-4.6844,-4.6844,-4.6844,-4.6786,0.0,0.0,0.0,0.0,0.0,0.0,0.0,0.0,0.0,0.0,-4.2645,0.0,0.0,0.0,0.0,0.0,0.0,0.0,0.0,0.0,0.0,-4.803,0.0,0.0,0.0,-4.6726,-4.7688,-4.6726,-4.6534,-4.7017,-4.7153,-4.7085,-4.7017,-4.7017,-4.7017,-4.7017,-4.7017,-4.7422,-4.8096,-4.8096,-4.8529,-4.9177,-4.9792,-5.0043,-5.0242,0.0,0.0,0.0,0.0,0.0,0.0,0.0,-3.9032,0.0,-3.96,-4.0388,-4.1026,-4.1405,-4.1839,-4.2034,-4.1967,-4.1936,-4.209,-4.2414,-4.2415,-4.2603,-4.3012,-4.286,0.0,-4.2379,-4.2379,-4.2207,-4.1847,0.0,0.0,0.0,0.0,0.0,0.0,0.0,-4.3288,0.0,0.0,0.0,-4.4886,-4.4737,-4.4682,-4.4682,-4.4682,-4.4919,-4.5309,-4.5722,-4.635,-4.6903,-4.6554,-4.6714,-4.707,-4.7461,-4.7539,-4.7564,-4.7937,-4.7996,-4.7936,-4.7936,-4.7936,-4.7936,-4.7936,-4.7936,-4.7936,-4.7936,-4.7936,-4.7936,-4.7936,-4.7936,-4.7696,-4.6971,-4.6765,0.0,0.0,0.0,0.0,0.0,0.0,0.0,0.0,0.0,0.0,0.0,0.0,0.0,0.0,0.0,0.0,0.0,0.0,0.0,0.0,0.0,0.0,0.0,0.0,0.0,-4.6166,-4.6253,-4.6253,-4.6253,-4.6604,-4.6604,-4.6253,-4.6253,-4.6253,-4.6253,-4.6673,-4.7017,-4.7388,-4.7697,-4.827,-4.8989,-4.9709,-4.992,-5.0025,0.0,-3.6837,0.0,0.0,-3.8048,0.0,-3.9648,-4.012,-4.0358,-4.0191,-4.1371,-4.2167,-4.2167,-4.2856,-4.3236,-4.3049,-4.3186,-4.3494,-4.401,-4.3477,-4.3339,-4.3821,-4.3251,-4.2942,-4.2962,-4.2771,-4.2686,0.0,0.0,0.0,0.0,0.0,0.0,0.0,0.0,0.0,0.0,0.0,-4.4776,-4.4737,-4.4626,-4.4587,-4.4604,-4.4756,-4.5179,-4.5737,-4.6075,-4.6921,-4.7851,-4.7513,-4.742,-4.7522,-4.7953,-4.8156,-4.8257,-4.8832,-4.9001,-4.9001,-4.9001,-4.9001,-4.9001,-4.9001,-4.9001,-4.9001,-4.9001,-4.9001,-4.9001,-4.9001,-4.8861,-4.8346,-4.7027,-4.6782,0.0,0.0,0.0,0.0,0.0,0.0,0.0,0.0,0.0,0.0,-4.1919,0.0,0.0,0.0,0.0,0.0,0.0,0.0,0.0,0.0,0.0,-4.6253,-4.5697,0.0,-4.5841,-4.4858,-4.5841,-4.604,-4.5494,-4.6056,-4.6056,-4.5494,-4.5494,-4.5494,-4.5478,-4.6111,-4.649,-4.6808,-4.7371,-4.8111,-4.8916,-4.9464,-4.9623,-4.971,0.0,0.0,0.0,0.0,0.0,0.0,-4.0026,-4.0463,-4.094,-4.1707,-4.2393,-4.2808,-4.2808,-4.3271,-4.356,-4.3507,-4.4087,-4.4463,-4.4497,-4.4456,-4.449,-4.467,-4.408,-4.3755,-4.3799,-4.3124,-4.2787,0.0,0.0,0.0,0.0,0.0,0.0,0.0,0.0,0.0,0.0,-4.4814,-4.4737,-4.4626,-4.4643,-4.4587,-4.4654,-4.5331,-4.5652,-4.5889,-4.7225,-4.78,-4.8003,-4.8595,-4.8798,-4.8798,-4.8883,-4.89,-4.8917,-4.8984,-4.9001,-4.9001,-4.9001,-4.9001,-4.9001,-4.9001,-4.9001,-4.9001,-4.9001,-4.9001,-4.9001,-4.9001,-4.845,-4.7737,-4.6936,-4.6783,-4.6767,0.0,0.0,0.0,0.0,0.0,0.0,-4.2803,0.0,0.0,0.0,-4.2571,0.0,0.0,0.0,0.0,0.0,0.0,0.0,-4.5809,0.0,-4.5769,-4.5697,-4.5142,-4.5067,-4.5551,-4.5067,-4.4783,-4.4723,-4.4783,-4.4799,-4.4723,-4.4723,-4.4723,-4.4723,-4.4799,-4.5575,-4.6719,-4.6782,-4.7621,-4.8715,-4.8778,-4.8779,-4.8687,0.0,0.0,0.0,0.0,0.0,0.0,0.0,-4.0782,-4.1183,-4.1805,-4.2078,-4.239,-4.2807,-4.3099,-4.3535,-4.4232,-4.4176,-4.4271,-4.4695,-4.4249,-4.4021,-4.4192,-4.3436,-4.3005,-4.3081,-4.2752,-4.2604,0.0,0.0,0.0,0.0,0.0,0.0,0.0,0.0,-4.4449,-4.4682,-4.4682,-4.4626,-4.4587,-4.4587,-4.4857,-4.5223,-4.5068,-4.5601,-4.6452,-4.7037,-4.7521,-4.7985,-4.8759,-4.9001,-4.9001,-4.9001,-4.9001,-4.9001,-4.9001,-4.8656,-4.837,-4.837,-4.8032,-4.7704,-4.7704,-4.7704,-4.7704,-4.7704,-4.7704,-4.7704,-4.7704,-4.7069,-4.6518,-4.6182,-4.6111,-4.5969,0.0,0.0,0.0,0.0,0.0,0.0,0.0,0.0,-4.3633,0.0,0.0,0.0,0.0,0.0,0.0,0.0,0.0,0.0,-4.5067,0.0,-4.5067,-4.5067,-4.4723,-4.4723,-4.5083,-4.4723,-4.4572,-4.4572,-4.4572,-4.4572,-4.4572,-4.4572,-4.4572,-4.4603,-4.5018,-4.5557,-4.6096,-4.692,-4.7573,-4.8102,-4.8506,-4.8604,-4.862,-3.6963,0.0,-3.861,0.0,-3.9224,-3.9633,-4.0385,-4.0814,-4.1135,-4.1558,-4.148,-4.1788,-4.27,-4.2807,-4.3196,-4.403,-4.3706,-4.3588,-4.4088,-4.3571,-4.3273,-4.3393,-4.2645,0.0,-4.252,-4.2332,-4.2332,-4.252,-4.2446,0.0,0.0,0.0,0.0,0.0,-4.3989,-4.3989,-4.3989,-4.3989,-4.3989,-4.4006,-4.424,-4.4599,-4.504,-4.4933,-4.5598,-4.6503,-4.6733,-4.7128,-4.7688,-4.8177,-4.8322,-4.8386,-4.8593,-4.853,-4.8322,-4.8322,-4.7967,-4.7556,-4.7556,-4.7221,-4.6811,-4.6811,-4.6811,-4.6811,-4.6811,-4.6811,-4.6742,-4.6534,-4.604,-4.5624,-4.5421,-4.5348,-4.5216,-4.4648,0.0,0.0,0.0,0.0,0.0,0.0,-4.4572,-4.4387,-4.391,-4.4295,0.0,0.0,0.0,0.0,0.0,0.0,0.0,0.0,0.0,0.0,0.0,-4.4572,-4.4572,-4.4572,-4.4572,-4.4572,-4.4572,-4.4572,-4.4572,-4.4572,-4.4572,-4.4572,-4.4633,-4.5311,-4.5711,-4.6003,-4.7157,-4.7727,-4.7958,-4.8435,-4.862,-4.862,-3.8367,-3.8951,-3.9393,-3.906,-3.9557,-4.0025,-4.0072,-4.0365,-4.0646,-4.1055,-4.0783,-4.1075,-4.2645,-4.2645,-4.252,-4.252,-4.252,-4.252,-4.252,-4.252,-4.252,0.0,0.0,-4.1836,-4.252,-4.1836,-4.1836,-4.252,0.0,0.0,-3.9534,0.0,-4.0623,-4.252,-4.252,-4.252,-4.252,-4.252,-4.252,-4.2585,-4.333,-4.3638,-4.38,-4.5176,-4.5726,-4.5824,-4.6552,-4.6811,-4.6811,-4.6811,-4.6811,-4.6949,-4.7688,-4.7406,-4.6811,-4.6811,-4.6811,-4.6811,-4.6811,-4.6811,-4.6811,-4.6811,-4.6811,-4.6811,-4.6811,-4.6811,-4.6604,-4.5841,-4.5697,-4.5494,-4.4723,-4.4572,-4.4572,-4.4572,0.0,0.0,0.0,0.0,0.0,-4.4572,-4.4572,-4.4572,-4.4572,0.0,0.0,0.0,0.0,0.0,0.0,0.0,0.0,-4.4572,-4.4572,0.0,-4.4572,-4.4572,-4.4572,-4.4572,-4.4572,-4.4572,-4.4572,-4.4572,-4.4572,-4.4572,-4.4572,-4.4572,-4.4633,-4.5311,-4.5972,-4.665,-4.7342,-4.8004,-4.8604,-4.862,-4.862,-4.862,-3.8492,-3.8678,-3.8908,-3.9307,-3.9504,-3.9797,-4.0291,-4.047,-4.0524,-4.0662,-4.0593,-4.0715,-4.1158,-4.1142,-4.1525,0.0,-4.2078,-4.2013,0.0,-4.2078,-4.1836,-4.1836,-4.1158,-4.0904,-4.1142,-4.0904,-4.0904,-4.1158,0.0,0.0,0.0,-4.1546,-4.1897,-4.252,-4.252,-4.252,-4.252,-4.252,-4.2812,-4.3234,-4.3476,-4.4139,-4.5061,-4.4984,-4.5237,-4.5738,-4.5977,-4.604,-4.6127,-4.6604,-4.6464,-4.6111,-4.6324,-4.6604,-4.6811,-4.6811,-4.6464,-4.604,-4.604,-4.5697,-4.5274,-4.5274,-4.5274,-4.5274,-4.5274,-4.5274,-4.52,-4.5008,-4.4933,-4.4858,-4.4648,-4.4572,-4.4572,-4.4572,-4.4572,0.0,0.0,0.0,0.0,-4.4572,-4.4572,-4.4572,0.0,-4.4572,0.0,0.0,0.0,0.0,0.0,0.0,0.0,0.0,-4.4572,0.0,-4.4572,-4.4572,-4.4572,-4.4572,-4.4572,-4.4572,-4.4572,-4.4572,-4.4572,-4.4572,-4.4572,-4.4849,-4.5311,-4.6003,-4.668,-4.7357,-4.8035,-4.8419,-4.862,-4.862,-4.862,-4.862,-3.8893,-3.9093,-3.94,-3.9816,-3.9893,-4.0047,-4.0462,-4.0524,-4.0524,-4.0524,-4.0524,-4.0524,-4.0524,-4.0524,0.0,-4.1656,-4.1409,-4.1276,-4.1706,-4.1327,-4.1142,-4.1142,-4.0699,-4.0524,-4.0524,-4.0524,0.0,-4.0524,-4.0904,-4.1343,-4.1771,-4.1771,-4.1771,-4.1771,-4.1771,-4.1771,-4.1787,-4.2057,-4.2455,-4.2916,-4.3373,-4.4156,-4.4881,-4.4683,-4.4914,-4.5274,-4.5274,-4.5274,-4.5348,-4.5841,-4.5697,-4.5274,-4.5274,-4.5624,-4.5969,-4.5969,-4.5624,-4.5274,-4.5274,-4.4933,-4.4572,-4.4572,-4.4572,-4.4572,-4.4572,-4.4572,-4.4572,-4.4572,-4.4572,-4.4572,-4.4572,-4.4572,-4.4572,-4.4572,-4.4572,-4.4572,-4.4572,0.0,0.0,0.0,0.0,0.0,0.0,-4.4572,-4.4572,0.0,0.0,0.0,0.0,0.0,0.0,-4.4572,-4.4572,0.0,-4.4572,-4.4572,-4.4572,-4.4572,-4.4572,-4.4572,-4.4572,-4.4572,-4.4572,-4.4587,-4.4849,-4.5187,-4.5664,-4.6603,-4.7219,-4.7665,-4.8358,-4.862,-4.862,-4.862,-4.862,-4.862,-3.9585,-4.0093,-4.0524,0.0,-4.0524,0.0,-4.0524,-4.0524,-4.0524,-4.0524,-4.0524,-4.0524,-4.0524,-4.0524,-4.0524,-4.0524,0.0,0.0,0.0,-4.0524,-4.0524,-4.0524,-4.0524,-4.0524,-4.0524,-4.0524,-4.0524,-4.0524,-4.0524,-4.0524,-4.0524,-4.0524,-4.0524,-4.0524,-4.0524,-4.0555,-4.0647,-4.1324,-4.1648,-4.1848,-4.3079,-4.3602,-4.371,-4.4341,-4.4572,-4.4572,-4.4572,-4.4572,-4.4572,-4.4572,-4.4572,-4.4572,-4.4572,-4.4572,-4.4572,-4.4572,-4.4572,-4.4572,-4.4572,-4.4572,-4.4572,-4.4572,-4.4572,-4.4572,-4.4572,-4.4572,-4.4572,-4.4572,-4.4572,-4.4572,-4.4572,-4.4572,-4.4572,-4.4572,-4.4572,-4.4572,-4.4572,0.0,0.0,0.0,0.0,0.0,0.0,-4.4572,-4.4572,0.0,0.0,0.0,0.0,0.0,-4.4572,-4.4572,-4.4572,-4.4572,-4.4572,-4.4572,-4.4572,-4.4572,-4.4572,-4.4572,-4.4572,-4.4572,-4.4572,-4.4618,-4.5295,-4.5618,-4.5757,-4.7065,-4.7635,-4.7742,-4.8373,-4.862,-4.862,-4.862,-4.862,-4.862,0.0,0.0,-4.0524,-4.0524,-4.0524,-4.0524,-4.0524,-4.0524,-4.0524,-4.0524,-4.0524,-4.0524,-4.0524,-4.0524,-4.0524,-4.0524,-4.0524,-4.0524,-4.0524,-4.0524,-4.0524,-4.0524,-4.0524,-4.0524,-4.0524,-4.0524,-4.0524,-4.0524,-4.0524,-4.0524,-4.0524,-4.0524,-4.0524,-4.0524,-4.0524,-4.0832,-4.1355,-4.1524,-4.2186,-4.3125,-4.3433,-4.3879,-4.4356,-4.451,-4.4572,-4.4572,-4.4572,-4.4572,-4.4572,-4.4572,-4.4572,-4.4572,-4.4572,-4.4572,-4.4572,-4.4572,-4.4572,-4.4572,-4.4572,-4.4572,-4.4572,-4.4572,-4.4572,-4.4572,-4.4572,-4.4572,-4.4572,-4.4572,-4.4572,-4.4572,-4.4572,-4.4572,-4.4572,-4.4572,-4.4572,-4.4572,-4.4572,-4.4572,0.0,0.0,-4.4572,-4.4572,-4.4572,-4.4572,-4.4572,0.0,0.0,0.0,0.0,-4.4572,-4.4572,-4.4572,-4.4572,-4.4572,-4.4572,-4.4572,-4.4572,-4.4572,-4.4572,-4.4572,-4.4572,-4.4572,-4.4572,-4.4618,-4.5295,-4.588,-4.6419,-4.7265,-4.7912,-4.8389,-4.8558,-4.862,-4.862,-4.862,-4.862,-4.862,-4.0524,-4.0524,-4.0524,-4.0524,-4.0524,-4.0524,-4.0524,-4.0524,-4.0524,-4.0524,-4.0524,-4.0524,-4.0524,-4.0524,-4.0524,-4.0524,-4.0524,-4.0524,-4.0524,-4.0524,-4.0524,-4.0524,-4.0524,-4.0524,-4.0524,-4.0524,-4.0524,-4.0524,-4.0524,-4.0524,-4.0524,-4.0524,-4.0524,-4.0524,-4.0524,-4.0924,-4.1617,-4.1925,-4.2633,-4.3602,-4.391,-4.4249,-4.4572,-4.4572,-4.4572,-4.4572,-4.4572,-4.4572,-4.4572,-4.4572,-4.4572,-4.4572,-4.4572,-4.4572,-4.4572,-4.4572,-4.4572,-4.4572,-4.4572,-4.4572,-4.4572,-4.4572,-4.4572,-4.4572,-4.4572,-4.4572,-4.4572,-4.4572,-4.4572,-4.4572,-4.4572,-4.4572,-4.4572,-4.4572,-4.4572,-4.4572,-4.4572,-4.4572,0.0,-4.4572,-4.4572,-4.4572,-4.4572,-4.4572,-4.4572,-4.4572,-4.4572,0.0,-4.4572,-4.4572,-4.4572,-4.4572,-4.4572,-4.4572,-4.4572,-4.4572,-4.4572,-4.4572,-4.4572,-4.4572,-4.4572,-4.4572,-4.4741,-4.508,-4.5757,-4.6434,-4.7111,-4.7788,-4.8281,-4.862,-4.862,-4.862,-4.862,-4.862,-4.862,-4.862,-4.0524,-4.0524,-4.0524,-4.0524,-4.0524,-4.0524,-4.0524,-4.0524,-4.0524,-4.0524,-4.0524,-4.0524,-4.0524,-4.0524,-4.0524,-4.0524,-4.0524,-4.0524,-4.0524,-4.0524,-4.0524,-4.0524,-4.0524,-4.0524,-4.0524,-4.0524,-4.0524,-4.0524,-4.0524,-4.0524,-4.0524,-4.0524,-4.0524,-4.0524,-4.0524,-4.0986,-4.1786,-4.2371,-4.3048,-4.3771,-4.4341,-4.4572,-4.4572,-4.4572,-4.4572,-4.4572,-4.4572,-4.4572,-4.4572,-4.4572,-4.4572,-4.4572,-4.4572,-4.4572,-4.4572,-4.4572,-4.4572,-4.4572,-4.4572,-4.4572,-4.4572,-4.4572,-4.4572,-4.4572,-4.4572,-4.4572,-4.4572,-4.4572,-4.4572,-4.4572,-4.4572,-4.4572,-4.4572,-4.4572,-4.4572,-4.4572,-4.4572,0.0,-4.4572,-4.4572,-4.4572,-4.4572,-4.4572,-4.4572,-4.4572,-4.4572,-4.4572,-4.4572,-4.4572,-4.4572,-4.4572,-4.4572,-4.4572,-4.4572,-4.4572,-4.4572,-4.4572,-4.4572,-4.4572,-4.4572,-4.4572,-4.4679,-4.5049,-4.5634,-4.6419,-4.7065,-4.765,-4.8327,-4.862,-4.862,-4.862,-4.862,-4.862,-4.862,-4.862,-4.862,-4.0524,-4.0524,-4.0524,-4.0524,-4.0524,-4.0524,-4.0524,-4.0524,-4.0524,-4.0524,-4.0524,-4.0524,-4.0524,-4.0524,-4.0524,-4.0524,-4.0524,-4.0524,-4.0524,-4.0524,-4.0524,-4.0524,-4.0524,-4.0524,-4.0524,-4.0524,-4.0524,-4.0524,-4.0524,-4.0524,-4.0524,-4.0524,-4.0524,-4.0524,-4.0524,-4.1247,-4.2463,-4.2571,-4.331,-4.4433,-4.4541,-4.4572,-4.4572,-4.4572,-4.4572,-4.4572,-4.4572,-4.4572,-4.4572,-4.4572,-4.4572,-4.4572,-4.4572,-4.4572,-4.4572,-4.4572,-4.4572,-4.4572,-4.4572,-4.4572,-4.4572,-4.4572,-4.4572,-4.4572,-4.4572,-4.4572,-4.4572,-4.4572,-4.4572,-4.4572,-4.4572,-4.4572,-4.4572,-4.4572,-4.4572,-4.4572,-4.4572,0.0,-4.4572,-4.4572,-4.4572,-4.4572,-4.4572,-4.4572,-4.4572,-4.4572,-4.4572,-4.4572,-4.4572,-4.4572,-4.4572,-4.4572,-4.4572,-4.4572,-4.4572,-4.4572,-4.4572,-4.4572,-4.4572,-4.4572,-4.4603,-4.5172,-4.548,-4.5664,-4.6911,-4.7511,-4.765,-4.8327,-4.862,-4.862,-4.862,-4.862,-4.862,-4.862,-4.862,-4.862,-4.0524,-4.0524,-4.0524,-4.0524,-4.0524,-4.0524,-4.0524,-4.0524,-4.0524,-4.0524,-4.0524,-4.0524,-4.0524,-4.0524,-4.0524,-4.0524,-4.0524,-4.0524,-4.0524,-4.0524,-4.0524,-4.0524,-4.0524,-4.0524,-4.0524,-4.0524,-4.0524,-4.0524,-4.0524,-4.0524,-4.0524,-4.0524,-4.0524,-4.0524,-4.0524,-4.1109,-4.2094,-4.2463,-4.3156,-4.4064,-4.4433,-4.4572,-4.4572,-4.4572,-4.4572,-4.4572,-4.4572,-4.4572,-4.4572,-4.4572,-4.4572,-4.4572,-4.4572,-4.4572,-4.4572,-4.4572,-4.4572,-4.4572,-4.4572,-4.4572,-4.4572,-4.4572,-4.4572,-4.4572,-4.4572,-4.4572,-4.4572,-4.4572,-4.4572,-4.4572,-4.4572,-4.4572,-4.4572,-4.4572,-4.4572,0.0,0.0,-4.4572,-4.4572,-4.4572,-4.4572,-4.4572,-4.4572,-4.4572,-4.4572,-4.4572,-4.4572,-4.4572,-4.4572,-4.4572,-4.4572,-4.4572,-4.4572,-4.4572,-4.4572,-4.4572,-4.4572,-4.4572,-4.4572,-4.4772,-4.5126,-4.5449,-4.5988,-4.6711,-4.7342,-4.7804,-4.8173,-4.8481,-4.862,-4.862,-4.862,-4.862,-4.862,-4.862,-4.862,-4.862,-4.0524,-4.0524,-4.0524,-4.0524,-4.0524,-4.0524,-4.0524,-4.0524,-4.0524,-4.0524,-4.0524,-4.0524,-4.0524,-4.0524,-4.0524,-4.0524,-4.0524,-4.0524,-4.0524,-4.0524,-4.0524,-4.0524,-4.0524,-4.0524,-4.0524,-4.0524,-4.0524,-4.0524,-4.0524,-4.0524,-4.0524,-4.0524,-4.0524,-4.0524,-4.0524,-4.0924,-4.1648,-4.2325,-4.2987,-4.3633,-4.431,-4.4572,-4.4572,-4.4572,-4.4572,-4.4572,-4.4572,-4.4572,-4.4572,-4.4572,-4.4572,-4.4572,-4.4572,-4.4572,-4.4572,-4.4572,-4.4572,-4.4572,-4.4572,-4.4572,-4.4572,-4.4572,-4.4572,-4.4572,-4.4572,-4.4572,-4.4572,-4.4572,-4.4572,-4.4572,-4.4572,-4.4572,-4.4572,-4.4572,0.0,0.0,0.0,-4.4572,-4.4572,-4.4572,-4.4572,-4.4572,-4.4572,-4.4572,-4.4572,-4.4572,-4.4572,-4.4572,-4.4572,-4.4572,-4.4572,-4.4572,-4.4572,-4.4572,-4.4572,-4.4572,-4.4572,-4.4572,-4.4572,-4.4926,-4.5588,-4.5757,-4.648,-4.7619,-4.7773,-4.8127,-4.862,-4.862,-4.862,-4.862,-4.862,-4.862,-4.862,-4.862,-4.862,-4.862,-4.0524,-4.0524,-4.0524,-4.0524,-4.0524,-4.0524,-4.0524,-4.0524,-4.0524,-4.0524,-4.0524,-4.0524,-4.0524,-4.0524,-4.0524,-4.0524,-4.0524,-4.0524,-4.0524,-4.0524,-4.0524,-4.0524,-4.0524,-4.0524,-4.0524,-4.0524,-4.0524,-4.0524,-4.0524,-4.0524,-4.0524,-4.0524,-4.0524,-4.0524,-4.0524,-4.0924,-4.1648,-4.2325,-4.2987,-4.3633,-4.431,-4.4572,-4.4572,-4.4572,-4.4572,-4.4572,-4.4572,-4.4572,-4.4572,-4.4572,-4.4572,-4.4572,-4.4572,-4.4572,-4.4572,-4.4572,-4.4572,-4.4572,-4.4572,-4.4572,-4.4572,-4.4572,-4.4572,-4.4572,-4.4572,-4.4572,-4.4572,-4.4572,-4.4572,-4.4572,-4.4572,-4.4572,-4.4572,-4.4572,0.0,0.0,-4.4572,-4.4572,-4.4572,-4.4572,-4.4572,-4.4572,-4.4572,-4.4572,-4.4572,-4.4572,-4.4572,-4.4572,-4.4572,-4.4572,-4.4572,-4.4572,-4.4572,-4.4572,-4.4572,-4.4572,-4.4572,-4.4572,-4.4572,-4.4926,-4.5603,-4.6234,-4.6927,-4.7635,-4.8266,-4.8558,-4.862,-4.862,-4.862,-4.862,-4.862,-4.862,-4.862,-4.862,-4.862,-4.862,-4.0524,-4.0524,-4.0524,-4.0524,-4.0524,-4.0524,-4.0524,-4.0524,-4.0524,-4.0524,-4.0524,-4.0524,-4.0524,-4.0524,-4.0524,-4.0524,-4.0524,-4.0524,-4.0524,-4.0524,-4.0524,-4.0524,-4.0524,-4.0524,-4.0524,-4.0524,-4.0524,-4.0524,-4.0524,-4.0524,-4.0524,-4.0524,-4.0524,-4.0524,-4.0524,-4.0678,-4.0986,-4.1694,-4.2371,-4.3033,-4.3679,-4.4202,-4.4572,-4.4572,-4.4572,-4.4572,-4.4572,-4.4572,-4.4572,-4.4572,-4.4572,-4.4572,-4.4572,-4.4572,-4.4572,-4.4572,-4.4572,-4.4572,-4.4572,-4.4572,-4.4572,-4.4572,-4.4572,-4.4572,-4.4572,-4.4572,-4.4572,-4.4572,-4.4572,-4.4572,-4.4572,-4.4572,-4.4572,-4.4572,0.0,-4.4572,-4.4572,-4.4572,-4.4572,-4.4572,-4.4572,-4.4572,-4.4572,-4.4572,-4.4572,-4.4572,-4.4572,-4.4572,-4.4572,-4.4572,-4.4572,-4.4572,-4.4572,-4.4572,-4.4572,-4.4572,-4.4572,-4.4587,-4.5003,-4.5557,-4.6234,-4.6911,-4.7588,-4.825,-4.8496,-4.862,-4.862,-4.862,-4.862,-4.862,-4.862,-4.862,-4.862,-4.862,-4.862,-4.862,-4.0524,-4.0524,-4.0524,-4.0524,-4.0524,-4.0524,-4.0524,-4.0524,-4.0524,-4.0524,-4.0524,-4.0524,-4.0524,-4.0524,-4.0524,-4.0524,-4.0524,-4.0524,-4.0524,-4.0524,-4.0524,-4.0524,-4.0524,-4.0524,-4.0524,-4.0524,-4.0524,-4.0524,-4.0524,-4.0524,-4.0524,-4.0524,-4.0524,-4.0524,-4.0524,-4.0524,-4.0586,-4.1294,-4.1986,-4.2663,-4.331,-4.3972,-4.4572,-4.4572,-4.4572,-4.4572,-4.4572,-4.4572,-4.4572,-4.4572,-4.4572,-4.4572,-4.4572,-4.4572,-4.4572,-4.4572,-4.4572,-4.4572,-4.4572,-4.4572,-4.4572,-4.4572,-4.4572,-4.4572,-4.4572,-4.4572,-4.4572,-4.4572,-4.4572,-4.4572,-4.4572,-4.4572,-4.4572,-4.4572,-4.4572,-4.4572,-4.4572,-4.4572,-4.4572,-4.4572,-4.4572,-4.4572,-4.4572,-4.4572,-4.4572,-4.4572,-4.4572,-4.4572,-4.4572,-4.4572,-4.4572,-4.4572,-4.4572,-4.4572,-4.4572,-4.4572,-4.4679,-4.491,-4.5357,-4.6049,-4.6927,-4.7388,-4.7973,-4.862,-4.862,-4.862,-4.862,-4.862,-4.862,-4.862,-4.862,-4.862,-4.862,-4.862,-4.862,-4.862,-4.0455,-4.0455,-4.0455,-4.0455,-4.0455,-4.0455,-4.0455,-4.0455,-4.0539,-4.0524,-4.0524,-4.0524,-4.0524,-4.0524,-4.0524,-4.0524,-4.0524,-4.0524,-4.0524,-4.0524,-4.0524,-4.0524,-4.0524,-4.0524,-4.0524,-4.0524,-4.0524,-4.0524,-4.0524,-4.0524,-4.0524,-4.0524,-4.0524,-4.0524,-4.0524,-4.0524,-4.057,-4.1294,-4.1986,-4.2648,-4.331,-4.3972,-4.4572,-4.4572,-4.4572,-4.4572,-4.4572,-4.4572,-4.4572,-4.4572,-4.4572,-4.4572,-4.4572,-4.4572,-4.4572,-4.4572,-4.4572,-4.4572,-4.4572,-4.4572,-4.4572,-4.4572,-4.4572,-4.4572,-4.4572,-4.4572,-4.4572,-4.4572,-4.4572,-4.4572,-4.4572,-4.4572,-4.4572,-4.4572,-4.4572,-4.4572,-4.4572,-4.4572,-4.4572,-4.4572,-4.4572,-4.4572,-4.4572,-4.4572,-4.4572,-4.4572,-4.4572,-4.4572,-4.4572,-4.4572,-4.4572,-4.4572,-4.4572,-4.4572,-4.4572,-4.4572,-4.4926,-4.5588,-4.5588,-4.6311,-4.7604,-4.7604,-4.7973,-4.862,-4.862,-4.862,-4.862,-4.862,-4.862,-4.862,-4.862,-4.862,-4.862,-4.862,-4.862,-4.862,-3.9292,-3.9292,-3.9292,-3.9292,-3.9292,-3.9436,-3.9895,-3.9965,-4.0106,-4.0455,-4.0524,-4.0524,-4.0524,-4.0524,-4.0524,-4.0524,-4.0524,-4.0524,-4.0524,-4.0524,-4.0524,-4.0524,-4.0524,-4.0524,-4.0524,-4.0524,-4.0524,-4.0524,-4.0524,-4.0524,-4.0524,-4.0524,-4.0524,-4.0524,-4.0524,-4.0524,-4.0539,-4.0755,-4.1247,-4.1955,-4.2633,-4.3279,-4.3925,-4.4402,-4.4572,-4.4572,-4.4572,-4.4572,-4.4572,-4.4572,-4.4572,-4.4572,-4.4572,-4.4572,-4.4572,-4.4572,-4.4572,-4.4572,-4.4572,-4.4572,-4.4572,-4.4572,-4.4572,-4.4572,-4.4572,-4.4572,-4.4572,-4.4572,-4.4572,-4.4572,-4.4572,-4.4572,-4.4572,-4.4572,-4.4572,-4.4572,-4.4572,-4.4572,-4.4572,-4.4572,-4.4572,-4.4572,-4.4572,-4.4572,-4.4572,-4.4572,-4.4572,-4.4572,-4.4572,-4.4572,-4.4572,-4.4572,-4.4572,-4.4572,-4.4572,-4.4572,-4.4926,-4.5588,-4.6065,-4.6757,-4.7619,-4.8096,-4.8419,-4.862,-4.862,-4.862,-4.862,-4.862,-4.862,-4.862,-4.862,-4.862,-4.862,-4.862,-4.862,-4.862,-3.8782,-3.8782,-3.8782,-3.8782,-3.8782,-3.8929,-3.9307,-3.9307,-3.9451,-3.9809,-3.9809,-3.9809,-3.9809,-4.0021,-4.0176,-4.0176,-4.0385,-4.0524,-4.0524,-4.0524,-4.0524,-4.0524,-4.0524,-4.0524,-4.0524,-4.0524,-4.0524,-4.0524,-4.0524,-4.0524,-4.0524,-4.0524,-4.0524,-4.0524,-4.0524,-4.0524,-4.0524,-4.0524,-4.094,-4.1663,-4.234,-4.2987,-4.3648,-4.4326,-4.4572,-4.4572,-4.4572,-4.4572,-4.4572,-4.4572,-4.4572,-4.4572,-4.4572,-4.4572,-4.4572,-4.4572,-4.4572,-4.4572,-4.4572,-4.4572,-4.4572,-4.4572,-4.4572,-4.4572,-4.4572,-4.4572,-4.4572,-4.4572,-4.4572,-4.4572,-4.4572,-4.4572,-4.4572,-4.4572,-4.4572,-4.4572,-4.4572,-4.4572,-4.4572,-4.4572,-4.4572,-4.4572,-4.4572,-4.4572,-4.4572,-4.4572,-4.4572,-4.4572,-4.4572,-4.4572,-4.4572,-4.4572,-4.4572,-4.471,-4.4972,-4.4987,-4.5311,-4.5988,-4.668,-4.7357,-4.8019,-4.8435,-4.862,-4.862,-4.862,-4.862,-4.862,-4.862,-4.862,-4.862,-4.862,-4.862,-4.862,-4.862,-4.862,-4.862,-3.8634,-3.8634,-3.8634,-3.8634,-3.8634,-3.8634,-3.8708,-3.8708,-3.8708,-3.8782,-3.8782,-3.8782,-3.8782,-3.9307,-3.961,-3.961,-4.0106,-4.0455,-4.0524,-4.047,-4.0455,-4.0455,-4.0385,-4.0385,-4.0385,-4.0455,-4.0524,-4.0524,-4.0524,-4.0524,-4.0524,-4.0524,-4.0524,-4.0524,-4.0524,-4.0524,-4.0524,-4.0524,-4.0909,-4.1571,-4.2248,-4.291,-4.3556,-4.4233,-4.4526,-4.4572,-4.4572,-4.4572,-4.4572,-4.4572,-4.4572,-4.4572,-4.4572,-4.4572,-4.4572,-4.4572,-4.4572,-4.4572,-4.4572,-4.4572,-4.4572,-4.4572,-4.4572,-4.4572,-4.4572,-4.4572,-4.4572,-4.4572,-4.4572,-4.4572,-4.4572,-4.4572,-4.4572,-4.4572,-4.4572,-4.4572,-4.4572,-4.4572,-4.4572,-4.4572,-4.4572,-4.4572,-4.4572,-4.4572,-4.4572,-4.4572,-4.4572,-4.4572,-4.4572,-4.4572,-4.4572,-4.4572,-4.4633,-4.4972,-4.5588,-4.5711,-4.608,-4.6696,-4.7311,-4.7958,-4.862,-4.862,-4.862,-4.862,-4.862,-4.862,-4.862,-4.862,-4.862,-4.862,-4.862,-4.862,-4.862,-4.862,-4.862,-4.862,-3.7366,-3.7366,-3.7366,-3.7366,-3.7366,-3.7582,-3.8037,-3.8113,-3.8263,-3.8708,-3.8782,-3.8782,-3.8782,-3.8943,-3.9017,-3.9017,-3.9523,-4.0036,-4.0455,-4.0106,-3.9895,-3.9895,-3.9451,-3.9147,-3.9147,-4.0021,-4.0524,-4.0524,-4.0524,-4.0524,-4.0524,-4.0524,-4.0524,-4.0524,-4.0524,-4.0524,-4.0524,-4.0524,-4.0616,-4.0816,-4.154,-4.2217,-4.2879,-4.3541,-4.411,-4.4572,-4.4572,-4.4572,-4.4572,-4.4572,-4.4572,-4.4572,-4.4572,-4.4572,-4.4572,-4.4572,-4.4572,-4.4572,-4.4572,-4.4572,-4.4572,-4.4572,-4.4572,-4.4572,-4.4572,-4.4572,-4.4572,-4.4572,-4.4572,-4.4572,-4.4572,-4.4572,-4.4572,-4.4572,-4.4572,-4.4572,-4.4572,-4.4572,-4.4572,-4.4572,-4.4572,-4.4572,-4.4572,-4.4572,-4.4572,-4.4572,-4.4572,-4.4572,-4.4572,-4.4572,-4.4572,-4.4572,-4.5095,-4.5434,-4.5588,-4.6634,-4.7234,-4.7388,-4.7527,-4.7958,-4.862,-4.862,-4.862,-4.862,-4.862,-4.862,-4.862,-4.862,-4.862,-4.862,-4.862,-4.862,-4.862,-4.862,-4.862,-4.862,-3.6978,-3.6978,-3.6978,-3.6978,-3.6978,-3.7134,-3.7429,-3.7443,-3.7582,-3.7886,-3.7962,-3.7962,-3.7962,-3.8188,-3.8486,-3.8782,-3.909,-3.9379,-3.9666,-3.9451,-3.9235,-3.9235,-3.8929,-3.8782,-3.8782,-3.9364,-3.9809,-4.0106,-4.0106,-4.0246,-4.0455,-4.0246,-4.0246,-4.0524,-4.0524,-4.0524,-4.0524,-4.0524,-4.0524,-4.0586,-4.1309,-4.2001,-4.2679,-4.3325,-4.3987,-4.4572,-4.4572,-4.4572,-4.4572,-4.4572,-4.4572,-4.4572,-4.4572,-4.4572,-4.4572,-4.4572,-4.4572,-4.4572,-4.4572,-4.4572,-4.4572,-4.4572,-4.4572,-4.4572,-4.4572,-4.4572,-4.4572,-4.4572,-4.4572,-4.4572,-4.4572,-4.4572,-4.4572,-4.4572,-4.4572,-4.4572,-4.4572,-4.4572,-4.4572,-4.4572,-4.4572,-4.4572,-4.4572,-4.4572,-4.4572,-4.4572,-4.4572,-4.4572,-4.4572,-4.4572,-4.4572,-4.4572,-4.5234,-4.5741,-4.6065,-4.7096,-4.7773,-4.8081,-4.8081,-4.8266,-4.862,-4.862,-4.862,-4.862,-4.862,-4.862,-4.862,-4.862,-4.862,-4.862,-4.862,-4.862,-4.862,-4.862,-4.862,-4.862,-3.6978,-3.6978,-3.6978,-3.6978,-3.6978,-3.6978,-3.6978,-3.6978,-3.6978,-3.6978,-3.6978,-3.6978,-3.6978,-3.7429,-3.7962,-3.856,-3.8634,-3.8708,-3.8782,-3.8708,-3.8634,-3.8634,-3.856,-3.8486,-3.8486,-3.856,-3.8929,-3.9538,-3.9538,-3.9753,-4.0161,-3.9737,-3.9809,-4.0231,-4.0316,-4.0385,-4.0385,-4.0455,-4.0524,-4.0586,-4.117,-4.1745,-4.2349,-4.2993,-4.3577,-4.4098,-4.4373,-4.4496,-4.4572,-4.4572,-4.4572,-4.4572,-4.4572,-4.4572,-4.4587,-4.4496,-4.4419,-4.4419,-4.4251,-4.4251,-4.4251,-4.4251,-4.4251,-4.4251,-4.4251,-4.4343,-4.4419,-4.4419,-4.4419,-4.4419,-4.4419,-4.4496,-4.4572,-4.4572,-4.4572,-4.4572,-4.4572,-4.4572,-4.4572,-4.4572,-4.4572,-4.4572,-4.4572,-4.4572,-4.4572,-4.4572,-4.4572,-4.4572,-4.4572,-4.4572,-4.4633,-4.4741,-4.5403,-4.608,-4.6757,-4.745,-4.8065,-4.862,-4.862,-4.862,-4.862,-4.862,-4.862,-4.862,-4.862,-4.862,-4.862,-4.862,-4.862,-4.862,-4.862,-4.862,-4.862,-4.862,-4.862,-4.862,-3.6978,-3.6978,-3.6978,-3.6978,-3.6978,-3.6978,-3.6978,-3.6978,-3.6978,-3.6978,-3.6978,-3.6978,-3.6978,-3.7056,-3.7352,-3.7962,-3.8037,-3.8263,-3.8782,-3.8337,-3.8037,-3.8037,-3.7505,-3.7211,-3.7211,-3.7734,-3.8337,-3.8929,-3.8929,-3.8929,-3.9002,-3.8929,-3.8929,-3.9075,-3.961,-3.9824,-3.9824,-4.0316,-4.0524,-4.0539,-4.0632,-4.0796,-4.1034,-4.161,-4.1955,-4.2208,-4.3341,-4.4097,-4.4572,-4.4572,-4.4572,-4.4572,-4.4572,-4.4572,-4.4496,-4.3942,-4.3708,-4.363,-4.3046,-4.2871,-4.2871,-4.2871,-4.2871,-4.2871,-4.2871,-4.3299,-4.3708,-4.3708,-4.3708,-4.3708,-4.3708,-4.4189,-4.4572,-4.4572,-4.4572,-4.4572,-4.4572,-4.4572,-4.4572,-4.4572,-4.4572,-4.4572,-4.4572,-4.4572,-4.4572,-4.4572,-4.4572,-4.4572,-4.4572,-4.4572,-4.4849,-4.5434,-4.6111,-4.6788,-4.7465,-4.8142,-4.8527,-4.862,-4.862,-4.862,-4.862,-4.862,-4.862,-4.862,-4.862,-4.862,-4.862,-4.862,-4.862,-4.862,-4.862,-4.862,-4.862,-4.862,-4.862,-4.862,-3.6978,-3.6978,-3.6978,-3.6978,-3.6978,-3.6978,-3.6978,-3.6978,-3.6978,-3.6978,-3.6978,-3.6978,-3.6978,-3.6978,-3.7134,-3.7352,-3.7366,-3.7505,-3.781,-3.7582,-3.7366,-3.7366,-3.7134,-3.6978,-3.6978,-3.7289,-3.7505,-3.781,-3.8113,-3.8486,-3.8782,-3.8486,-3.8486,-3.8782,-3.909,-3.9162,-3.9235,-3.9436,-3.958,-3.958,-3.958,-3.9841,-4.0278,-4.0859,-4.1359,-4.1839,-4.2728,-4.3205,-4.3521,-4.3521,-4.3536,-4.3551,-4.3521,-4.3521,-4.3442,-4.3126,-4.3046,-4.2966,-4.271,-4.2629,-4.2629,-4.2629,-4.2629,-4.2629,-4.2629,-4.2578,-4.2659,-4.2966,-4.3046,-4.3046,-4.3046,-4.3284,-4.3521,-4.3521,-4.3521,-4.36,-4.402,-4.402,-4.4174,-4.4572,-4.4266,-4.4174,-4.4572,-4.4266,-4.4189,-4.4572,-4.4572,-4.4572,-4.4572,-4.4572,-4.4895,-4.5572,-4.6249,-4.6927,-4.7588,-4.8266,-4.862,-4.862,-4.862,-4.862,-4.862,-4.862,-4.862,-4.862,-4.862,-4.862,-4.862,-4.862,-4.862,-4.862,-4.862,-4.862,-4.862,-4.862,-4.862,-4.862]}]]